Provisional Data: Little Chiques Creek near Mount Joy, PA


Please select a monitoring station.
Please select start date.
Please select start date.

Toggle Unit: C/F Toggle Unit: C/F
Sample Time Temperature (C) Temperature (F) Specific Conductivity (mS/cm) pH   Turbidity (NTU+) DO (mg/L)
1/12/2021 12:00:00 AM -99999.99 -179968 -99999.99 -99999.99 -99999.99 -99999.99
1/12/2021 12:15:00 AM -99999.99 -179968 -99999.99 -99999.99 -99999.99 -99999.99
1/12/2021 12:30:00 AM -99999.99 -179968 -99999.99 -99999.99 -99999.99 -99999.99
1/12/2021 12:45:00 AM -99999.99 -179968 -99999.99 -99999.99 -99999.99 -99999.99
1/12/2021 1:00:00 AM -99999.99 -179968 -99999.99 -99999.99 -99999.99 -99999.99
1/12/2021 1:15:00 AM -99999.99 -179968 -99999.99 -99999.99 -99999.99 -99999.99
1/12/2021 1:30:00 AM -99999.99 -179968 -99999.99 -99999.99 -99999.99 -99999.99
1/12/2021 1:45:00 AM -99999.99 -179968 -99999.99 -99999.99 -99999.99 -99999.99
1/12/2021 2:00:00 AM -99999.99 -179968 -99999.99 -99999.99 -99999.99 -99999.99
1/12/2021 2:15:00 AM -99999.99 -179968 -99999.99 -99999.99 -99999.99 -99999.99
1/12/2021 2:30:00 AM -99999.99 -179968 -99999.99 -99999.99 -99999.99 -99999.99
1/12/2021 2:45:00 AM -99999.99 -179968 -99999.99 -99999.99 -99999.99 -99999.99
1/12/2021 3:00:00 AM -99999.99 -179968 -99999.99 -99999.99 -99999.99 -99999.99
1/12/2021 3:15:00 AM -99999.99 -179968 -99999.99 -99999.99 -99999.99 -99999.99
1/12/2021 3:30:00 AM -99999.99 -179968 -99999.99 -99999.99 -99999.99 -99999.99
1/12/2021 3:45:00 AM -99999.99 -179968 -99999.99 -99999.99 -99999.99 -99999.99
1/12/2021 4:00:00 AM -99999.99 -179968 -99999.99 -99999.99 -99999.99 -99999.99
1/12/2021 4:15:00 AM -99999.99 -179968 -99999.99 -99999.99 -99999.99 -99999.99
1/12/2021 4:30:00 AM -99999.99 -179968 -99999.99 -99999.99 -99999.99 -99999.99
1/12/2021 4:45:00 AM -99999.99 -179968 -99999.99 -99999.99 -99999.99 -99999.99
1/12/2021 5:00:00 AM -99999.99 -179968 -99999.99 -99999.99 -99999.99 -99999.99
1/12/2021 5:15:00 AM -99999.99 -179968 -99999.99 -99999.99 -99999.99 -99999.99
1/12/2021 5:30:00 AM -99999.99 -179968 -99999.99 -99999.99 -99999.99 -99999.99
1/12/2021 5:45:00 AM -99999.99 -179968 -99999.99 -99999.99 -99999.99 -99999.99
1/12/2021 6:00:00 AM -99999.99 -179968 -99999.99 -99999.99 -99999.99 -99999.99
1/12/2021 6:15:00 AM -99999.99 -179968 -99999.99 -99999.99 -99999.99 -99999.99
1/12/2021 6:30:00 AM -99999.99 -179968 -99999.99 -99999.99 -99999.99 -99999.99
1/12/2021 6:45:00 AM -99999.99 -179968 -99999.99 -99999.99 -99999.99 -99999.99
1/12/2021 7:00:00 AM -99999.99 -179968 -99999.99 -99999.99 -99999.99 -99999.99
1/12/2021 7:15:00 AM -99999.99 -179968 -99999.99 -99999.99 -99999.99 -99999.99
1/12/2021 7:30:00 AM -99999.99 -179968 -99999.99 -99999.99 -99999.99 -99999.99
1/12/2021 7:45:00 AM -99999.99 -179968 -99999.99 -99999.99 -99999.99 -99999.99
1/12/2021 8:00:00 AM -99999.99 -179968 -99999.99 -99999.99 -99999.99 -99999.99
1/12/2021 8:15:00 AM -99999.99 -179968 -99999.99 -99999.99 -99999.99 -99999.99
1/12/2021 8:30:00 AM -99999.99 -179968 -99999.99 -99999.99 -99999.99 -99999.99
1/12/2021 8:45:00 AM -99999.99 -179968 -99999.99 -99999.99 -99999.99 -99999.99
1/12/2021 9:00:00 AM -99999.99 -179968 -99999.99 -99999.99 -99999.99 -99999.99
1/12/2021 9:15:00 AM -99999.99 -179968 -99999.99 -99999.99 -99999.99 -99999.99
1/12/2021 9:30:00 AM -99999.99 -179968 -99999.99 -99999.99 -99999.99 -99999.99
1/12/2021 9:45:00 AM -99999.99 -179968 -99999.99 -99999.99 -99999.99 -99999.99
1/12/2021 10:00:00 AM -99999.99 -179968 -99999.99 -99999.99 -99999.99 -99999.99
1/12/2021 10:15:00 AM -99999.99 -179968 -99999.99 -99999.99 -99999.99 -99999.99
1/12/2021 10:30:00 AM -99999.99 -179968 -99999.99 -99999.99 -99999.99 -99999.99
1/12/2021 10:45:00 AM -99999.99 -179968 -99999.99 -99999.99 -99999.99 -99999.99
1/12/2021 11:00:00 AM -99999.99 -179968 -99999.99 -99999.99 -99999.99 -99999.99
1/12/2021 11:15:00 AM -99999.99 -179968 -99999.99 -99999.99 -99999.99 -99999.99
1/12/2021 11:30:00 AM -99999.99 -179968 -99999.99 -99999.99 -99999.99 -99999.99
1/12/2021 11:45:00 AM -99999.99 -179968 -99999.99 -99999.99 -99999.99 -99999.99
1/12/2021 12:00:00 PM -99999.99 -179968 -99999.99 -99999.99 -99999.99 -99999.99
1/12/2021 12:15:00 PM -99999.99 -179968 -99999.99 -99999.99 -99999.99 -99999.99
1/12/2021 12:30:00 PM -99999.99 -179968 -99999.99 -99999.99 -99999.99 -99999.99
1/12/2021 12:45:00 PM -99999.99 -179968 -99999.99 -99999.99 -99999.99 -99999.99
1/12/2021 1:00:00 PM -99999.99 -179968 -99999.99 -99999.99 -99999.99 -99999.99
1/12/2021 1:15:00 PM -99999.99 -179968 -99999.99 -99999.99 -99999.99 -99999.99
1/12/2021 1:30:00 PM -99999.99 -179968 -99999.99 -99999.99 -99999.99 -99999.99
1/12/2021 1:45:00 PM -99999.99 -179968 -99999.99 -99999.99 -99999.99 -99999.99
1/12/2021 2:00:00 PM -99999.99 -179968 -99999.99 -99999.99 -99999.99 -99999.99
1/12/2021 2:15:00 PM 4.3 39.74 0.381 7.52 3.04 12.92
1/12/2021 2:30:00 PM 4.3 39.74 0.38 7.47 3.17 12.95
1/12/2021 2:45:00 PM 4.31 39.758 0.388 7.45 1.9 12.9
1/12/2021 3:00:00 PM 4.32 39.776 0.377 7.45 2.96 12.91
1/12/2021 3:15:00 PM -99999.99 -179968 -99999.99 -99999.99 -99999.99 -99999.99
1/12/2021 3:30:00 PM -99999.99 -179968 -99999.99 -99999.99 -99999.99 -99999.99
1/12/2021 3:45:00 PM -99999.99 -179968 -99999.99 -99999.99 -99999.99 -99999.99
1/12/2021 4:00:00 PM -99999.99 -179968 -99999.99 -99999.99 -99999.99 -99999.99
1/12/2021 4:15:00 PM -99999.99 -179968 -99999.99 -99999.99 -99999.99 -99999.99
1/12/2021 4:30:00 PM -99999.99 -179968 -99999.99 -99999.99 -99999.99 -99999.99
1/12/2021 4:45:00 PM -99999.99 -179968 -99999.99 -99999.99 -99999.99 -99999.99
1/12/2021 5:00:00 PM -99999.99 -179968 -99999.99 -99999.99 -99999.99 -99999.99
1/12/2021 5:15:00 PM -99999.99 -179968 -99999.99 -99999.99 -99999.99 -99999.99
1/12/2021 5:30:00 PM -99999.99 -179968 -99999.99 -99999.99 -99999.99 -99999.99
1/12/2021 5:45:00 PM -99999.99 -179968 -99999.99 -99999.99 -99999.99 -99999.99
1/12/2021 6:00:00 PM -99999.99 -179968 -99999.99 -99999.99 -99999.99 -99999.99
1/12/2021 6:15:00 PM -99999.99 -179968 -99999.99 -99999.99 -99999.99 -99999.99
1/12/2021 6:30:00 PM -99999.99 -179968 -99999.99 -99999.99 -99999.99 -99999.99
1/12/2021 6:45:00 PM -99999.99 -179968 -99999.99 -99999.99 -99999.99 -99999.99
1/12/2021 7:00:00 PM -99999.99 -179968 -99999.99 -99999.99 -99999.99 -99999.99
1/12/2021 7:15:00 PM -99999.99 -179968 -99999.99 -99999.99 -99999.99 -99999.99
1/12/2021 7:30:00 PM -99999.99 -179968 -99999.99 -99999.99 -99999.99 -99999.99
1/12/2021 7:45:00 PM -99999.99 -179968 -99999.99 -99999.99 -99999.99 -99999.99
1/12/2021 8:00:00 PM -99999.99 -179968 -99999.99 -99999.99 -99999.99 -99999.99
1/12/2021 8:15:00 PM -99999.99 -179968 -99999.99 -99999.99 -99999.99 -99999.99
1/12/2021 8:30:00 PM -99999.99 -179968 -99999.99 -99999.99 -99999.99 -99999.99
1/12/2021 8:45:00 PM -99999.99 -179968 -99999.99 -99999.99 -99999.99 -99999.99
1/12/2021 9:00:00 PM -99999.99 -179968 -99999.99 -99999.99 -99999.99 -99999.99
1/12/2021 9:15:00 PM -99999.99 -179968 -99999.99 -99999.99 -99999.99 -99999.99
1/12/2021 9:30:00 PM -99999.99 -179968 -99999.99 -99999.99 -99999.99 -99999.99
1/12/2021 9:45:00 PM -99999.99 -179968 -99999.99 -99999.99 -99999.99 -99999.99
1/12/2021 10:00:00 PM -99999.99 -179968 -99999.99 -99999.99 -99999.99 -99999.99
1/12/2021 10:15:00 PM -99999.99 -179968 -99999.99 -99999.99 -99999.99 -99999.99
1/12/2021 10:30:00 PM -99999.99 -179968 -99999.99 -99999.99 -99999.99 -99999.99
1/12/2021 10:45:00 PM -99999.99 -179968 -99999.99 -99999.99 -99999.99 -99999.99
1/12/2021 11:00:00 PM -99999.99 -179968 -99999.99 -99999.99 -99999.99 -99999.99
1/12/2021 11:15:00 PM -99999.99 -179968 -99999.99 -99999.99 -99999.99 -99999.99
1/12/2021 11:30:00 PM -99999.99 -179968 -99999.99 -99999.99 -99999.99 -99999.99
1/12/2021 11:45:00 PM -99999.99 -179968 -99999.99 -99999.99 -99999.99 -99999.99
1/13/2021 12:00:00 AM -99999.99 -179968 -99999.99 -99999.99 -99999.99 -99999.99
1/13/2021 12:15:00 AM -99999.99 -179968 -99999.99 -99999.99 -99999.99 -99999.99
1/13/2021 12:30:00 AM -99999.99 -179968 -99999.99 -99999.99 -99999.99 -99999.99
1/13/2021 12:45:00 AM -99999.99 -179968 -99999.99 -99999.99 -99999.99 -99999.99
1/13/2021 1:00:00 AM -99999.99 -179968 -99999.99 -99999.99 -99999.99 -99999.99
1/13/2021 1:15:00 AM -99999.99 -179968 -99999.99 -99999.99 -99999.99 -99999.99
1/13/2021 1:30:00 AM -99999.99 -179968 -99999.99 -99999.99 -99999.99 -99999.99
1/13/2021 1:45:00 AM -99999.99 -179968 -99999.99 -99999.99 -99999.99 -99999.99
1/13/2021 2:00:00 AM -99999.99 -179968 -99999.99 -99999.99 -99999.99 -99999.99
1/13/2021 2:15:00 AM -99999.99 -179968 -99999.99 -99999.99 -99999.99 -99999.99
1/13/2021 2:30:00 AM -99999.99 -179968 -99999.99 -99999.99 -99999.99 -99999.99
1/13/2021 2:45:00 AM -99999.99 -179968 -99999.99 -99999.99 -99999.99 -99999.99
1/13/2021 3:00:00 AM -99999.99 -179968 -99999.99 -99999.99 -99999.99 -99999.99
1/13/2021 3:15:00 AM -99999.99 -179968 -99999.99 -99999.99 -99999.99 -99999.99
1/13/2021 3:30:00 AM -99999.99 -179968 -99999.99 -99999.99 -99999.99 -99999.99
1/13/2021 3:45:00 AM -99999.99 -179968 -99999.99 -99999.99 -99999.99 -99999.99
1/13/2021 4:00:00 AM -99999.99 -179968 -99999.99 -99999.99 -99999.99 -99999.99
1/13/2021 4:15:00 AM -99999.99 -179968 -99999.99 -99999.99 -99999.99 -99999.99
1/13/2021 4:30:00 AM -99999.99 -179968 -99999.99 -99999.99 -99999.99 -99999.99
1/13/2021 4:45:00 AM -99999.99 -179968 -99999.99 -99999.99 -99999.99 -99999.99
1/13/2021 5:00:00 AM -99999.99 -179968 -99999.99 -99999.99 -99999.99 -99999.99
1/13/2021 5:15:00 AM -99999.99 -179968 -99999.99 -99999.99 -99999.99 -99999.99
1/13/2021 5:30:00 AM -99999.99 -179968 -99999.99 -99999.99 -99999.99 -99999.99
1/13/2021 5:45:00 AM -99999.99 -179968 -99999.99 -99999.99 -99999.99 -99999.99
1/13/2021 6:00:00 AM -99999.99 -179968 -99999.99 -99999.99 -99999.99 -99999.99
1/13/2021 6:15:00 AM -99999.99 -179968 -99999.99 -99999.99 -99999.99 -99999.99
1/13/2021 6:30:00 AM -99999.99 -179968 -99999.99 -99999.99 -99999.99 -99999.99
1/13/2021 6:45:00 AM -99999.99 -179968 -99999.99 -99999.99 -99999.99 -99999.99
1/13/2021 7:00:00 AM -99999.99 -179968 -99999.99 -99999.99 -99999.99 -99999.99
1/13/2021 7:15:00 AM -99999.99 -179968 -99999.99 -99999.99 -99999.99 -99999.99
1/13/2021 7:30:00 AM -99999.99 -179968 -99999.99 -99999.99 -99999.99 -99999.99
1/13/2021 7:45:00 AM -99999.99 -179968 -99999.99 -99999.99 -99999.99 -99999.99
1/13/2021 8:00:00 AM -99999.99 -179968 -99999.99 -99999.99 -99999.99 -99999.99
1/13/2021 8:15:00 AM -99999.99 -179968 -99999.99 -99999.99 -99999.99 -99999.99
1/13/2021 8:30:00 AM -99999.99 -179968 -99999.99 -99999.99 -99999.99 -99999.99
1/13/2021 8:45:00 AM -99999.99 -179968 -99999.99 -99999.99 -99999.99 -99999.99
1/13/2021 9:00:00 AM -99999.99 -179968 -99999.99 -99999.99 -99999.99 -99999.99
1/13/2021 9:15:00 AM -99999.99 -179968 -99999.99 -99999.99 -99999.99 -99999.99
1/13/2021 9:30:00 AM -99999.99 -179968 -99999.99 -99999.99 -99999.99 -99999.99
1/13/2021 9:45:00 AM -99999.99 -179968 -99999.99 -99999.99 -99999.99 -99999.99
1/13/2021 10:00:00 AM -99999.99 -179968 -99999.99 -99999.99 -99999.99 -99999.99
1/13/2021 10:15:00 AM -99999.99 -179968 -99999.99 -99999.99 -99999.99 -99999.99
1/13/2021 10:30:00 AM -99999.99 -179968 -99999.99 -99999.99 -99999.99 -99999.99
1/13/2021 10:45:00 AM -99999.99 -179968 -99999.99 -99999.99 -99999.99 -99999.99
1/13/2021 11:00:00 AM -99999.99 -179968 -99999.99 -99999.99 -99999.99 -99999.99
1/13/2021 11:15:00 AM -99999.99 -179968 -99999.99 -99999.99 -99999.99 -99999.99
1/13/2021 11:30:00 AM -99999.99 -179968 -99999.99 -99999.99 -99999.99 -99999.99
1/13/2021 11:45:00 AM -99999.99 -179968 -99999.99 -99999.99 -99999.99 -99999.99
1/13/2021 12:00:00 PM -99999.99 -179968 -99999.99 -99999.99 -99999.99 -99999.99
1/13/2021 12:15:00 PM -99999.99 -179968 -99999.99 -99999.99 -99999.99 -99999.99
1/13/2021 12:30:00 PM -99999.99 -179968 -99999.99 -99999.99 -99999.99 -99999.99
1/13/2021 12:45:00 PM -99999.99 -179968 -99999.99 -99999.99 -99999.99 -99999.99
1/13/2021 1:00:00 PM -99999.99 -179968 -99999.99 -99999.99 -99999.99 -99999.99
1/13/2021 1:15:00 PM -99999.99 -179968 -99999.99 -99999.99 -99999.99 -99999.99
1/13/2021 1:30:00 PM -99999.99 -179968 -99999.99 -99999.99 -99999.99 -99999.99
1/13/2021 1:45:00 PM -99999.99 -179968 -99999.99 -99999.99 -99999.99 -99999.99
1/13/2021 2:00:00 PM -99999.99 -179968 -99999.99 -99999.99 -99999.99 -99999.99
1/13/2021 2:15:00 PM -99999.99 -179968 -99999.99 -99999.99 -99999.99 -99999.99
1/13/2021 2:30:00 PM -99999.99 -179968 -99999.99 -99999.99 -99999.99 -99999.99
1/13/2021 2:45:00 PM -99999.99 -179968 -99999.99 -99999.99 -99999.99 -99999.99
1/13/2021 3:00:00 PM -99999.99 -179968 -99999.99 -99999.99 -99999.99 -99999.99
1/13/2021 3:15:00 PM -99999.99 -179968 -99999.99 -99999.99 -99999.99 -99999.99
1/13/2021 3:30:00 PM -99999.99 -179968 -99999.99 -99999.99 -99999.99 -99999.99
1/13/2021 3:45:00 PM -99999.99 -179968 -99999.99 -99999.99 -99999.99 -99999.99
1/13/2021 4:00:00 PM -99999.99 -179968 -99999.99 -99999.99 -99999.99 -99999.99
1/13/2021 4:15:00 PM -99999.99 -179968 -99999.99 -99999.99 -99999.99 -99999.99
1/13/2021 4:30:00 PM -99999.99 -179968 -99999.99 -99999.99 -99999.99 -99999.99
1/13/2021 4:45:00 PM -99999.99 -179968 -99999.99 -99999.99 -99999.99 -99999.99
1/13/2021 5:00:00 PM -99999.99 -179968 -99999.99 -99999.99 -99999.99 -99999.99
1/13/2021 5:15:00 PM -99999.99 -179968 -99999.99 -99999.99 -99999.99 -99999.99
1/13/2021 5:30:00 PM -99999.99 -179968 -99999.99 -99999.99 -99999.99 -99999.99
1/13/2021 5:45:00 PM -99999.99 -179968 -99999.99 -99999.99 -99999.99 -99999.99
1/13/2021 6:00:00 PM -99999.99 -179968 -99999.99 -99999.99 -99999.99 -99999.99
1/13/2021 6:15:00 PM -99999.99 -179968 -99999.99 -99999.99 -99999.99 -99999.99
1/13/2021 6:30:00 PM -99999.99 -179968 -99999.99 -99999.99 -99999.99 -99999.99
1/13/2021 6:45:00 PM -99999.99 -179968 -99999.99 -99999.99 -99999.99 -99999.99
1/13/2021 7:00:00 PM -99999.99 -179968 -99999.99 -99999.99 -99999.99 -99999.99
1/13/2021 7:15:00 PM -99999.99 -179968 -99999.99 -99999.99 -99999.99 -99999.99
1/13/2021 7:30:00 PM -99999.99 -179968 -99999.99 -99999.99 -99999.99 -99999.99
1/13/2021 7:45:00 PM -99999.99 -179968 -99999.99 -99999.99 -99999.99 -99999.99
1/13/2021 8:00:00 PM -99999.99 -179968 -99999.99 -99999.99 -99999.99 -99999.99
1/13/2021 8:15:00 PM -99999.99 -179968 -99999.99 -99999.99 -99999.99 -99999.99
1/13/2021 8:30:00 PM -99999.99 -179968 -99999.99 -99999.99 -99999.99 -99999.99
1/13/2021 8:45:00 PM -99999.99 -179968 -99999.99 -99999.99 -99999.99 -99999.99
1/13/2021 9:00:00 PM -99999.99 -179968 -99999.99 -99999.99 -99999.99 -99999.99
1/13/2021 9:15:00 PM -99999.99 -179968 -99999.99 -99999.99 -99999.99 -99999.99
1/13/2021 9:30:00 PM -99999.99 -179968 -99999.99 -99999.99 -99999.99 -99999.99
1/13/2021 9:45:00 PM -99999.99 -179968 -99999.99 -99999.99 -99999.99 -99999.99
1/13/2021 10:00:00 PM -99999.99 -179968 -99999.99 -99999.99 -99999.99 -99999.99
1/13/2021 10:15:00 PM -99999.99 -179968 -99999.99 -99999.99 -99999.99 -99999.99
1/13/2021 10:30:00 PM -99999.99 -179968 -99999.99 -99999.99 -99999.99 -99999.99
1/13/2021 10:45:00 PM -99999.99 -179968 -99999.99 -99999.99 -99999.99 -99999.99
1/13/2021 11:00:00 PM -99999.99 -179968 -99999.99 -99999.99 -99999.99 -99999.99
1/13/2021 11:15:00 PM -99999.99 -179968 -99999.99 -99999.99 -99999.99 -99999.99
1/13/2021 11:30:00 PM -99999.99 -179968 -99999.99 -99999.99 -99999.99 -99999.99
1/13/2021 11:45:00 PM -99999.99 -179968 -99999.99 -99999.99 -99999.99 -99999.99
1/14/2021 12:00:00 AM -99999.99 -179968 -99999.99 -99999.99 -99999.99 -99999.99
1/14/2021 12:15:00 AM -99999.99 -179968 -99999.99 -99999.99 -99999.99 -99999.99
1/14/2021 12:30:00 AM -99999.99 -179968 -99999.99 -99999.99 -99999.99 -99999.99
1/14/2021 12:45:00 AM -99999.99 -179968 -99999.99 -99999.99 -99999.99 -99999.99
1/14/2021 1:00:00 AM -99999.99 -179968 -99999.99 -99999.99 -99999.99 -99999.99
1/14/2021 1:15:00 AM -99999.99 -179968 -99999.99 -99999.99 -99999.99 -99999.99
1/14/2021 1:30:00 AM -99999.99 -179968 -99999.99 -99999.99 -99999.99 -99999.99
1/14/2021 1:45:00 AM -99999.99 -179968 -99999.99 -99999.99 -99999.99 -99999.99
1/14/2021 2:00:00 AM -99999.99 -179968 -99999.99 -99999.99 -99999.99 -99999.99
1/14/2021 2:15:00 AM -99999.99 -179968 -99999.99 -99999.99 -99999.99 -99999.99
1/14/2021 2:30:00 AM -99999.99 -179968 -99999.99 -99999.99 -99999.99 -99999.99
1/14/2021 2:45:00 AM -99999.99 -179968 -99999.99 -99999.99 -99999.99 -99999.99
1/14/2021 3:00:00 AM -99999.99 -179968 -99999.99 -99999.99 -99999.99 -99999.99
1/14/2021 3:15:00 AM -99999.99 -179968 -99999.99 -99999.99 -99999.99 -99999.99
1/14/2021 3:30:00 AM -99999.99 -179968 -99999.99 -99999.99 -99999.99 -99999.99
1/14/2021 3:45:00 AM -99999.99 -179968 -99999.99 -99999.99 -99999.99 -99999.99
1/14/2021 4:00:00 AM -99999.99 -179968 -99999.99 -99999.99 -99999.99 -99999.99
1/14/2021 4:15:00 AM -99999.99 -179968 -99999.99 -99999.99 -99999.99 -99999.99
1/14/2021 4:30:00 AM -99999.99 -179968 -99999.99 -99999.99 -99999.99 -99999.99
1/14/2021 4:45:00 AM -99999.99 -179968 -99999.99 -99999.99 -99999.99 -99999.99
1/14/2021 5:00:00 AM -99999.99 -179968 -99999.99 -99999.99 -99999.99 -99999.99
1/14/2021 5:15:00 AM -99999.99 -179968 -99999.99 -99999.99 -99999.99 -99999.99
1/14/2021 5:30:00 AM -99999.99 -179968 -99999.99 -99999.99 -99999.99 -99999.99
1/14/2021 5:45:00 AM -99999.99 -179968 -99999.99 -99999.99 -99999.99 -99999.99
1/14/2021 6:00:00 AM -99999.99 -179968 -99999.99 -99999.99 -99999.99 -99999.99
1/14/2021 6:15:00 AM -99999.99 -179968 -99999.99 -99999.99 -99999.99 -99999.99
1/14/2021 6:30:00 AM -99999.99 -179968 -99999.99 -99999.99 -99999.99 -99999.99
1/14/2021 6:45:00 AM -99999.99 -179968 -99999.99 -99999.99 -99999.99 -99999.99
1/14/2021 7:00:00 AM -99999.99 -179968 -99999.99 -99999.99 -99999.99 -99999.99
1/14/2021 7:15:00 AM -99999.99 -179968 -99999.99 -99999.99 -99999.99 -99999.99
1/14/2021 7:30:00 AM -99999.99 -179968 -99999.99 -99999.99 -99999.99 -99999.99
1/14/2021 7:45:00 AM -99999.99 -179968 -99999.99 -99999.99 -99999.99 -99999.99
1/14/2021 8:00:00 AM -99999.99 -179968 -99999.99 -99999.99 -99999.99 -99999.99
1/14/2021 8:15:00 AM -99999.99 -179968 -99999.99 -99999.99 -99999.99 -99999.99
1/14/2021 8:30:00 AM -99999.99 -179968 -99999.99 -99999.99 -99999.99 -99999.99
1/14/2021 8:45:00 AM -99999.99 -179968 -99999.99 -99999.99 -99999.99 -99999.99
1/14/2021 9:00:00 AM -99999.99 -179968 -99999.99 -99999.99 -99999.99 -99999.99
1/14/2021 9:15:00 AM -99999.99 -179968 -99999.99 -99999.99 -99999.99 -99999.99
1/14/2021 9:30:00 AM -99999.99 -179968 -99999.99 -99999.99 -99999.99 -99999.99
1/14/2021 9:45:00 AM -99999.99 -179968 -99999.99 -99999.99 -99999.99 -99999.99
1/14/2021 10:00:00 AM -99999.99 -179968 -99999.99 -99999.99 -99999.99 -99999.99
1/14/2021 10:15:00 AM -99999.99 -179968 -99999.99 -99999.99 -99999.99 -99999.99
1/14/2021 10:30:00 AM -99999.99 -179968 -99999.99 -99999.99 -99999.99 -99999.99
1/14/2021 10:45:00 AM -99999.99 -179968 -99999.99 -99999.99 -99999.99 -99999.99
1/14/2021 11:00:00 AM -99999.99 -179968 -99999.99 -99999.99 -99999.99 -99999.99
1/14/2021 11:15:00 AM -99999.99 -179968 -99999.99 -99999.99 -99999.99 -99999.99
1/14/2021 11:30:00 AM -99999.99 -179968 -99999.99 -99999.99 -99999.99 -99999.99
1/14/2021 11:45:00 AM -99999.99 -179968 -99999.99 -99999.99 -99999.99 -99999.99
1/14/2021 12:00:00 PM -99999.99 -179968 -99999.99 -99999.99 -99999.99 -99999.99
1/14/2021 12:15:00 PM -99999.99 -179968 -99999.99 -99999.99 -99999.99 -99999.99
1/14/2021 12:30:00 PM -99999.99 -179968 -99999.99 -99999.99 -99999.99 -99999.99
1/14/2021 12:45:00 PM -99999.99 -179968 -99999.99 -99999.99 -99999.99 -99999.99
1/14/2021 1:00:00 PM -99999.99 -179968 -99999.99 -99999.99 -99999.99 -99999.99
1/14/2021 1:15:00 PM -99999.99 -179968 -99999.99 -99999.99 -99999.99 -99999.99
1/14/2021 1:30:00 PM -99999.99 -179968 -99999.99 -99999.99 -99999.99 -99999.99
1/14/2021 1:45:00 PM -99999.99 -179968 -99999.99 -99999.99 -99999.99 -99999.99
1/14/2021 2:00:00 PM -99999.99 -179968 -99999.99 -99999.99 -99999.99 -99999.99
1/14/2021 2:15:00 PM -99999.99 -179968 -99999.99 -99999.99 -99999.99 -99999.99
1/14/2021 2:30:00 PM 5.59 42.062 0.379 7.6 92.59 12.53
1/14/2021 2:45:00 PM 5.63 42.134 0.383 7.5 16.92 12.64
1/14/2021 3:00:00 PM 5.66 42.188 0.38 7.49 5.45 12.55
1/14/2021 3:15:00 PM 5.68 42.224 0.379 7.49 3.7 12.54
1/14/2021 3:30:00 PM 5.67 42.206 0.379 7.48 3.4 12.48
1/14/2021 3:45:00 PM 5.68 42.224 0.379 7.49 3.3 12.42
1/14/2021 4:00:00 PM 5.68 42.224 0.379 7.48 3.13 12.41
1/14/2021 4:15:00 PM 5.67 42.206 0.379 7.48 3.03 12.43
1/14/2021 4:30:00 PM 5.67 42.206 0.379 7.48 3.12 12.34
1/14/2021 4:45:00 PM -99999.99 -179968 -99999.99 -99999.99 -99999.99 -99999.99
1/14/2021 5:00:00 PM -99999.99 -179968 -99999.99 -99999.99 -99999.99 -99999.99
1/14/2021 5:15:00 PM -99999.99 -179968 -99999.99 -99999.99 -99999.99 -99999.99
1/14/2021 5:30:00 PM -99999.99 -179968 -99999.99 -99999.99 -99999.99 -99999.99
1/14/2021 5:45:00 PM -99999.99 -179968 -99999.99 -99999.99 -99999.99 -99999.99
1/14/2021 6:00:00 PM -99999.99 -179968 -99999.99 -99999.99 -99999.99 -99999.99
1/14/2021 6:15:00 PM -99999.99 -179968 -99999.99 -99999.99 -99999.99 -99999.99
1/14/2021 6:30:00 PM -99999.99 -179968 -99999.99 -99999.99 -99999.99 -99999.99
1/14/2021 6:45:00 PM -99999.99 -179968 -99999.99 -99999.99 -99999.99 -99999.99
1/14/2021 7:00:00 PM -99999.99 -179968 -99999.99 -99999.99 -99999.99 -99999.99
1/14/2021 7:15:00 PM -99999.99 -179968 -99999.99 -99999.99 -99999.99 -99999.99
1/14/2021 7:30:00 PM -99999.99 -179968 -99999.99 -99999.99 -99999.99 -99999.99
1/14/2021 7:45:00 PM -99999.99 -179968 -99999.99 -99999.99 -99999.99 -99999.99
1/14/2021 8:00:00 PM -99999.99 -179968 -99999.99 -99999.99 -99999.99 -99999.99
1/14/2021 8:15:00 PM -99999.99 -179968 -99999.99 -99999.99 -99999.99 -99999.99
1/14/2021 8:30:00 PM -99999.99 -179968 -99999.99 -99999.99 -99999.99 -99999.99
1/14/2021 8:45:00 PM -99999.99 -179968 -99999.99 -99999.99 -99999.99 -99999.99
1/14/2021 9:00:00 PM -99999.99 -179968 -99999.99 -99999.99 -99999.99 -99999.99
1/14/2021 9:15:00 PM -99999.99 -179968 -99999.99 -99999.99 -99999.99 -99999.99
1/14/2021 9:30:00 PM -99999.99 -179968 -99999.99 -99999.99 -99999.99 -99999.99
1/14/2021 9:45:00 PM -99999.99 -179968 -99999.99 -99999.99 -99999.99 -99999.99
1/14/2021 10:00:00 PM -99999.99 -179968 -99999.99 -99999.99 -99999.99 -99999.99
1/14/2021 10:15:00 PM -99999.99 -179968 -99999.99 -99999.99 -99999.99 -99999.99
1/14/2021 10:30:00 PM -99999.99 -179968 -99999.99 -99999.99 -99999.99 -99999.99
1/14/2021 10:45:00 PM -99999.99 -179968 -99999.99 -99999.99 -99999.99 -99999.99
1/14/2021 11:00:00 PM -99999.99 -179968 -99999.99 -99999.99 -99999.99 -99999.99
1/14/2021 11:15:00 PM -99999.99 -179968 -99999.99 -99999.99 -99999.99 -99999.99
1/14/2021 11:30:00 PM -99999.99 -179968 -99999.99 -99999.99 -99999.99 -99999.99
1/14/2021 11:45:00 PM -99999.99 -179968 -99999.99 -99999.99 -99999.99 -99999.99
1/15/2021 12:00:00 AM -99999.99 -179968 -99999.99 -99999.99 -99999.99 -99999.99
1/15/2021 12:15:00 AM -99999.99 -179968 -99999.99 -99999.99 -99999.99 -99999.99
1/15/2021 12:30:00 AM -99999.99 -179968 -99999.99 -99999.99 -99999.99 -99999.99
1/15/2021 12:45:00 AM -99999.99 -179968 -99999.99 -99999.99 -99999.99 -99999.99
1/15/2021 1:00:00 AM -99999.99 -179968 -99999.99 -99999.99 -99999.99 -99999.99
1/15/2021 1:15:00 AM -99999.99 -179968 -99999.99 -99999.99 -99999.99 -99999.99
1/15/2021 1:30:00 AM -99999.99 -179968 -99999.99 -99999.99 -99999.99 -99999.99
1/15/2021 1:45:00 AM -99999.99 -179968 -99999.99 -99999.99 -99999.99 -99999.99
1/15/2021 2:00:00 AM -99999.99 -179968 -99999.99 -99999.99 -99999.99 -99999.99
1/15/2021 2:15:00 AM -99999.99 -179968 -99999.99 -99999.99 -99999.99 -99999.99
1/15/2021 2:30:00 AM -99999.99 -179968 -99999.99 -99999.99 -99999.99 -99999.99
1/15/2021 2:45:00 AM -99999.99 -179968 -99999.99 -99999.99 -99999.99 -99999.99
1/15/2021 3:00:00 AM -99999.99 -179968 -99999.99 -99999.99 -99999.99 -99999.99
1/15/2021 3:15:00 AM -99999.99 -179968 -99999.99 -99999.99 -99999.99 -99999.99
1/15/2021 3:30:00 AM -99999.99 -179968 -99999.99 -99999.99 -99999.99 -99999.99
1/15/2021 3:45:00 AM -99999.99 -179968 -99999.99 -99999.99 -99999.99 -99999.99
1/15/2021 4:00:00 AM -99999.99 -179968 -99999.99 -99999.99 -99999.99 -99999.99
1/15/2021 4:15:00 AM -99999.99 -179968 -99999.99 -99999.99 -99999.99 -99999.99
1/15/2021 4:30:00 AM -99999.99 -179968 -99999.99 -99999.99 -99999.99 -99999.99
1/15/2021 4:45:00 AM -99999.99 -179968 -99999.99 -99999.99 -99999.99 -99999.99
1/15/2021 5:00:00 AM -99999.99 -179968 -99999.99 -99999.99 -99999.99 -99999.99
1/15/2021 5:15:00 AM -99999.99 -179968 -99999.99 -99999.99 -99999.99 -99999.99
1/15/2021 5:30:00 AM -99999.99 -179968 -99999.99 -99999.99 -99999.99 -99999.99
1/15/2021 5:45:00 AM -99999.99 -179968 -99999.99 -99999.99 -99999.99 -99999.99
1/15/2021 6:00:00 AM -99999.99 -179968 -99999.99 -99999.99 -99999.99 -99999.99
1/15/2021 6:15:00 AM -99999.99 -179968 -99999.99 -99999.99 -99999.99 -99999.99
1/15/2021 6:30:00 AM -99999.99 -179968 -99999.99 -99999.99 -99999.99 -99999.99
1/15/2021 6:45:00 AM -99999.99 -179968 -99999.99 -99999.99 -99999.99 -99999.99
1/15/2021 7:00:00 AM -99999.99 -179968 -99999.99 -99999.99 -99999.99 -99999.99
1/15/2021 7:15:00 AM -99999.99 -179968 -99999.99 -99999.99 -99999.99 -99999.99
1/15/2021 7:30:00 AM -99999.99 -179968 -99999.99 -99999.99 -99999.99 -99999.99
1/15/2021 7:45:00 AM -99999.99 -179968 -99999.99 -99999.99 -99999.99 -99999.99
1/15/2021 8:00:00 AM -99999.99 -179968 -99999.99 -99999.99 -99999.99 -99999.99
1/15/2021 8:15:00 AM -99999.99 -179968 -99999.99 -99999.99 -99999.99 -99999.99
1/15/2021 8:30:00 AM -99999.99 -179968 -99999.99 -99999.99 -99999.99 -99999.99
1/15/2021 8:45:00 AM -99999.99 -179968 -99999.99 -99999.99 -99999.99 -99999.99
1/15/2021 9:00:00 AM -99999.99 -179968 -99999.99 -99999.99 -99999.99 -99999.99
1/15/2021 9:15:00 AM -99999.99 -179968 -99999.99 -99999.99 -99999.99 -99999.99
1/15/2021 9:30:00 AM -99999.99 -179968 -99999.99 -99999.99 -99999.99 -99999.99
1/15/2021 9:45:00 AM -99999.99 -179968 -99999.99 -99999.99 -99999.99 -99999.99
1/15/2021 10:00:00 AM -99999.99 -179968 -99999.99 -99999.99 -99999.99 -99999.99
1/15/2021 10:15:00 AM -99999.99 -179968 -99999.99 -99999.99 -99999.99 -99999.99
1/15/2021 10:30:00 AM -99999.99 -179968 -99999.99 -99999.99 -99999.99 -99999.99
1/15/2021 10:45:00 AM -99999.99 -179968 -99999.99 -99999.99 -99999.99 -99999.99
1/15/2021 11:00:00 AM -99999.99 -179968 -99999.99 -99999.99 -99999.99 -99999.99
1/15/2021 11:15:00 AM -99999.99 -179968 -99999.99 -99999.99 -99999.99 -99999.99
1/15/2021 11:30:00 AM -99999.99 -179968 -99999.99 -99999.99 -99999.99 -99999.99
1/15/2021 11:45:00 AM -99999.99 -179968 -99999.99 -99999.99 -99999.99 -99999.99
1/15/2021 12:00:00 PM -99999.99 -179968 -99999.99 -99999.99 -99999.99 -99999.99
1/15/2021 12:15:00 PM -99999.99 -179968 -99999.99 -99999.99 -99999.99 -99999.99
1/15/2021 12:30:00 PM -99999.99 -179968 -99999.99 -99999.99 -99999.99 -99999.99
1/15/2021 12:45:00 PM -99999.99 -179968 -99999.99 -99999.99 -99999.99 -99999.99
1/15/2021 1:00:00 PM -99999.99 -179968 -99999.99 -99999.99 -99999.99 -99999.99
1/15/2021 1:15:00 PM 5.47 41.846 0.384 7.53 2.56 12.6
1/15/2021 1:30:00 PM 5.52 41.936 0.38 7.51 3.05 12.61
1/15/2021 1:45:00 PM 5.59 42.062 0.376 7.5 2.71 12.5
1/15/2021 2:00:00 PM -99999.99 -179968 -99999.99 -99999.99 -99999.99 -99999.99
1/15/2021 2:15:00 PM -99999.99 -179968 -99999.99 -99999.99 -99999.99 -99999.99
1/15/2021 2:30:00 PM -99999.99 -179968 -99999.99 -99999.99 -99999.99 -99999.99
1/15/2021 2:45:00 PM -99999.99 -179968 -99999.99 -99999.99 -99999.99 -99999.99
1/15/2021 3:00:00 PM -99999.99 -179968 -99999.99 -99999.99 -99999.99 -99999.99
1/15/2021 3:15:00 PM -99999.99 -179968 -99999.99 -99999.99 -99999.99 -99999.99
1/15/2021 3:30:00 PM -99999.99 -179968 -99999.99 -99999.99 -99999.99 -99999.99
1/15/2021 3:45:00 PM -99999.99 -179968 -99999.99 -99999.99 -99999.99 -99999.99
1/15/2021 4:00:00 PM -99999.99 -179968 -99999.99 -99999.99 -99999.99 -99999.99
1/15/2021 4:15:00 PM -99999.99 -179968 -99999.99 -99999.99 -99999.99 -99999.99
1/15/2021 4:30:00 PM -99999.99 -179968 -99999.99 -99999.99 -99999.99 -99999.99
1/15/2021 4:45:00 PM -99999.99 -179968 -99999.99 -99999.99 -99999.99 -99999.99
1/15/2021 5:00:00 PM -99999.99 -179968 -99999.99 -99999.99 -99999.99 -99999.99
1/15/2021 5:15:00 PM -99999.99 -179968 -99999.99 -99999.99 -99999.99 -99999.99
1/15/2021 5:30:00 PM -99999.99 -179968 -99999.99 -99999.99 -99999.99 -99999.99
1/15/2021 5:45:00 PM -99999.99 -179968 -99999.99 -99999.99 -99999.99 -99999.99
1/15/2021 6:00:00 PM -99999.99 -179968 -99999.99 -99999.99 -99999.99 -99999.99
1/15/2021 6:15:00 PM -99999.99 -179968 -99999.99 -99999.99 -99999.99 -99999.99
1/15/2021 6:30:00 PM -99999.99 -179968 -99999.99 -99999.99 -99999.99 -99999.99
1/15/2021 6:45:00 PM -99999.99 -179968 -99999.99 -99999.99 -99999.99 -99999.99
1/15/2021 7:00:00 PM -99999.99 -179968 -99999.99 -99999.99 -99999.99 -99999.99
1/15/2021 7:15:00 PM -99999.99 -179968 -99999.99 -99999.99 -99999.99 -99999.99
1/15/2021 7:30:00 PM -99999.99 -179968 -99999.99 -99999.99 -99999.99 -99999.99
1/15/2021 7:45:00 PM -99999.99 -179968 -99999.99 -99999.99 -99999.99 -99999.99
1/15/2021 8:00:00 PM -99999.99 -179968 -99999.99 -99999.99 -99999.99 -99999.99
1/15/2021 8:15:00 PM -99999.99 -179968 -99999.99 -99999.99 -99999.99 -99999.99
1/15/2021 8:30:00 PM -99999.99 -179968 -99999.99 -99999.99 -99999.99 -99999.99
1/15/2021 8:45:00 PM -99999.99 -179968 -99999.99 -99999.99 -99999.99 -99999.99
1/15/2021 9:00:00 PM -99999.99 -179968 -99999.99 -99999.99 -99999.99 -99999.99
1/15/2021 9:15:00 PM -99999.99 -179968 -99999.99 -99999.99 -99999.99 -99999.99
1/15/2021 9:30:00 PM -99999.99 -179968 -99999.99 -99999.99 -99999.99 -99999.99
1/15/2021 9:45:00 PM -99999.99 -179968 -99999.99 -99999.99 -99999.99 -99999.99
1/15/2021 10:00:00 PM -99999.99 -179968 -99999.99 -99999.99 -99999.99 -99999.99
1/15/2021 10:15:00 PM -99999.99 -179968 -99999.99 -99999.99 -99999.99 -99999.99
1/15/2021 10:30:00 PM -99999.99 -179968 -99999.99 -99999.99 -99999.99 -99999.99
1/15/2021 10:45:00 PM -99999.99 -179968 -99999.99 -99999.99 -99999.99 -99999.99
1/15/2021 11:00:00 PM -99999.99 -179968 -99999.99 -99999.99 -99999.99 -99999.99
1/15/2021 11:15:00 PM -99999.99 -179968 -99999.99 -99999.99 -99999.99 -99999.99
1/15/2021 11:30:00 PM -99999.99 -179968 -99999.99 -99999.99 -99999.99 -99999.99
1/15/2021 11:45:00 PM -99999.99 -179968 -99999.99 -99999.99 -99999.99 -99999.99
1/16/2021 12:00:00 AM -99999.99 -179968 -99999.99 -99999.99 -99999.99 -99999.99
1/16/2021 12:15:00 AM -99999.99 -179968 -99999.99 -99999.99 -99999.99 -99999.99
1/16/2021 12:30:00 AM -99999.99 -179968 -99999.99 -99999.99 -99999.99 -99999.99
1/16/2021 12:45:00 AM -99999.99 -179968 -99999.99 -99999.99 -99999.99 -99999.99
1/16/2021 1:00:00 AM -99999.99 -179968 -99999.99 -99999.99 -99999.99 -99999.99
1/16/2021 1:15:00 AM -99999.99 -179968 -99999.99 -99999.99 -99999.99 -99999.99
1/16/2021 1:30:00 AM -99999.99 -179968 -99999.99 -99999.99 -99999.99 -99999.99
1/16/2021 1:45:00 AM -99999.99 -179968 -99999.99 -99999.99 -99999.99 -99999.99
1/16/2021 2:00:00 AM -99999.99 -179968 -99999.99 -99999.99 -99999.99 -99999.99
1/16/2021 2:15:00 AM -99999.99 -179968 -99999.99 -99999.99 -99999.99 -99999.99
1/16/2021 2:30:00 AM -99999.99 -179968 -99999.99 -99999.99 -99999.99 -99999.99
1/16/2021 2:45:00 AM -99999.99 -179968 -99999.99 -99999.99 -99999.99 -99999.99
1/16/2021 3:00:00 AM -99999.99 -179968 -99999.99 -99999.99 -99999.99 -99999.99
1/16/2021 3:15:00 AM -99999.99 -179968 -99999.99 -99999.99 -99999.99 -99999.99
1/16/2021 3:30:00 AM -99999.99 -179968 -99999.99 -99999.99 -99999.99 -99999.99
1/16/2021 3:45:00 AM -99999.99 -179968 -99999.99 -99999.99 -99999.99 -99999.99
1/16/2021 4:00:00 AM -99999.99 -179968 -99999.99 -99999.99 -99999.99 -99999.99
1/16/2021 4:15:00 AM -99999.99 -179968 -99999.99 -99999.99 -99999.99 -99999.99
1/16/2021 4:30:00 AM -99999.99 -179968 -99999.99 -99999.99 -99999.99 -99999.99
1/16/2021 4:45:00 AM -99999.99 -179968 -99999.99 -99999.99 -99999.99 -99999.99
1/16/2021 5:00:00 AM -99999.99 -179968 -99999.99 -99999.99 -99999.99 -99999.99
1/16/2021 5:15:00 AM -99999.99 -179968 -99999.99 -99999.99 -99999.99 -99999.99
1/16/2021 5:30:00 AM -99999.99 -179968 -99999.99 -99999.99 -99999.99 -99999.99
1/16/2021 5:45:00 AM -99999.99 -179968 -99999.99 -99999.99 -99999.99 -99999.99
1/16/2021 6:00:00 AM -99999.99 -179968 -99999.99 -99999.99 -99999.99 -99999.99
1/16/2021 6:15:00 AM -99999.99 -179968 -99999.99 -99999.99 -99999.99 -99999.99
1/16/2021 6:30:00 AM -99999.99 -179968 -99999.99 -99999.99 -99999.99 -99999.99
1/16/2021 6:45:00 AM -99999.99 -179968 -99999.99 -99999.99 -99999.99 -99999.99
1/16/2021 7:00:00 AM -99999.99 -179968 -99999.99 -99999.99 -99999.99 -99999.99
1/16/2021 7:15:00 AM -99999.99 -179968 -99999.99 -99999.99 -99999.99 -99999.99
1/16/2021 7:30:00 AM -99999.99 -179968 -99999.99 -99999.99 -99999.99 -99999.99
1/16/2021 7:45:00 AM -99999.99 -179968 -99999.99 -99999.99 -99999.99 -99999.99
1/16/2021 8:00:00 AM -99999.99 -179968 -99999.99 -99999.99 -99999.99 -99999.99
1/16/2021 8:15:00 AM -99999.99 -179968 -99999.99 -99999.99 -99999.99 -99999.99
1/16/2021 8:30:00 AM -99999.99 -179968 -99999.99 -99999.99 -99999.99 -99999.99
1/16/2021 8:45:00 AM -99999.99 -179968 -99999.99 -99999.99 -99999.99 -99999.99
1/16/2021 9:00:00 AM -99999.99 -179968 -99999.99 -99999.99 -99999.99 -99999.99
1/16/2021 9:15:00 AM -99999.99 -179968 -99999.99 -99999.99 -99999.99 -99999.99
1/16/2021 9:30:00 AM -99999.99 -179968 -99999.99 -99999.99 -99999.99 -99999.99
1/16/2021 9:45:00 AM -99999.99 -179968 -99999.99 -99999.99 -99999.99 -99999.99
1/16/2021 10:00:00 AM -99999.99 -179968 -99999.99 -99999.99 -99999.99 -99999.99
1/16/2021 10:15:00 AM 5.77 42.386 0.32 7.5 27.64 11.93
1/16/2021 10:30:00 AM 5.83 42.494 0.31 7.47 58.4 12
1/16/2021 10:45:00 AM 5.87 42.566 0.322 7.45 28.78 12.05
1/16/2021 11:00:00 AM 5.9 42.62 0.322 7.44 23.23 12.08
1/16/2021 11:15:00 AM 5.97 42.746 0.324 7.44 24.61 12.01
1/16/2021 11:30:00 AM 6.02 42.836 0.324 7.45 20.55 12.06
1/16/2021 11:45:00 AM 6.04 42.872 0.323 7.45 19.62 12.1
1/16/2021 12:00:00 PM -99999.99 -179968 -99999.99 -99999.99 -99999.99 -99999.99
1/16/2021 12:15:00 PM -99999.99 -179968 -99999.99 -99999.99 -99999.99 -99999.99
1/16/2021 12:30:00 PM -99999.99 -179968 -99999.99 -99999.99 -99999.99 -99999.99
1/16/2021 12:45:00 PM -99999.99 -179968 -99999.99 -99999.99 -99999.99 -99999.99
1/16/2021 1:00:00 PM -99999.99 -179968 -99999.99 -99999.99 -99999.99 -99999.99
1/16/2021 1:15:00 PM -99999.99 -179968 -99999.99 -99999.99 -99999.99 -99999.99
1/16/2021 1:30:00 PM -99999.99 -179968 -99999.99 -99999.99 -99999.99 -99999.99
1/16/2021 1:45:00 PM -99999.99 -179968 -99999.99 -99999.99 -99999.99 -99999.99
1/16/2021 2:00:00 PM -99999.99 -179968 -99999.99 -99999.99 -99999.99 -99999.99
1/16/2021 2:15:00 PM -99999.99 -179968 -99999.99 -99999.99 -99999.99 -99999.99
1/16/2021 2:30:00 PM -99999.99 -179968 -99999.99 -99999.99 -99999.99 -99999.99
1/16/2021 2:45:00 PM -99999.99 -179968 -99999.99 -99999.99 -99999.99 -99999.99
1/16/2021 3:00:00 PM -99999.99 -179968 -99999.99 -99999.99 -99999.99 -99999.99
1/16/2021 3:15:00 PM -99999.99 -179968 -99999.99 -99999.99 -99999.99 -99999.99
1/16/2021 3:30:00 PM -99999.99 -179968 -99999.99 -99999.99 -99999.99 -99999.99
1/16/2021 3:45:00 PM -99999.99 -179968 -99999.99 -99999.99 -99999.99 -99999.99
1/16/2021 4:00:00 PM -99999.99 -179968 -99999.99 -99999.99 -99999.99 -99999.99
1/16/2021 4:15:00 PM -99999.99 -179968 -99999.99 -99999.99 -99999.99 -99999.99
1/16/2021 4:30:00 PM -99999.99 -179968 -99999.99 -99999.99 -99999.99 -99999.99
1/16/2021 4:45:00 PM -99999.99 -179968 -99999.99 -99999.99 -99999.99 -99999.99
1/16/2021 5:00:00 PM -99999.99 -179968 -99999.99 -99999.99 -99999.99 -99999.99
1/16/2021 5:15:00 PM -99999.99 -179968 -99999.99 -99999.99 -99999.99 -99999.99
1/16/2021 5:30:00 PM -99999.99 -179968 -99999.99 -99999.99 -99999.99 -99999.99
1/16/2021 5:45:00 PM -99999.99 -179968 -99999.99 -99999.99 -99999.99 -99999.99
1/16/2021 6:00:00 PM -99999.99 -179968 -99999.99 -99999.99 -99999.99 -99999.99
1/16/2021 6:15:00 PM -99999.99 -179968 -99999.99 -99999.99 -99999.99 -99999.99
1/16/2021 6:30:00 PM -99999.99 -179968 -99999.99 -99999.99 -99999.99 -99999.99
1/16/2021 6:45:00 PM -99999.99 -179968 -99999.99 -99999.99 -99999.99 -99999.99
1/16/2021 7:00:00 PM -99999.99 -179968 -99999.99 -99999.99 -99999.99 -99999.99
1/16/2021 7:15:00 PM -99999.99 -179968 -99999.99 -99999.99 -99999.99 -99999.99
1/16/2021 7:30:00 PM -99999.99 -179968 -99999.99 -99999.99 -99999.99 -99999.99
1/16/2021 7:45:00 PM -99999.99 -179968 -99999.99 -99999.99 -99999.99 -99999.99
1/16/2021 8:00:00 PM -99999.99 -179968 -99999.99 -99999.99 -99999.99 -99999.99
1/16/2021 8:15:00 PM -99999.99 -179968 -99999.99 -99999.99 -99999.99 -99999.99
1/16/2021 8:30:00 PM -99999.99 -179968 -99999.99 -99999.99 -99999.99 -99999.99
1/16/2021 8:45:00 PM -99999.99 -179968 -99999.99 -99999.99 -99999.99 -99999.99
1/16/2021 9:00:00 PM -99999.99 -179968 -99999.99 -99999.99 -99999.99 -99999.99
1/16/2021 9:15:00 PM -99999.99 -179968 -99999.99 -99999.99 -99999.99 -99999.99
1/16/2021 9:30:00 PM -99999.99 -179968 -99999.99 -99999.99 -99999.99 -99999.99
1/16/2021 9:45:00 PM -99999.99 -179968 -99999.99 -99999.99 -99999.99 -99999.99
1/16/2021 10:00:00 PM -99999.99 -179968 -99999.99 -99999.99 -99999.99 -99999.99
1/16/2021 10:15:00 PM -99999.99 -179968 -99999.99 -99999.99 -99999.99 -99999.99
1/16/2021 10:30:00 PM -99999.99 -179968 -99999.99 -99999.99 -99999.99 -99999.99
1/16/2021 10:45:00 PM -99999.99 -179968 -99999.99 -99999.99 -99999.99 -99999.99
1/16/2021 11:00:00 PM -99999.99 -179968 -99999.99 -99999.99 -99999.99 -99999.99
1/16/2021 11:15:00 PM -99999.99 -179968 -99999.99 -99999.99 -99999.99 -99999.99
1/16/2021 11:30:00 PM -99999.99 -179968 -99999.99 -99999.99 -99999.99 -99999.99
1/16/2021 11:45:00 PM -99999.99 -179968 -99999.99 -99999.99 -99999.99 -99999.99
1/17/2021 12:00:00 AM -99999.99 -179968 -99999.99 -99999.99 -99999.99 -99999.99
1/17/2021 12:15:00 AM -99999.99 -179968 -99999.99 -99999.99 -99999.99 -99999.99
1/17/2021 12:30:00 AM -99999.99 -179968 -99999.99 -99999.99 -99999.99 -99999.99
1/17/2021 12:45:00 AM -99999.99 -179968 -99999.99 -99999.99 -99999.99 -99999.99
1/17/2021 1:00:00 AM -99999.99 -179968 -99999.99 -99999.99 -99999.99 -99999.99
1/17/2021 1:15:00 AM -99999.99 -179968 -99999.99 -99999.99 -99999.99 -99999.99
1/17/2021 1:30:00 AM -99999.99 -179968 -99999.99 -99999.99 -99999.99 -99999.99
1/17/2021 1:45:00 AM -99999.99 -179968 -99999.99 -99999.99 -99999.99 -99999.99
1/17/2021 2:00:00 AM -99999.99 -179968 -99999.99 -99999.99 -99999.99 -99999.99
1/17/2021 2:15:00 AM -99999.99 -179968 -99999.99 -99999.99 -99999.99 -99999.99
1/17/2021 2:30:00 AM -99999.99 -179968 -99999.99 -99999.99 -99999.99 -99999.99
1/17/2021 2:45:00 AM -99999.99 -179968 -99999.99 -99999.99 -99999.99 -99999.99
1/17/2021 3:00:00 AM -99999.99 -179968 -99999.99 -99999.99 -99999.99 -99999.99
1/17/2021 3:15:00 AM -99999.99 -179968 -99999.99 -99999.99 -99999.99 -99999.99
1/17/2021 3:30:00 AM -99999.99 -179968 -99999.99 -99999.99 -99999.99 -99999.99
1/17/2021 3:45:00 AM -99999.99 -179968 -99999.99 -99999.99 -99999.99 -99999.99
1/17/2021 4:00:00 AM -99999.99 -179968 -99999.99 -99999.99 -99999.99 -99999.99
1/17/2021 4:15:00 AM -99999.99 -179968 -99999.99 -99999.99 -99999.99 -99999.99
1/17/2021 4:30:00 AM -99999.99 -179968 -99999.99 -99999.99 -99999.99 -99999.99
1/17/2021 4:45:00 AM -99999.99 -179968 -99999.99 -99999.99 -99999.99 -99999.99
1/17/2021 5:00:00 AM -99999.99 -179968 -99999.99 -99999.99 -99999.99 -99999.99
1/17/2021 5:15:00 AM -99999.99 -179968 -99999.99 -99999.99 -99999.99 -99999.99
1/17/2021 5:30:00 AM -99999.99 -179968 -99999.99 -99999.99 -99999.99 -99999.99
1/17/2021 5:45:00 AM -99999.99 -179968 -99999.99 -99999.99 -99999.99 -99999.99
1/17/2021 6:00:00 AM -99999.99 -179968 -99999.99 -99999.99 -99999.99 -99999.99
1/17/2021 6:15:00 AM -99999.99 -179968 -99999.99 -99999.99 -99999.99 -99999.99
1/17/2021 6:30:00 AM -99999.99 -179968 -99999.99 -99999.99 -99999.99 -99999.99
1/17/2021 6:45:00 AM -99999.99 -179968 -99999.99 -99999.99 -99999.99 -99999.99
1/17/2021 7:00:00 AM -99999.99 -179968 -99999.99 -99999.99 -99999.99 -99999.99
1/17/2021 7:15:00 AM -99999.99 -179968 -99999.99 -99999.99 -99999.99 -99999.99
1/17/2021 7:30:00 AM -99999.99 -179968 -99999.99 -99999.99 -99999.99 -99999.99
1/17/2021 7:45:00 AM -99999.99 -179968 -99999.99 -99999.99 -99999.99 -99999.99
1/17/2021 8:00:00 AM -99999.99 -179968 -99999.99 -99999.99 -99999.99 -99999.99
1/17/2021 8:15:00 AM -99999.99 -179968 -99999.99 -99999.99 -99999.99 -99999.99
1/17/2021 8:30:00 AM -99999.99 -179968 -99999.99 -99999.99 -99999.99 -99999.99
1/17/2021 8:45:00 AM -99999.99 -179968 -99999.99 -99999.99 -99999.99 -99999.99
1/17/2021 9:00:00 AM -99999.99 -179968 -99999.99 -99999.99 -99999.99 -99999.99
1/17/2021 9:15:00 AM -99999.99 -179968 -99999.99 -99999.99 -99999.99 -99999.99
1/17/2021 9:30:00 AM -99999.99 -179968 -99999.99 -99999.99 -99999.99 -99999.99
1/17/2021 9:45:00 AM -99999.99 -179968 -99999.99 -99999.99 -99999.99 -99999.99
1/17/2021 10:00:00 AM -99999.99 -179968 -99999.99 -99999.99 -99999.99 -99999.99
1/17/2021 10:15:00 AM -99999.99 -179968 -99999.99 -99999.99 -99999.99 -99999.99
1/17/2021 10:30:00 AM -99999.99 -179968 -99999.99 -99999.99 -99999.99 -99999.99
1/17/2021 10:45:00 AM -99999.99 -179968 -99999.99 -99999.99 -99999.99 -99999.99
1/17/2021 11:00:00 AM -99999.99 -179968 -99999.99 -99999.99 -99999.99 -99999.99
1/17/2021 11:15:00 AM -99999.99 -179968 -99999.99 -99999.99 -99999.99 -99999.99
1/17/2021 11:30:00 AM -99999.99 -179968 -99999.99 -99999.99 -99999.99 -99999.99
1/17/2021 11:45:00 AM -99999.99 -179968 -99999.99 -99999.99 -99999.99 -99999.99
1/17/2021 12:00:00 PM -99999.99 -179968 -99999.99 -99999.99 -99999.99 -99999.99
1/17/2021 12:15:00 PM -99999.99 -179968 -99999.99 -99999.99 -99999.99 -99999.99
1/17/2021 12:30:00 PM -99999.99 -179968 -99999.99 -99999.99 -99999.99 -99999.99
1/17/2021 12:45:00 PM -99999.99 -179968 -99999.99 -99999.99 -99999.99 -99999.99
1/17/2021 1:00:00 PM -99999.99 -179968 -99999.99 -99999.99 -99999.99 -99999.99
1/17/2021 1:15:00 PM -99999.99 -179968 -99999.99 -99999.99 -99999.99 -99999.99
1/17/2021 1:30:00 PM -99999.99 -179968 -99999.99 -99999.99 -99999.99 -99999.99
1/17/2021 1:45:00 PM -99999.99 -179968 -99999.99 -99999.99 -99999.99 -99999.99
1/17/2021 2:00:00 PM -99999.99 -179968 -99999.99 -99999.99 -99999.99 -99999.99
1/17/2021 2:15:00 PM -99999.99 -179968 -99999.99 -99999.99 -99999.99 -99999.99
1/17/2021 2:30:00 PM -99999.99 -179968 -99999.99 -99999.99 -99999.99 -99999.99
1/17/2021 2:45:00 PM -99999.99 -179968 -99999.99 -99999.99 -99999.99 -99999.99
1/17/2021 3:00:00 PM -99999.99 -179968 -99999.99 -99999.99 -99999.99 -99999.99
1/17/2021 3:15:00 PM -99999.99 -179968 -99999.99 -99999.99 -99999.99 -99999.99
1/17/2021 3:30:00 PM -99999.99 -179968 -99999.99 -99999.99 -99999.99 -99999.99
1/17/2021 3:45:00 PM -99999.99 -179968 -99999.99 -99999.99 -99999.99 -99999.99
1/17/2021 4:00:00 PM -99999.99 -179968 -99999.99 -99999.99 -99999.99 -99999.99
1/17/2021 4:15:00 PM -99999.99 -179968 -99999.99 -99999.99 -99999.99 -99999.99
1/17/2021 4:30:00 PM -99999.99 -179968 -99999.99 -99999.99 -99999.99 -99999.99
1/17/2021 4:45:00 PM -99999.99 -179968 -99999.99 -99999.99 -99999.99 -99999.99
1/17/2021 5:00:00 PM -99999.99 -179968 -99999.99 -99999.99 -99999.99 -99999.99
1/17/2021 5:15:00 PM -99999.99 -179968 -99999.99 -99999.99 -99999.99 -99999.99
1/17/2021 5:30:00 PM -99999.99 -179968 -99999.99 -99999.99 -99999.99 -99999.99
1/17/2021 5:45:00 PM -99999.99 -179968 -99999.99 -99999.99 -99999.99 -99999.99
1/17/2021 6:00:00 PM -99999.99 -179968 -99999.99 -99999.99 -99999.99 -99999.99
1/17/2021 6:15:00 PM -99999.99 -179968 -99999.99 -99999.99 -99999.99 -99999.99
1/17/2021 6:30:00 PM -99999.99 -179968 -99999.99 -99999.99 -99999.99 -99999.99
1/17/2021 6:45:00 PM -99999.99 -179968 -99999.99 -99999.99 -99999.99 -99999.99
1/17/2021 7:00:00 PM -99999.99 -179968 -99999.99 -99999.99 -99999.99 -99999.99
1/17/2021 7:15:00 PM -99999.99 -179968 -99999.99 -99999.99 -99999.99 -99999.99
1/17/2021 7:30:00 PM -99999.99 -179968 -99999.99 -99999.99 -99999.99 -99999.99
1/17/2021 7:45:00 PM -99999.99 -179968 -99999.99 -99999.99 -99999.99 -99999.99
1/17/2021 8:00:00 PM -99999.99 -179968 -99999.99 -99999.99 -99999.99 -99999.99
1/17/2021 8:15:00 PM -99999.99 -179968 -99999.99 -99999.99 -99999.99 -99999.99
1/17/2021 8:30:00 PM -99999.99 -179968 -99999.99 -99999.99 -99999.99 -99999.99
1/17/2021 8:45:00 PM -99999.99 -179968 -99999.99 -99999.99 -99999.99 -99999.99
1/17/2021 9:00:00 PM -99999.99 -179968 -99999.99 -99999.99 -99999.99 -99999.99
1/17/2021 9:15:00 PM -99999.99 -179968 -99999.99 -99999.99 -99999.99 -99999.99
1/17/2021 9:30:00 PM -99999.99 -179968 -99999.99 -99999.99 -99999.99 -99999.99
1/17/2021 9:45:00 PM -99999.99 -179968 -99999.99 -99999.99 -99999.99 -99999.99
1/17/2021 10:00:00 PM -99999.99 -179968 -99999.99 -99999.99 -99999.99 -99999.99
1/17/2021 10:15:00 PM -99999.99 -179968 -99999.99 -99999.99 -99999.99 -99999.99
1/17/2021 10:30:00 PM -99999.99 -179968 -99999.99 -99999.99 -99999.99 -99999.99
1/17/2021 10:45:00 PM -99999.99 -179968 -99999.99 -99999.99 -99999.99 -99999.99
1/17/2021 11:00:00 PM -99999.99 -179968 -99999.99 -99999.99 -99999.99 -99999.99
1/17/2021 11:15:00 PM -99999.99 -179968 -99999.99 -99999.99 -99999.99 -99999.99
1/17/2021 11:30:00 PM -99999.99 -179968 -99999.99 -99999.99 -99999.99 -99999.99
1/17/2021 11:45:00 PM -99999.99 -179968 -99999.99 -99999.99 -99999.99 -99999.99
1/18/2021 12:00:00 AM -99999.99 -179968 -99999.99 -99999.99 -99999.99 -99999.99
1/18/2021 12:15:00 AM -99999.99 -179968 -99999.99 -99999.99 -99999.99 -99999.99
1/18/2021 12:30:00 AM -99999.99 -179968 -99999.99 -99999.99 -99999.99 -99999.99
1/18/2021 12:45:00 AM -99999.99 -179968 -99999.99 -99999.99 -99999.99 -99999.99
1/18/2021 1:00:00 AM -99999.99 -179968 -99999.99 -99999.99 -99999.99 -99999.99
1/18/2021 1:15:00 AM -99999.99 -179968 -99999.99 -99999.99 -99999.99 -99999.99
1/18/2021 1:30:00 AM -99999.99 -179968 -99999.99 -99999.99 -99999.99 -99999.99
1/18/2021 1:45:00 AM -99999.99 -179968 -99999.99 -99999.99 -99999.99 -99999.99
1/18/2021 2:00:00 AM -99999.99 -179968 -99999.99 -99999.99 -99999.99 -99999.99
1/18/2021 2:15:00 AM -99999.99 -179968 -99999.99 -99999.99 -99999.99 -99999.99
1/18/2021 2:30:00 AM -99999.99 -179968 -99999.99 -99999.99 -99999.99 -99999.99
1/18/2021 2:45:00 AM -99999.99 -179968 -99999.99 -99999.99 -99999.99 -99999.99
1/18/2021 3:00:00 AM -99999.99 -179968 -99999.99 -99999.99 -99999.99 -99999.99
1/18/2021 3:15:00 AM -99999.99 -179968 -99999.99 -99999.99 -99999.99 -99999.99
1/18/2021 3:30:00 AM -99999.99 -179968 -99999.99 -99999.99 -99999.99 -99999.99
1/18/2021 3:45:00 AM -99999.99 -179968 -99999.99 -99999.99 -99999.99 -99999.99
1/18/2021 4:00:00 AM -99999.99 -179968 -99999.99 -99999.99 -99999.99 -99999.99
1/18/2021 4:15:00 AM -99999.99 -179968 -99999.99 -99999.99 -99999.99 -99999.99
1/18/2021 4:30:00 AM -99999.99 -179968 -99999.99 -99999.99 -99999.99 -99999.99
1/18/2021 4:45:00 AM -99999.99 -179968 -99999.99 -99999.99 -99999.99 -99999.99
1/18/2021 5:00:00 AM -99999.99 -179968 -99999.99 -99999.99 -99999.99 -99999.99
1/18/2021 5:15:00 AM -99999.99 -179968 -99999.99 -99999.99 -99999.99 -99999.99
1/18/2021 5:30:00 AM -99999.99 -179968 -99999.99 -99999.99 -99999.99 -99999.99
1/18/2021 5:45:00 AM -99999.99 -179968 -99999.99 -99999.99 -99999.99 -99999.99
1/18/2021 6:00:00 AM -99999.99 -179968 -99999.99 -99999.99 -99999.99 -99999.99
1/18/2021 6:15:00 AM -99999.99 -179968 -99999.99 -99999.99 -99999.99 -99999.99
1/18/2021 6:30:00 AM -99999.99 -179968 -99999.99 -99999.99 -99999.99 -99999.99
1/18/2021 6:45:00 AM -99999.99 -179968 -99999.99 -99999.99 -99999.99 -99999.99
1/18/2021 7:00:00 AM -99999.99 -179968 -99999.99 -99999.99 -99999.99 -99999.99
1/18/2021 7:15:00 AM -99999.99 -179968 -99999.99 -99999.99 -99999.99 -99999.99
1/18/2021 7:30:00 AM -99999.99 -179968 -99999.99 -99999.99 -99999.99 -99999.99
1/18/2021 7:45:00 AM -99999.99 -179968 -99999.99 -99999.99 -99999.99 -99999.99
1/18/2021 8:00:00 AM -99999.99 -179968 -99999.99 -99999.99 -99999.99 -99999.99
1/18/2021 8:15:00 AM -99999.99 -179968 -99999.99 -99999.99 -99999.99 -99999.99
1/18/2021 8:30:00 AM -99999.99 -179968 -99999.99 -99999.99 -99999.99 -99999.99
1/18/2021 8:45:00 AM -99999.99 -179968 -99999.99 -99999.99 -99999.99 -99999.99
1/18/2021 9:00:00 AM -99999.99 -179968 -99999.99 -99999.99 -99999.99 -99999.99
1/18/2021 9:15:00 AM -99999.99 -179968 -99999.99 -99999.99 -99999.99 -99999.99
1/18/2021 9:30:00 AM -99999.99 -179968 -99999.99 -99999.99 -99999.99 -99999.99
1/18/2021 9:45:00 AM -99999.99 -179968 -99999.99 -99999.99 -99999.99 -99999.99
1/18/2021 10:00:00 AM -99999.99 -179968 -99999.99 -99999.99 -99999.99 -99999.99
1/18/2021 10:15:00 AM 5.33 41.594 0.369 7.54 8.07 12.38
1/18/2021 10:30:00 AM 5.37 41.666 0.369 7.51 4.8 12.48
1/18/2021 10:45:00 AM -99999.99 -179968 -99999.99 -99999.99 -99999.99 -99999.99
1/18/2021 11:00:00 AM -99999.99 -179968 -99999.99 -99999.99 -99999.99 -99999.99
1/18/2021 11:15:00 AM -99999.99 -179968 -99999.99 -99999.99 -99999.99 -99999.99
1/18/2021 11:30:00 AM -99999.99 -179968 -99999.99 -99999.99 -99999.99 -99999.99
1/18/2021 11:45:00 AM -99999.99 -179968 -99999.99 -99999.99 -99999.99 -99999.99
1/18/2021 12:00:00 PM -99999.99 -179968 -99999.99 -99999.99 -99999.99 -99999.99
1/18/2021 12:15:00 PM -99999.99 -179968 -99999.99 -99999.99 -99999.99 -99999.99
1/18/2021 12:30:00 PM -99999.99 -179968 -99999.99 -99999.99 -99999.99 -99999.99
1/18/2021 12:45:00 PM -99999.99 -179968 -99999.99 -99999.99 -99999.99 -99999.99
1/18/2021 1:00:00 PM -99999.99 -179968 -99999.99 -99999.99 -99999.99 -99999.99
1/18/2021 1:15:00 PM -99999.99 -179968 -99999.99 -99999.99 -99999.99 -99999.99
1/18/2021 1:30:00 PM -99999.99 -179968 -99999.99 -99999.99 -99999.99 -99999.99
1/18/2021 1:45:00 PM -99999.99 -179968 -99999.99 -99999.99 -99999.99 -99999.99
1/18/2021 2:00:00 PM -99999.99 -179968 -99999.99 -99999.99 -99999.99 -99999.99
1/18/2021 2:15:00 PM 5.91 42.638 0.369 7.65 3.08 12.68
1/18/2021 2:30:00 PM 5.9 42.62 0.368 7.58 3.08 12.67
1/18/2021 2:45:00 PM -99999.99 -179968 -99999.99 -99999.99 -99999.99 -99999.99
1/18/2021 3:00:00 PM -99999.99 -179968 -99999.99 -99999.99 -99999.99 -99999.99
1/18/2021 3:15:00 PM -99999.99 -179968 -99999.99 -99999.99 -99999.99 -99999.99
1/18/2021 3:30:00 PM -99999.99 -179968 -99999.99 -99999.99 -99999.99 -99999.99
1/18/2021 3:45:00 PM -99999.99 -179968 -99999.99 -99999.99 -99999.99 -99999.99
1/18/2021 4:00:00 PM -99999.99 -179968 -99999.99 -99999.99 -99999.99 -99999.99
1/18/2021 4:15:00 PM -99999.99 -179968 -99999.99 -99999.99 -99999.99 -99999.99
1/18/2021 4:30:00 PM -99999.99 -179968 -99999.99 -99999.99 -99999.99 -99999.99
1/18/2021 4:45:00 PM -99999.99 -179968 -99999.99 -99999.99 -99999.99 -99999.99
1/18/2021 5:00:00 PM -99999.99 -179968 -99999.99 -99999.99 -99999.99 -99999.99
1/18/2021 5:15:00 PM -99999.99 -179968 -99999.99 -99999.99 -99999.99 -99999.99
1/18/2021 5:30:00 PM -99999.99 -179968 -99999.99 -99999.99 -99999.99 -99999.99
1/18/2021 5:45:00 PM -99999.99 -179968 -99999.99 -99999.99 -99999.99 -99999.99
1/18/2021 6:00:00 PM -99999.99 -179968 -99999.99 -99999.99 -99999.99 -99999.99
1/18/2021 6:15:00 PM -99999.99 -179968 -99999.99 -99999.99 -99999.99 -99999.99
1/18/2021 6:30:00 PM -99999.99 -179968 -99999.99 -99999.99 -99999.99 -99999.99
1/18/2021 6:45:00 PM -99999.99 -179968 -99999.99 -99999.99 -99999.99 -99999.99
1/18/2021 7:00:00 PM -99999.99 -179968 -99999.99 -99999.99 -99999.99 -99999.99
1/18/2021 7:15:00 PM -99999.99 -179968 -99999.99 -99999.99 -99999.99 -99999.99
1/18/2021 7:30:00 PM -99999.99 -179968 -99999.99 -99999.99 -99999.99 -99999.99
1/18/2021 7:45:00 PM -99999.99 -179968 -99999.99 -99999.99 -99999.99 -99999.99
1/18/2021 8:00:00 PM -99999.99 -179968 -99999.99 -99999.99 -99999.99 -99999.99
1/18/2021 8:15:00 PM -99999.99 -179968 -99999.99 -99999.99 -99999.99 -99999.99
1/18/2021 8:30:00 PM -99999.99 -179968 -99999.99 -99999.99 -99999.99 -99999.99
1/18/2021 8:45:00 PM -99999.99 -179968 -99999.99 -99999.99 -99999.99 -99999.99
1/18/2021 9:00:00 PM -99999.99 -179968 -99999.99 -99999.99 -99999.99 -99999.99
1/18/2021 9:15:00 PM -99999.99 -179968 -99999.99 -99999.99 -99999.99 -99999.99
1/18/2021 9:30:00 PM -99999.99 -179968 -99999.99 -99999.99 -99999.99 -99999.99
1/18/2021 9:45:00 PM -99999.99 -179968 -99999.99 -99999.99 -99999.99 -99999.99
1/18/2021 10:00:00 PM -99999.99 -179968 -99999.99 -99999.99 -99999.99 -99999.99
1/18/2021 10:15:00 PM -99999.99 -179968 -99999.99 -99999.99 -99999.99 -99999.99
1/18/2021 10:30:00 PM -99999.99 -179968 -99999.99 -99999.99 -99999.99 -99999.99
1/18/2021 10:45:00 PM -99999.99 -179968 -99999.99 -99999.99 -99999.99 -99999.99
1/18/2021 11:00:00 PM -99999.99 -179968 -99999.99 -99999.99 -99999.99 -99999.99
1/18/2021 11:15:00 PM -99999.99 -179968 -99999.99 -99999.99 -99999.99 -99999.99
1/18/2021 11:30:00 PM -99999.99 -179968 -99999.99 -99999.99 -99999.99 -99999.99
1/18/2021 11:45:00 PM -99999.99 -179968 -99999.99 -99999.99 -99999.99 -99999.99
1/19/2021 12:00:00 AM -99999.99 -179968 -99999.99 -99999.99 -99999.99 -99999.99
1/19/2021 12:15:00 AM -99999.99 -179968 -99999.99 -99999.99 -99999.99 -99999.99
1/19/2021 12:30:00 AM -99999.99 -179968 -99999.99 -99999.99 -99999.99 -99999.99
1/19/2021 12:45:00 AM -99999.99 -179968 -99999.99 -99999.99 -99999.99 -99999.99
1/19/2021 1:00:00 AM -99999.99 -179968 -99999.99 -99999.99 -99999.99 -99999.99
1/19/2021 1:15:00 AM -99999.99 -179968 -99999.99 -99999.99 -99999.99 -99999.99
1/19/2021 1:30:00 AM -99999.99 -179968 -99999.99 -99999.99 -99999.99 -99999.99
1/19/2021 1:45:00 AM -99999.99 -179968 -99999.99 -99999.99 -99999.99 -99999.99
1/19/2021 2:00:00 AM -99999.99 -179968 -99999.99 -99999.99 -99999.99 -99999.99
1/19/2021 2:15:00 AM -99999.99 -179968 -99999.99 -99999.99 -99999.99 -99999.99
1/19/2021 2:30:00 AM -99999.99 -179968 -99999.99 -99999.99 -99999.99 -99999.99
1/19/2021 2:45:00 AM -99999.99 -179968 -99999.99 -99999.99 -99999.99 -99999.99
1/19/2021 3:00:00 AM -99999.99 -179968 -99999.99 -99999.99 -99999.99 -99999.99
1/19/2021 3:15:00 AM -99999.99 -179968 -99999.99 -99999.99 -99999.99 -99999.99
1/19/2021 3:30:00 AM -99999.99 -179968 -99999.99 -99999.99 -99999.99 -99999.99
1/19/2021 3:45:00 AM -99999.99 -179968 -99999.99 -99999.99 -99999.99 -99999.99
1/19/2021 4:00:00 AM -99999.99 -179968 -99999.99 -99999.99 -99999.99 -99999.99
1/19/2021 4:15:00 AM -99999.99 -179968 -99999.99 -99999.99 -99999.99 -99999.99
1/19/2021 4:30:00 AM -99999.99 -179968 -99999.99 -99999.99 -99999.99 -99999.99
1/19/2021 4:45:00 AM -99999.99 -179968 -99999.99 -99999.99 -99999.99 -99999.99
1/19/2021 5:00:00 AM -99999.99 -179968 -99999.99 -99999.99 -99999.99 -99999.99
1/19/2021 5:15:00 AM -99999.99 -179968 -99999.99 -99999.99 -99999.99 -99999.99
1/19/2021 5:30:00 AM -99999.99 -179968 -99999.99 -99999.99 -99999.99 -99999.99
1/19/2021 5:45:00 AM -99999.99 -179968 -99999.99 -99999.99 -99999.99 -99999.99
1/19/2021 6:00:00 AM -99999.99 -179968 -99999.99 -99999.99 -99999.99 -99999.99
1/19/2021 6:15:00 AM -99999.99 -179968 -99999.99 -99999.99 -99999.99 -99999.99
1/19/2021 6:30:00 AM -99999.99 -179968 -99999.99 -99999.99 -99999.99 -99999.99
1/19/2021 6:45:00 AM -99999.99 -179968 -99999.99 -99999.99 -99999.99 -99999.99
1/19/2021 7:00:00 AM -99999.99 -179968 -99999.99 -99999.99 -99999.99 -99999.99
1/19/2021 7:15:00 AM -99999.99 -179968 -99999.99 -99999.99 -99999.99 -99999.99
1/19/2021 7:30:00 AM -99999.99 -179968 -99999.99 -99999.99 -99999.99 -99999.99
1/19/2021 7:45:00 AM -99999.99 -179968 -99999.99 -99999.99 -99999.99 -99999.99
1/19/2021 8:00:00 AM -99999.99 -179968 -99999.99 -99999.99 -99999.99 -99999.99
1/19/2021 8:15:00 AM -99999.99 -179968 -99999.99 -99999.99 -99999.99 -99999.99
1/19/2021 8:30:00 AM -99999.99 -179968 -99999.99 -99999.99 -99999.99 -99999.99
1/19/2021 8:45:00 AM -99999.99 -179968 -99999.99 -99999.99 -99999.99 -99999.99
1/19/2021 9:00:00 AM -99999.99 -179968 -99999.99 -99999.99 -99999.99 -99999.99
1/19/2021 9:15:00 AM -99999.99 -179968 -99999.99 -99999.99 -99999.99 -99999.99
1/19/2021 9:30:00 AM -99999.99 -179968 -99999.99 -99999.99 -99999.99 -99999.99
1/19/2021 9:45:00 AM -99999.99 -179968 -99999.99 -99999.99 -99999.99 -99999.99
1/19/2021 10:00:00 AM -99999.99 -179968 -99999.99 -99999.99 -99999.99 -99999.99
1/19/2021 10:15:00 AM -99999.99 -179968 -99999.99 -99999.99 -99999.99 -99999.99
1/19/2021 10:30:00 AM -99999.99 -179968 -99999.99 -99999.99 -99999.99 -99999.99
1/19/2021 10:45:00 AM -99999.99 -179968 -99999.99 -99999.99 -99999.99 -99999.99
1/19/2021 11:00:00 AM -99999.99 -179968 -99999.99 -99999.99 -99999.99 -99999.99
1/19/2021 11:15:00 AM -99999.99 -179968 -99999.99 -99999.99 -99999.99 -99999.99
1/19/2021 11:30:00 AM -99999.99 -179968 -99999.99 -99999.99 -99999.99 -99999.99
1/19/2021 11:45:00 AM -99999.99 -179968 -99999.99 -99999.99 -99999.99 -99999.99
1/19/2021 12:00:00 PM -99999.99 -179968 -99999.99 -99999.99 -99999.99 -99999.99
1/19/2021 12:15:00 PM -99999.99 -179968 -99999.99 -99999.99 -99999.99 -99999.99
1/19/2021 12:30:00 PM -99999.99 -179968 -99999.99 -99999.99 -99999.99 -99999.99
1/19/2021 12:45:00 PM -99999.99 -179968 -99999.99 -99999.99 -99999.99 -99999.99
1/19/2021 1:00:00 PM -99999.99 -179968 -99999.99 -99999.99 -99999.99 -99999.99
1/19/2021 1:15:00 PM -99999.99 -179968 -99999.99 -99999.99 -99999.99 -99999.99
1/19/2021 1:30:00 PM -99999.99 -179968 -99999.99 -99999.99 -99999.99 -99999.99
1/19/2021 1:45:00 PM -99999.99 -179968 -99999.99 -99999.99 -99999.99 -99999.99
1/19/2021 2:00:00 PM -99999.99 -179968 -99999.99 -99999.99 -99999.99 -99999.99
1/19/2021 2:15:00 PM -99999.99 -179968 -99999.99 -99999.99 -99999.99 -99999.99
1/19/2021 2:30:00 PM -99999.99 -179968 -99999.99 -99999.99 -99999.99 -99999.99
1/19/2021 2:45:00 PM -99999.99 -179968 -99999.99 -99999.99 -99999.99 -99999.99
1/19/2021 3:00:00 PM -99999.99 -179968 -99999.99 -99999.99 -99999.99 -99999.99
1/19/2021 3:15:00 PM -99999.99 -179968 -99999.99 -99999.99 -99999.99 -99999.99
1/19/2021 3:30:00 PM -99999.99 -179968 -99999.99 -99999.99 -99999.99 -99999.99
1/19/2021 3:45:00 PM -99999.99 -179968 -99999.99 -99999.99 -99999.99 -99999.99
1/19/2021 4:00:00 PM -99999.99 -179968 -99999.99 -99999.99 -99999.99 -99999.99
1/19/2021 4:15:00 PM -99999.99 -179968 -99999.99 -99999.99 -99999.99 -99999.99
1/19/2021 4:30:00 PM -99999.99 -179968 -99999.99 -99999.99 -99999.99 -99999.99
1/19/2021 4:45:00 PM -99999.99 -179968 -99999.99 -99999.99 -99999.99 -99999.99
1/19/2021 5:00:00 PM -99999.99 -179968 -99999.99 -99999.99 -99999.99 -99999.99
1/19/2021 5:15:00 PM -99999.99 -179968 -99999.99 -99999.99 -99999.99 -99999.99
1/19/2021 5:30:00 PM -99999.99 -179968 -99999.99 -99999.99 -99999.99 -99999.99
1/19/2021 5:45:00 PM -99999.99 -179968 -99999.99 -99999.99 -99999.99 -99999.99
1/19/2021 6:00:00 PM -99999.99 -179968 -99999.99 -99999.99 -99999.99 -99999.99
1/19/2021 6:15:00 PM -99999.99 -179968 -99999.99 -99999.99 -99999.99 -99999.99
1/19/2021 6:30:00 PM -99999.99 -179968 -99999.99 -99999.99 -99999.99 -99999.99
1/19/2021 6:45:00 PM -99999.99 -179968 -99999.99 -99999.99 -99999.99 -99999.99
1/19/2021 7:00:00 PM -99999.99 -179968 -99999.99 -99999.99 -99999.99 -99999.99
1/19/2021 7:15:00 PM -99999.99 -179968 -99999.99 -99999.99 -99999.99 -99999.99
1/19/2021 7:30:00 PM -99999.99 -179968 -99999.99 -99999.99 -99999.99 -99999.99
1/19/2021 7:45:00 PM -99999.99 -179968 -99999.99 -99999.99 -99999.99 -99999.99
1/19/2021 8:00:00 PM -99999.99 -179968 -99999.99 -99999.99 -99999.99 -99999.99
1/19/2021 8:15:00 PM -99999.99 -179968 -99999.99 -99999.99 -99999.99 -99999.99
1/19/2021 8:30:00 PM -99999.99 -179968 -99999.99 -99999.99 -99999.99 -99999.99
1/19/2021 8:45:00 PM -99999.99 -179968 -99999.99 -99999.99 -99999.99 -99999.99
1/19/2021 9:00:00 PM -99999.99 -179968 -99999.99 -99999.99 -99999.99 -99999.99
1/19/2021 9:15:00 PM -99999.99 -179968 -99999.99 -99999.99 -99999.99 -99999.99
1/19/2021 9:30:00 PM -99999.99 -179968 -99999.99 -99999.99 -99999.99 -99999.99
1/19/2021 9:45:00 PM -99999.99 -179968 -99999.99 -99999.99 -99999.99 -99999.99
1/19/2021 10:00:00 PM -99999.99 -179968 -99999.99 -99999.99 -99999.99 -99999.99
1/19/2021 10:15:00 PM -99999.99 -179968 -99999.99 -99999.99 -99999.99 -99999.99
1/19/2021 10:30:00 PM -99999.99 -179968 -99999.99 -99999.99 -99999.99 -99999.99
1/19/2021 10:45:00 PM -99999.99 -179968 -99999.99 -99999.99 -99999.99 -99999.99
1/19/2021 11:00:00 PM -99999.99 -179968 -99999.99 -99999.99 -99999.99 -99999.99
1/19/2021 11:15:00 PM -99999.99 -179968 -99999.99 -99999.99 -99999.99 -99999.99
1/19/2021 11:30:00 PM -99999.99 -179968 -99999.99 -99999.99 -99999.99 -99999.99
1/19/2021 11:45:00 PM -99999.99 -179968 -99999.99 -99999.99 -99999.99 -99999.99
1/20/2021 12:00:00 AM -99999.99 -179968 -99999.99 -99999.99 -99999.99 -99999.99
1/20/2021 12:15:00 AM -99999.99 -179968 -99999.99 -99999.99 -99999.99 -99999.99
1/20/2021 12:30:00 AM -99999.99 -179968 -99999.99 -99999.99 -99999.99 -99999.99
1/20/2021 12:45:00 AM -99999.99 -179968 -99999.99 -99999.99 -99999.99 -99999.99
1/20/2021 1:00:00 AM -99999.99 -179968 -99999.99 -99999.99 -99999.99 -99999.99
1/20/2021 1:15:00 AM -99999.99 -179968 -99999.99 -99999.99 -99999.99 -99999.99
1/20/2021 1:30:00 AM -99999.99 -179968 -99999.99 -99999.99 -99999.99 -99999.99
1/20/2021 1:45:00 AM -99999.99 -179968 -99999.99 -99999.99 -99999.99 -99999.99
1/20/2021 2:00:00 AM -99999.99 -179968 -99999.99 -99999.99 -99999.99 -99999.99
1/20/2021 2:15:00 AM -99999.99 -179968 -99999.99 -99999.99 -99999.99 -99999.99
1/20/2021 2:30:00 AM -99999.99 -179968 -99999.99 -99999.99 -99999.99 -99999.99
1/20/2021 2:45:00 AM -99999.99 -179968 -99999.99 -99999.99 -99999.99 -99999.99
1/20/2021 3:00:00 AM -99999.99 -179968 -99999.99 -99999.99 -99999.99 -99999.99
1/20/2021 3:15:00 AM -99999.99 -179968 -99999.99 -99999.99 -99999.99 -99999.99
1/20/2021 3:30:00 AM -99999.99 -179968 -99999.99 -99999.99 -99999.99 -99999.99
1/20/2021 3:45:00 AM -99999.99 -179968 -99999.99 -99999.99 -99999.99 -99999.99
1/20/2021 4:00:00 AM -99999.99 -179968 -99999.99 -99999.99 -99999.99 -99999.99
1/20/2021 4:15:00 AM -99999.99 -179968 -99999.99 -99999.99 -99999.99 -99999.99
1/20/2021 4:30:00 AM -99999.99 -179968 -99999.99 -99999.99 -99999.99 -99999.99
1/20/2021 4:45:00 AM -99999.99 -179968 -99999.99 -99999.99 -99999.99 -99999.99
1/20/2021 5:00:00 AM -99999.99 -179968 -99999.99 -99999.99 -99999.99 -99999.99
1/20/2021 5:15:00 AM -99999.99 -179968 -99999.99 -99999.99 -99999.99 -99999.99
1/20/2021 5:30:00 AM -99999.99 -179968 -99999.99 -99999.99 -99999.99 -99999.99
1/20/2021 5:45:00 AM -99999.99 -179968 -99999.99 -99999.99 -99999.99 -99999.99
1/20/2021 6:00:00 AM -99999.99 -179968 -99999.99 -99999.99 -99999.99 -99999.99
1/20/2021 6:15:00 AM -99999.99 -179968 -99999.99 -99999.99 -99999.99 -99999.99
1/20/2021 6:30:00 AM -99999.99 -179968 -99999.99 -99999.99 -99999.99 -99999.99
1/20/2021 6:45:00 AM -99999.99 -179968 -99999.99 -99999.99 -99999.99 -99999.99
1/20/2021 7:00:00 AM -99999.99 -179968 -99999.99 -99999.99 -99999.99 -99999.99
1/20/2021 7:15:00 AM -99999.99 -179968 -99999.99 -99999.99 -99999.99 -99999.99
1/20/2021 7:30:00 AM -99999.99 -179968 -99999.99 -99999.99 -99999.99 -99999.99
1/20/2021 7:45:00 AM -99999.99 -179968 -99999.99 -99999.99 -99999.99 -99999.99
1/20/2021 8:00:00 AM -99999.99 -179968 -99999.99 -99999.99 -99999.99 -99999.99
1/20/2021 8:15:00 AM -99999.99 -179968 -99999.99 -99999.99 -99999.99 -99999.99
1/20/2021 8:30:00 AM -99999.99 -179968 -99999.99 -99999.99 -99999.99 -99999.99
1/20/2021 9:00:00 AM -99999.99 -179968 -99999.99 -99999.99 -99999.99 -99999.99
1/20/2021 9:15:00 AM 4.27 39.686 0.399 7.54 2.03 12.74
1/20/2021 11:00:00 AM 4.65 40.37 0.392 7.65 2.29 13.13
1/20/2021 11:15:00 AM 4.07 39.326 0.328 6.57 2.38 11.37
1/20/2021 11:30:00 AM 4.67 40.406 0.369 7.44 2.68 12.89
1/20/2021 11:45:00 AM 4.81 40.658 0.374 7.56 2.85 13.2
1/20/2021 12:00:00 PM 4.9 40.82 0.375 7.57 2.62 13.24
1/20/2021 12:15:00 PM 4.99 40.982 0.374 7.59 2.67 13.26
1/20/2021 12:30:00 PM 5.1 41.18 0.374 7.59 2.62 13.26
1/20/2021 12:45:00 PM 5.1 41.18 0.374 7.58 2.82 13.2
1/20/2021 1:00:00 PM 5.07 41.126 0.374 7.59 2.84 13.2
1/20/2021 1:15:00 PM 5.03 41.054 0.374 7.59 2.68 13.18
1/20/2021 1:30:00 PM 4.99 40.982 0.374 7.59 2.61 13.23
1/20/2021 1:45:00 PM 5.01 41.018 0.374 7.59 2.71 13.27
1/20/2021 2:00:00 PM 5.05 41.09 0.374 7.6 2.66 13.27
1/20/2021 2:15:00 PM 5.04 41.072 0.375 7.6 2.74 13.25
1/20/2021 2:30:00 PM 5.05 41.09 0.375 7.6 2.86 13.25
1/20/2021 2:45:00 PM 5.05 41.09 0.374 7.6 2.81 13.23
1/20/2021 3:00:00 PM 5.04 41.072 0.375 7.61 2.75 13.26
1/20/2021 3:15:00 PM 5.01 41.018 0.375 7.61 2.63 13.24
1/20/2021 3:30:00 PM 4.99 40.982 0.374 7.6 2.69 13.2
1/20/2021 3:45:00 PM 4.96 40.928 0.374 7.6 2.79 13.19
1/20/2021 4:00:00 PM 4.93 40.874 0.375 7.6 2.74 13.16
1/20/2021 4:15:00 PM 4.89 40.802 0.374 7.59 2.75 13.09
1/20/2021 4:30:00 PM 4.85 40.73 0.374 7.59 2.6 13.03
1/20/2021 4:45:00 PM 4.82 40.676 0.375 7.58 2.67 12.98
1/20/2021 5:00:00 PM 4.78 40.604 0.375 7.57 2.49 12.92
1/20/2021 5:15:00 PM 4.1 39.38 0.327 6.55 2.41 11.18
1/20/2021 5:30:00 PM 4.61 40.298 0.368 7.41 2.73 12.59
1/20/2021 5:45:00 PM 4.65 40.37 0.375 7.52 2.52 12.73
1/20/2021 6:00:00 PM 4.62 40.316 0.375 7.53 2.46 12.69
1/20/2021 6:15:00 PM 4.6 40.28 0.376 7.52 2.72 12.65
1/20/2021 6:30:00 PM 4.56 40.208 0.375 7.52 2.79 12.63
1/20/2021 6:45:00 PM 4.53 40.154 0.375 7.51 2.72 12.53
1/20/2021 7:00:00 PM 4.51 40.118 0.376 7.51 2.88 12.56
1/20/2021 7:15:00 PM 4.48 40.064 0.376 7.51 2.84 12.52
1/20/2021 7:30:00 PM 4.45 40.01 0.376 7.5 2.75 12.5
1/20/2021 7:45:00 PM 4.4 39.92 0.376 7.5 2.66 12.5
1/20/2021 8:00:00 PM 4.37 39.866 0.376 7.5 2.62 12.48
1/20/2021 8:15:00 PM 4.32 39.776 0.376 7.49 2.72 12.49
1/20/2021 8:30:00 PM 4.28 39.704 0.377 7.49 2.81 12.49
1/20/2021 8:45:00 PM 4.22 39.596 0.377 7.48 2.68 12.49
1/20/2021 9:00:00 PM 4.18 39.524 0.377 7.48 2.71 12.51
1/20/2021 9:15:00 PM 4.13 39.434 0.377 7.48 3.02 12.49
1/20/2021 9:30:00 PM 4.09 39.362 0.377 7.48 2.79 12.45
1/20/2021 9:45:00 PM 4.05 39.29 0.377 7.47 2.75 12.47
1/20/2021 10:00:00 PM 4.01 39.218 0.377 7.47 2.61 12.5
1/20/2021 10:15:00 PM 3.96 39.128 0.377 7.47 2.66 12.51
1/20/2021 10:30:00 PM 3.92 39.056 0.377 7.47 2.58 12.49
1/20/2021 10:45:00 PM 3.88 38.984 0.377 7.47 2.59 12.51
1/20/2021 11:00:00 PM 3.83 38.894 0.377 7.47 2.52 12.53
1/20/2021 11:15:00 PM 3.8 38.84 0.378 7.47 2.55 12.52
1/20/2021 11:30:00 PM 3.76 38.768 0.378 7.47 2.49 12.53
1/20/2021 11:45:00 PM 3.72 38.696 0.378 7.46 2.48 12.54
1/21/2021 12:00:00 AM 3.68 38.624 0.378 7.46 2.5 12.53
1/21/2021 12:15:00 AM 3.64 38.552 0.378 7.46 2.57 12.52
1/21/2021 12:30:00 AM 3.6 38.48 0.378 7.46 2.43 12.57
1/21/2021 12:45:00 AM 3.56 38.408 0.378 7.46 2.67 12.56
1/21/2021 1:00:00 AM 3.51 38.318 0.378 7.46 2.75 12.59
1/21/2021 1:15:00 AM 3.47 38.246 0.378 7.46 2.84 12.55
1/21/2021 1:30:00 AM 3.42 38.156 0.378 7.47 2.67 12.6
1/21/2021 1:45:00 AM 3.38 38.084 0.379 7.46 2.62 12.59
1/21/2021 2:00:00 AM 3.33 37.994 0.379 7.46 2.57 12.62
1/21/2021 2:15:00 AM 3.29 37.922 0.38 7.46 2.41 12.62
1/21/2021 2:30:00 AM 3.24 37.832 0.379 7.46 2.38 12.64
1/21/2021 2:45:00 AM 3.19 37.742 0.379 7.46 2.43 12.65
1/21/2021 3:00:00 AM 3.15 37.67 0.379 7.46 2.34 12.73
1/21/2021 3:15:00 AM 3.11 37.598 0.38 7.45 2.32 12.71
1/21/2021 3:30:00 AM 3.06 37.508 0.38 7.45 2.3 12.71
1/21/2021 3:45:00 AM 3.01 37.418 0.38 7.45 2.33 12.7
1/21/2021 4:00:00 AM 2.98 37.364 0.38 7.45 2.33 12.74
1/21/2021 4:15:00 AM 2.93 37.274 0.381 7.45 2.39 12.75
1/21/2021 4:30:00 AM 2.88 37.184 0.381 7.45 2.4 12.76
1/21/2021 4:45:00 AM 2.84 37.112 0.38 7.45 2.26 12.83
1/21/2021 5:00:00 AM 2.81 37.058 0.38 7.45 2.15 12.8
1/21/2021 5:15:00 AM 2.77 36.986 0.381 7.45 2.23 12.87
1/21/2021 5:30:00 AM 2.72 36.896 0.381 7.45 2.34 12.89
1/21/2021 5:45:00 AM 2.71 36.878 0.38 7.45 2.49 12.89
1/21/2021 6:00:00 AM 2.72 36.896 0.381 7.45 2.42 12.89
1/21/2021 6:15:00 AM 2.72 36.896 0.381 7.45 2.35 12.85
1/21/2021 6:30:00 AM 2.37 36.266 0.332 6.46 1.99 11.19
1/21/2021 6:45:00 AM 2.68 36.824 0.375 7.31 2.37 12.65
1/21/2021 7:00:00 AM 2.73 36.914 0.38 7.42 2.48 12.83
1/21/2021 7:15:00 AM 2.74 36.932 0.382 7.44 2.57 12.91
1/21/2021 7:30:00 AM 2.74 36.932 0.382 7.44 2.67 12.9
1/21/2021 7:45:00 AM 2.73 36.914 0.382 7.44 2.6 12.93
1/21/2021 8:00:00 AM 2.73 36.914 0.382 7.45 2.73 12.96
1/21/2021 8:15:00 AM 2.74 36.932 0.382 7.45 2.73 13
1/21/2021 8:30:00 AM 2.76 36.968 0.382 7.45 2.97 13.1
1/21/2021 8:45:00 AM 2.8 37.04 0.382 7.46 2.68 13.18
1/21/2021 9:00:00 AM 2.82 37.076 0.381 7.48 2.61 13.26
1/21/2021 9:15:00 AM 2.85 37.13 0.381 7.49 2.89 13.34
1/21/2021 9:30:00 AM 2.88 37.184 0.381 7.5 3.38 13.41
1/21/2021 9:45:00 AM 2.93 37.274 0.381 7.51 3.9 13.52
1/21/2021 10:00:00 AM 3 37.4 0.373 7.51 9.23 13.55
1/21/2021 10:15:00 AM 3.08 37.544 0.379 7.52 16.77 13.59
1/21/2021 10:30:00 AM 3.17 37.706 0.38 7.52 4.92 13.63
1/21/2021 10:45:00 AM 3.28 37.904 0.38 7.53 3.07 13.65
1/21/2021 11:00:00 AM 3.39 38.102 0.379 7.54 2.63 13.63
1/21/2021 11:15:00 AM 3.5 38.3 0.38 7.55 2.71 13.67
1/21/2021 11:30:00 AM 3.63 38.534 0.38 7.55 2.83 13.68
1/21/2021 11:45:00 AM 3.75 38.75 0.381 7.56 3.14 13.59
1/21/2021 12:00:00 PM 3.86 38.948 0.38 7.57 2.89 13.66
1/21/2021 12:15:00 PM 3.96 39.128 0.38 7.58 3.05 13.69
1/21/2021 12:30:00 PM 4.06 39.308 0.381 7.58 3.19 13.75
1/21/2021 12:45:00 PM 4.15 39.47 0.381 7.58 3.15 13.72
1/21/2021 1:00:00 PM 4.24 39.632 0.381 7.59 3.35 13.69
1/21/2021 1:15:00 PM 4.31 39.758 0.38 7.59 3.31 13.68
1/21/2021 1:30:00 PM 4.37 39.866 0.38 7.59 3.33 13.67
1/21/2021 1:45:00 PM 4.41 39.938 0.381 7.6 3.12 13.67
1/21/2021 2:00:00 PM 4.43 39.974 0.381 7.6 3.09 13.65
1/21/2021 2:15:00 PM 4.46 40.028 0.38 7.61 2.54 13.57
1/21/2021 2:30:00 PM 4.47 40.046 0.379 7.61 2.83 13.63
1/21/2021 2:45:00 PM 4.47 40.046 0.38 7.61 2.97 13.66
1/21/2021 3:00:00 PM 4.48 40.064 0.377 7.62 2.78 13.57
1/21/2021 3:15:00 PM 4.47 40.046 0.379 7.61 2.93 13.6
1/21/2021 3:30:00 PM 4.47 40.046 0.38 7.61 2.83 13.58
1/21/2021 3:45:00 PM 4.47 40.046 0.38 7.61 2.91 13.51
1/21/2021 4:00:00 PM 4.46 40.028 0.38 7.6 2.78 13.46
1/21/2021 4:15:00 PM 4.46 40.028 0.38 7.6 2.93 13.4
1/21/2021 4:30:00 PM 4.46 40.028 0.38 7.59 2.98 13.33
1/21/2021 4:45:00 PM 4.45 40.01 0.38 7.58 2.75 13.26
1/21/2021 5:00:00 PM 4.44 39.992 0.38 7.57 2.89 13.14
1/21/2021 5:15:00 PM 3.84 38.912 0.331 6.56 2.46 11.3
1/21/2021 5:30:00 PM 4.33 39.794 0.373 7.42 2.83 12.73
1/21/2021 5:45:00 PM 4.38 39.884 0.379 7.52 3.08 12.9
1/21/2021 6:00:00 PM 4.36 39.848 0.38 7.53 3.14 12.83
1/21/2021 6:15:00 PM 4.32 39.776 0.38 7.53 2.93 12.78
1/21/2021 6:30:00 PM 4.29 39.722 0.379 7.52 2.93 12.74
1/21/2021 6:45:00 PM 4.26 39.668 0.38 7.52 2.88 12.66
1/21/2021 7:00:00 PM 4.23 39.614 0.38 7.51 2.75 12.66
1/21/2021 7:15:00 PM 4.19 39.542 0.379 7.51 2.95 12.71
1/21/2021 7:30:00 PM 4.15 39.47 0.379 7.51 2.99 12.62
1/21/2021 7:45:00 PM 4.12 39.416 0.38 7.51 2.84 12.57
1/21/2021 8:00:00 PM 4.08 39.344 0.38 7.5 2.81 12.57
1/21/2021 8:15:00 PM 4.05 39.29 0.379 7.51 2.84 12.57
1/21/2021 8:30:00 PM 4.01 39.218 0.38 7.5 2.85 12.57
1/21/2021 8:45:00 PM 3.98 39.164 0.379 7.5 2.82 12.58
1/21/2021 9:00:00 PM 3.95 39.11 0.38 7.49 2.58 12.52
1/21/2021 9:15:00 PM 3.93 39.074 0.379 7.49 2.6 12.53
1/21/2021 9:30:00 PM 3.91 39.038 0.379 7.49 2.61 12.52
1/21/2021 9:45:00 PM 3.38 38.084 0.331 6.49 2.17 10.84
1/21/2021 10:00:00 PM 3.81 38.858 0.373 7.35 2.51 12.27
1/21/2021 10:15:00 PM 3.87 38.966 0.378 7.46 2.51 12.43
1/21/2021 10:30:00 PM 3.87 38.966 0.38 7.47 2.5 12.46
1/21/2021 10:45:00 PM 3.86 38.948 0.379 7.48 2.53 12.45
1/21/2021 11:00:00 PM 3.85 38.93 0.379 7.48 2.46 12.46
1/21/2021 11:15:00 PM 3.86 38.948 0.379 7.47 2.42 12.42
1/21/2021 11:30:00 PM 3.88 38.984 0.379 7.47 2.42 12.44
1/21/2021 11:45:00 PM 3.9 39.02 0.38 7.47 2.46 12.43
1/22/2021 12:00:00 AM 3.4 38.12 0.33 6.47 2.01 10.76
1/22/2021 12:15:00 AM 3.85 38.93 0.372 7.33 2.42 12.16
1/22/2021 12:30:00 AM 3.92 39.056 0.378 7.45 2.44 12.33
1/22/2021 12:45:00 AM 3.93 39.074 0.379 7.46 2.37 12.4
1/22/2021 1:00:00 AM 3.93 39.074 0.379 7.46 2.33 12.38
1/22/2021 1:15:00 AM 3.92 39.056 0.379 7.46 2.46 12.39
1/22/2021 1:30:00 AM 3.92 39.056 0.379 7.46 2.34 12.37
1/22/2021 1:45:00 AM 3.91 39.038 0.379 7.46 2.2 12.42
1/22/2021 2:00:00 AM 3.9 39.02 0.379 7.45 2.24 12.37
1/22/2021 2:15:00 AM 3.89 39.002 0.379 7.45 2.32 12.41
1/22/2021 2:30:00 AM 3.87 38.966 0.378 7.45 2.38 12.38
1/22/2021 2:45:00 AM 3.86 38.948 0.378 7.45 2.3 12.38
1/22/2021 3:00:00 AM 3.84 38.912 0.378 7.45 2.37 12.31
1/22/2021 3:15:00 AM 3.82 38.876 0.378 7.45 2.46 12.36
1/22/2021 3:30:00 AM 3.8 38.84 0.378 7.45 2.32 12.37
1/22/2021 3:45:00 AM 3.79 38.822 0.378 7.45 2.42 12.37
1/22/2021 4:00:00 AM 3.78 38.804 0.379 7.45 2.55 12.37
1/22/2021 4:15:00 AM 3.77 38.786 0.378 7.45 2.53 12.39
1/22/2021 4:30:00 AM 3.76 38.768 0.378 7.46 2.67 12.35
1/22/2021 4:45:00 AM 3.76 38.768 0.378 7.45 2.57 12.36
1/22/2021 5:00:00 AM 3.75 38.75 0.378 7.45 2.51 12.32
1/22/2021 5:15:00 AM 3.74 38.732 0.378 7.45 2.38 12.38
1/22/2021 5:30:00 AM 3.73 38.714 0.378 7.45 2.53 12.42
1/22/2021 5:45:00 AM 3.7 38.66 0.378 7.45 2.72 12.4
1/22/2021 6:00:00 AM 3.68 38.624 0.378 7.45 2.64 12.39
1/22/2021 6:15:00 AM 3.65 38.57 0.378 7.45 2.64 12.37
1/22/2021 6:30:00 AM 3.62 38.516 0.378 7.45 2.67 12.39
1/22/2021 6:45:00 AM 3.61 38.498 0.378 7.45 2.58 12.39
1/22/2021 7:00:00 AM 3.6 38.48 0.378 7.45 2.65 12.42
1/22/2021 7:15:00 AM 3.6 38.48 0.378 7.45 2.59 12.44
1/22/2021 7:30:00 AM 3.6 38.48 0.378 7.45 2.44 12.43
1/22/2021 7:45:00 AM 3.61 38.498 0.378 7.45 2.47 12.42
1/22/2021 8:00:00 AM 3.62 38.516 0.378 7.45 2.55 12.47
1/22/2021 8:15:00 AM 3.64 38.552 0.378 7.45 2.64 12.58
1/22/2021 8:30:00 AM 3.65 38.57 0.377 7.47 2.49 12.61
1/22/2021 8:45:00 AM 3.69 38.642 0.378 7.48 2.53 12.72
1/22/2021 9:00:00 AM 3.73 38.714 0.377 7.5 2.5 12.86
1/22/2021 9:15:00 AM 3.78 38.804 0.377 7.51 2.57 13.02
1/22/2021 9:30:00 AM 3.84 38.912 0.377 7.53 2.4 13.12
1/22/2021 9:45:00 AM 3.89 39.002 0.377 7.54 2.42 13.21
1/22/2021 10:00:00 AM 3.96 39.128 0.377 7.55 2.33 13.28
1/22/2021 10:15:00 AM 4.02 39.236 0.377 7.56 2.37 13.38
1/22/2021 10:30:00 AM 4.09 39.362 0.377 7.58 2.43 13.44
1/22/2021 10:45:00 AM 4.19 39.542 0.376 7.59 2.48 13.47
1/22/2021 11:00:00 AM 4.27 39.686 0.376 7.6 2.51 13.48
1/22/2021 11:15:00 AM 4.31 39.758 0.376 7.6 2.54 13.53
1/22/2021 11:30:00 AM 4.31 39.758 0.376 7.6 2.59 13.42
1/22/2021 11:45:00 AM 4.3 39.74 0.377 7.6 2.53 13.45
1/22/2021 12:00:00 PM 4.31 39.758 0.377 7.6 2.62 13.48
1/22/2021 12:15:00 PM 4.34 39.812 0.377 7.61 2.87 13.49
1/22/2021 12:30:00 PM 4.38 39.884 0.376 7.62 2.74 13.55
1/22/2021 12:45:00 PM 4.42 39.956 0.376 7.62 2.76 13.57
1/22/2021 1:00:00 PM 4.49 40.082 0.376 7.63 2.54 13.57
1/22/2021 1:15:00 PM 4.59 40.262 0.376 7.64 2.51 13.62
1/22/2021 1:30:00 PM 4.71 40.478 0.376 7.65 3.01 13.67
1/22/2021 1:45:00 PM 4.83 40.694 0.375 7.66 2.97 13.67
1/22/2021 2:00:00 PM 4.9 40.82 0.376 7.67 2.7 13.67
1/22/2021 2:15:00 PM 4.95 40.91 0.375 7.67 2.98 13.67
1/22/2021 2:30:00 PM 5 41 0.376 7.68 2.75 13.69
1/22/2021 2:45:00 PM 5.02 41.036 0.376 7.68 2.61 13.65
1/22/2021 3:00:00 PM 5.01 41.018 0.376 7.68 2.61 13.61
1/22/2021 3:15:00 PM 4.98 40.964 0.375 7.68 2.74 13.6
1/22/2021 3:30:00 PM 4.95 40.91 0.376 7.68 2.77 13.6
1/22/2021 3:45:00 PM 4.92 40.856 0.376 7.68 2.64 13.54
1/22/2021 4:00:00 PM 4.91 40.838 0.377 7.66 2.54 13.49
1/22/2021 4:15:00 PM 4.88 40.784 0.376 7.66 2.52 13.43
1/22/2021 4:30:00 PM 4.87 40.766 0.377 7.66 2.52 13.38
1/22/2021 4:45:00 PM 4.86 40.748 0.377 7.64 2.56 13.31
1/22/2021 5:00:00 PM 4.86 40.748 0.377 7.62 2.6 13.17
1/22/2021 5:15:00 PM 4.86 40.748 0.377 7.61 2.88 13.06
1/22/2021 5:30:00 PM 4.21 39.578 0.328 6.59 2.3 11.22
1/22/2021 5:45:00 PM 4.77 40.586 0.371 7.45 2.58 12.61
1/22/2021 6:00:00 PM 4.84 40.712 0.376 7.56 2.69 12.72
1/22/2021 6:15:00 PM 4.84 40.712 0.377 7.56 2.74 12.69
1/22/2021 6:30:00 PM 4.82 40.676 0.377 7.55 2.83 12.66
1/22/2021 6:45:00 PM 4.81 40.658 0.377 7.55 2.83 12.61
1/22/2021 7:00:00 PM 4.79 40.622 0.377 7.55 2.82 12.55
1/22/2021 7:15:00 PM 4.78 40.604 0.377 7.54 2.73 12.56
1/22/2021 7:30:00 PM 4.78 40.604 0.377 7.54 2.63 12.52
1/22/2021 7:45:00 PM 4.77 40.586 0.377 7.53 2.7 12.54
1/22/2021 8:00:00 PM 4.76 40.568 0.377 7.53 2.81 12.51
1/22/2021 8:15:00 PM 4.75 40.55 0.377 7.53 2.97 12.44
1/22/2021 8:30:00 PM 4.74 40.532 0.377 7.52 3.25 12.44
1/22/2021 8:45:00 PM 4.72 40.496 0.377 7.52 3.45 12.38
1/22/2021 9:00:00 PM 4.71 40.478 0.377 7.51 3.33 12.37
1/22/2021 9:15:00 PM 4.69 40.442 0.377 7.51 3.23 12.37
1/22/2021 9:30:00 PM 4.67 40.406 0.378 7.51 3.16 12.35
1/22/2021 9:45:00 PM 4.64 40.352 0.378 7.5 3.01 12.24
1/22/2021 10:00:00 PM 4.63 40.334 0.378 7.5 2.99 12.37
1/22/2021 10:15:00 PM 4.6 40.28 0.379 7.49 2.84 12.32
1/22/2021 10:30:00 PM 4.58 40.244 0.378 7.49 2.8 12.29
1/22/2021 10:45:00 PM 4.54 40.172 0.377 7.49 2.85 12.27
1/22/2021 11:00:00 PM 4.52 40.136 0.378 7.49 2.71 12.28
1/22/2021 11:15:00 PM 4.49 40.082 0.378 7.49 2.7 12.27
1/22/2021 11:30:00 PM 4.46 40.028 0.378 7.49 2.64 12.25
1/22/2021 11:45:00 PM 4.43 39.974 0.378 7.49 2.72 12.24
1/23/2021 12:00:00 AM 4.41 39.938 0.378 7.48 2.67 12.27
1/23/2021 12:15:00 AM 4.39 39.902 0.378 7.48 2.59 12.26
1/23/2021 12:30:00 AM 4.37 39.866 0.378 7.48 2.63 12.27
1/23/2021 12:45:00 AM 4.36 39.848 0.378 7.48 2.56 12.23
1/23/2021 1:00:00 AM 4.35 39.83 0.378 7.48 2.65 12.23
1/23/2021 1:15:00 AM 4.33 39.794 0.378 7.47 2.57 12.26
1/23/2021 1:30:00 AM 4.31 39.758 0.378 7.47 2.64 12.29
1/23/2021 1:45:00 AM 4.28 39.704 0.378 7.47 2.61 12.25
1/23/2021 2:00:00 AM 4.25 39.65 0.378 7.47 2.67 12.25
1/23/2021 2:15:00 AM 4.2 39.56 0.378 7.47 2.7 12.27
1/23/2021 2:30:00 AM 4.16 39.488 0.378 7.47 2.58 12.28
1/23/2021 2:45:00 AM 4.11 39.398 0.377 7.47 2.61 12.29
1/23/2021 3:00:00 AM 4.09 39.362 0.377 7.47 2.67 12.29
1/23/2021 3:15:00 AM 4.07 39.326 0.378 7.47 2.66 12.28
1/23/2021 3:30:00 AM 4.06 39.308 0.378 7.47 2.62 12.3
1/23/2021 3:45:00 AM 4.05 39.29 0.378 7.47 2.79 12.3
1/23/2021 4:00:00 AM 4.02 39.236 0.378 7.46 2.79 12.34
1/23/2021 4:15:00 AM 4 39.2 0.377 7.47 2.8 12.33
1/23/2021 4:30:00 AM 3.98 39.164 0.377 7.47 3.03 12.32
1/23/2021 4:45:00 AM 3.95 39.11 0.377 7.46 4.95 12.34
1/23/2021 5:00:00 AM 3.91 39.038 0.378 7.46 4.93 12.34
1/23/2021 5:15:00 AM 3.88 38.984 0.378 7.46 3.41 12.35
1/23/2021 5:30:00 AM 3.84 38.912 0.378 7.46 2.82 12.38
1/23/2021 5:45:00 AM 3.8 38.84 0.378 7.46 3.38 12.39
1/23/2021 6:00:00 AM 3.77 38.786 0.378 7.46 2.8 12.42
1/23/2021 6:15:00 AM 3.74 38.732 0.378 7.46 2.87 12.39
1/23/2021 6:30:00 AM 3.71 38.678 0.378 7.46 2.65 12.43
1/23/2021 6:45:00 AM 3.68 38.624 0.379 7.46 2.68 12.45
1/23/2021 7:00:00 AM 3.63 38.534 0.378 7.46 2.62 12.48
1/23/2021 7:15:00 AM 3.58 38.444 0.378 7.46 2.69 12.43
1/23/2021 7:30:00 AM 3.54 38.372 0.378 7.46 2.74 12.48
1/23/2021 7:45:00 AM 3.51 38.318 0.378 7.46 2.64 12.57
1/23/2021 8:00:00 AM 3.47 38.246 0.379 7.46 2.65 12.57
1/23/2021 8:15:00 AM 3.44 38.192 0.378 7.48 2.57 12.67
1/23/2021 8:30:00 AM 3.41 38.138 0.378 7.49 2.66 12.79
1/23/2021 8:45:00 AM 3.38 38.084 0.378 7.5 2.58 12.94
1/23/2021 9:00:00 AM 3.34 38.012 0.378 7.52 3.01 13.1
1/23/2021 9:15:00 AM 3.37 38.066 0.378 7.54 2.59 13.3
1/23/2021 9:30:00 AM 3.4 38.12 0.378 7.55 2.56 13.37
1/23/2021 9:45:00 AM 3.47 38.246 0.38 7.57 2.2 11.71
1/23/2021 10:00:00 AM 3.48 38.264 0.378 7.58 2.54 13.35
1/23/2021 10:15:00 AM 3.5 38.3 0.378 7.6 3.02 13.59
1/23/2021 10:30:00 AM 3.51 38.318 0.378 7.61 2.71 13.7
1/23/2021 10:45:00 AM 3.51 38.318 0.377 7.62 3.99 13.81
1/23/2021 11:00:00 AM 3.52 38.336 0.377 7.63 5.19 13.83
1/23/2021 11:15:00 AM 3.51 38.318 0.378 7.63 5.29 13.88
1/23/2021 11:30:00 AM 3.51 38.318 0.378 7.63 4.27 13.89
1/23/2021 11:45:00 AM 3.5 38.3 0.378 7.64 6.39 13.96
1/23/2021 12:00:00 PM 3.52 38.336 0.378 7.65 4.02 14
1/23/2021 12:15:00 PM 3.54 38.372 0.377 7.65 3.38 14.01
1/23/2021 12:30:00 PM 3.55 38.39 0.377 7.66 4.2 14.09
1/23/2021 12:45:00 PM 3.57 38.426 0.378 7.67 4.33 13.99
1/23/2021 1:00:00 PM 3.57 38.426 0.377 7.67 3.5 14.1
1/23/2021 1:15:00 PM 3.57 38.426 0.377 7.68 5.03 14.13
1/23/2021 1:30:00 PM 3.57 38.426 0.377 7.68 3.9 14.16
1/23/2021 1:45:00 PM 3.57 38.426 0.377 7.69 3.45 14.12
1/23/2021 2:00:00 PM 3.56 38.408 0.377 7.69 3.17 14.16
1/23/2021 2:15:00 PM 3.55 38.39 0.377 7.69 3.12 14.18
1/23/2021 2:30:00 PM 3.51 38.318 0.377 7.68 3.11 14.06
1/23/2021 2:45:00 PM 3.48 38.264 0.378 7.68 3.21 14.13
1/23/2021 3:00:00 PM 2.97 37.346 0.329 6.66 2.61 12.26
1/23/2021 3:15:00 PM 3.32 37.976 0.371 7.53 2.85 13.86
1/23/2021 3:30:00 PM 3.33 37.994 0.377 7.65 2.87 13.99
1/23/2021 3:45:00 PM 3.3 37.94 0.378 7.66 2.86 14.08
1/23/2021 4:00:00 PM 3.27 37.886 0.378 7.66 3.02 14.04
1/23/2021 4:15:00 PM 3.24 37.832 0.378 7.65 3.02 13.88
1/23/2021 4:30:00 PM 3.2 37.76 0.378 7.64 3.08 13.94
1/23/2021 4:45:00 PM 3.16 37.688 0.379 7.63 3.07 13.89
1/23/2021 5:00:00 PM 3.11 37.598 0.379 7.62 2.97 13.83
1/23/2021 5:15:00 PM 3.07 37.526 0.379 7.61 2.9 13.75
1/23/2021 5:30:00 PM 3.03 37.454 0.379 7.6 2.81 13.72
1/23/2021 5:45:00 PM 2.98 37.364 0.379 7.58 2.9 13.64
1/23/2021 6:00:00 PM 2.93 37.274 0.379 7.57 2.81 13.56
1/23/2021 6:15:00 PM 2.9 37.22 0.379 7.56 2.83 13.5
1/23/2021 6:30:00 PM 2.86 37.148 0.379 7.55 2.86 13.45
1/23/2021 6:45:00 PM 2.82 37.076 0.38 7.55 2.85 13.45
1/23/2021 7:00:00 PM 2.78 37.004 0.379 7.54 2.98 13.31
1/23/2021 7:15:00 PM 2.75 36.95 0.38 7.54 2.98 13.4
1/23/2021 7:30:00 PM 2.73 36.914 0.38 7.53 3.26 13.28
1/23/2021 7:45:00 PM 2.72 36.896 0.38 7.53 3.35 13.36
1/23/2021 8:00:00 PM 2.71 36.878 0.38 7.53 3.08 13.41
1/23/2021 8:15:00 PM 2.7 36.86 0.38 7.53 2.86 13.36
1/23/2021 8:30:00 PM 2.69 36.842 0.38 7.53 2.86 13.33
1/23/2021 8:45:00 PM 2.67 36.806 0.38 7.52 2.85 13.31
1/23/2021 9:00:00 PM 2.64 36.752 0.38 7.52 2.87 13.29
1/23/2021 9:15:00 PM 2.62 36.716 0.38 7.52 2.88 13.3
1/23/2021 9:30:00 PM 2.58 36.644 0.381 7.51 2.72 13.3
1/23/2021 9:45:00 PM 2.55 36.59 0.381 7.51 2.75 13.3
1/23/2021 10:00:00 PM 2.53 36.554 0.381 7.51 2.74 13.31
1/23/2021 10:15:00 PM 2.51 36.518 0.381 7.5 2.72 13.32
1/23/2021 10:30:00 PM 2.5 36.5 0.381 7.5 2.7 13.28
1/23/2021 10:45:00 PM 2.16 35.888 0.332 6.5 2.2 11.49
1/23/2021 11:00:00 PM 2.45 36.41 0.375 7.36 2.59 13.04
1/23/2021 11:15:00 PM 2.48 36.464 0.381 7.47 2.64 13.2
1/23/2021 11:30:00 PM 2.48 36.464 0.382 7.49 2.69 13.15
1/23/2021 11:45:00 PM 2.47 36.446 0.383 7.48 2.74 13.2
1/24/2021 12:00:00 AM 2.46 36.428 0.383 7.48 2.76 13.22
1/24/2021 12:15:00 AM 2.45 36.41 0.384 7.48 2.75 13.22
1/24/2021 12:30:00 AM 2.43 36.374 0.384 7.48 2.76 13.22
1/24/2021 12:45:00 AM 2.4 36.32 0.384 7.48 2.74 13.21
1/24/2021 1:00:00 AM 2.38 36.284 0.385 7.47 2.85 13.2
1/24/2021 1:15:00 AM 2.35 36.23 0.385 7.48 2.82 13.19
1/24/2021 1:30:00 AM 2.34 36.212 0.385 7.48 2.77 13.17
1/24/2021 1:45:00 AM 2.32 36.176 0.385 7.47 2.72 13.19
1/24/2021 2:00:00 AM 2.31 36.158 0.385 7.47 2.64 13.19
1/24/2021 2:15:00 AM 2.3 36.14 0.385 7.47 2.61 13.16
1/24/2021 2:30:00 AM 2.3 36.14 0.385 7.46 2.54 13.2
1/24/2021 2:45:00 AM 2.29 36.122 0.385 7.46 2.53 13.18
1/24/2021 3:00:00 AM 2.28 36.104 0.385 7.46 2.57 13.11
1/24/2021 3:15:00 AM 2.27 36.086 0.385 7.46 2.51 13.05
1/24/2021 3:30:00 AM 1.94 35.492 0.335 6.48 2.08 11.41
1/24/2021 3:45:00 AM 2.18 35.924 0.378 7.33 2.56 12.96
1/24/2021 4:00:00 AM 2.19 35.942 0.384 7.45 2.8 13.05
1/24/2021 4:15:00 AM 2.17 35.906 0.385 7.46 2.79 13.18
1/24/2021 4:30:00 AM 2.14 35.852 0.385 7.46 2.64 13.2
1/24/2021 4:45:00 AM 1.83 35.294 0.334 6.47 2.22 11.48
1/24/2021 5:00:00 AM 2.06 35.708 0.378 7.33 2.57 12.91
1/24/2021 5:15:00 AM 2.07 35.726 0.383 7.44 2.68 13.21
1/24/2021 5:30:00 AM 2.05 35.69 0.384 7.46 2.65 13.29
1/24/2021 5:45:00 AM 2.02 35.636 0.384 7.47 2.53 13.28
1/24/2021 6:00:00 AM 1.99 35.582 0.384 7.46 2.37 13.27
1/24/2021 6:15:00 AM 1.96 35.528 0.384 7.47 2.28 13.29
1/24/2021 6:30:00 AM 1.94 35.492 0.384 7.47 2.37 13.31
1/24/2021 6:45:00 AM 1.91 35.438 0.384 7.47 2.55 13.3
1/24/2021 7:00:00 AM 1.88 35.384 0.384 7.47 2.45 13.32
1/24/2021 7:15:00 AM 1.86 35.348 0.384 7.47 2.34 13.35
1/24/2021 7:30:00 AM 1.84 35.312 0.385 7.47 2.39 13.28
1/24/2021 7:45:00 AM 1.83 35.294 0.385 7.47 2.52 13.43
1/24/2021 8:00:00 AM 1.57 34.826 0.335 6.48 2.12 11.72
1/24/2021 8:15:00 AM 1.79 35.222 0.378 7.35 2.94 13.25
1/24/2021 8:30:00 AM 1.84 35.312 0.384 7.48 3.56 13.68
1/24/2021 8:45:00 AM 1.86 35.348 0.385 7.51 6.07 13.81
1/24/2021 9:00:00 AM 1.89 35.402 0.385 7.53 3 13.93
1/24/2021 9:15:00 AM 1.93 35.474 0.385 7.54 2.52 14.09
1/24/2021 9:30:00 AM 1.97 35.546 0.386 7.55 2.51 14.22
1/24/2021 9:45:00 AM 2.01 35.618 0.386 7.57 2.53 14.33
1/24/2021 10:00:00 AM 2.08 35.744 0.386 7.58 2.44 14.38
1/24/2021 10:15:00 AM 1.9 35.42 0.336 6.59 2.12 12.54
1/24/2021 10:30:00 AM 2.24 36.032 0.38 7.47 2.38 14.22
1/24/2021 10:45:00 AM 2.38 36.284 0.385 7.59 2.48 14.5
1/24/2021 11:00:00 AM 2.54 36.572 0.387 7.62 2.51 14.55
1/24/2021 11:15:00 AM 2.68 36.824 0.387 7.63 2.39 14.55
1/24/2021 11:30:00 AM 2.83 37.094 0.388 7.64 2.5 14.53
1/24/2021 11:45:00 AM 2.6 36.68 0.338 6.63 2.12 12.62
1/24/2021 12:00:00 PM 3.04 37.472 0.381 7.51 2.44 14.16
1/24/2021 12:15:00 PM 3.18 37.724 0.387 7.63 2.4 14.44
1/24/2021 12:30:00 PM 3.29 37.922 0.389 7.65 2.39 14.52
1/24/2021 12:45:00 PM 3.38 38.084 0.389 7.66 2.49 14.5
1/24/2021 1:00:00 PM 3.47 38.246 0.389 7.67 2.57 14.52
1/24/2021 1:15:00 PM 3.54 38.372 0.39 7.67 2.68 14.53
1/24/2021 1:30:00 PM 3.54 38.372 0.39 7.68 2.77 14.52
1/24/2021 1:45:00 PM 3.54 38.372 0.391 7.68 2.87 14.51
1/24/2021 2:00:00 PM 3.49 38.282 0.39 7.68 2.95 14.48
1/24/2021 2:15:00 PM 3.43 38.174 0.39 7.68 2.92 14.51
1/24/2021 2:30:00 PM 2.9 37.22 0.338 6.65 2.57 12.6
1/24/2021 2:45:00 PM 3.21 37.778 0.381 7.54 3.07 14.3
1/24/2021 3:00:00 PM 3.18 37.724 0.386 7.66 3.23 14.51
1/24/2021 3:15:00 PM 3.12 37.616 0.385 7.68 3.31 14.52
1/24/2021 3:30:00 PM 3.06 37.508 0.383 7.69 3.27 14.52
1/24/2021 3:45:00 PM 3.02 37.436 0.382 7.69 3.27 14.48
1/24/2021 4:00:00 PM 2.99 37.382 0.381 7.68 3.22 14.46
1/24/2021 4:15:00 PM 2.98 37.364 0.38 7.68 3.21 14.39
1/24/2021 4:30:00 PM 2.98 37.364 0.38 7.68 3.07 14.33
1/24/2021 4:45:00 PM 2.99 37.382 0.38 7.67 2.97 14.29
1/24/2021 5:00:00 PM 2.6 36.68 0.331 6.64 2.49 12.23
1/24/2021 5:15:00 PM 2.95 37.31 0.374 7.5 2.81 13.77
1/24/2021 5:30:00 PM 3.01 37.418 0.379 7.6 2.81 13.85
1/24/2021 5:45:00 PM 3.02 37.436 0.38 7.6 2.84 13.74
1/24/2021 6:00:00 PM 3.02 37.436 0.38 7.58 2.9 13.71
1/24/2021 6:15:00 PM 3 37.4 0.379 7.57 2.83 13.63
1/24/2021 6:30:00 PM 2.98 37.364 0.379 7.56 2.77 13.58
1/24/2021 6:45:00 PM 2.96 37.328 0.379 7.55 2.86 13.53
1/24/2021 7:00:00 PM 2.94 37.292 0.378 7.55 2.8 13.49
1/24/2021 7:15:00 PM 2.91 37.238 0.378 7.54 2.73 13.51
1/24/2021 7:30:00 PM 2.89 37.202 0.378 7.54 2.66 13.5
1/24/2021 7:45:00 PM 2.87 37.166 0.378 7.54 2.66 13.46
1/24/2021 8:00:00 PM 2.85 37.13 0.378 7.53 2.62 13.44
1/24/2021 8:15:00 PM 2.83 37.094 0.378 7.52 2.68 13.37
1/24/2021 8:30:00 PM 2.83 37.094 0.379 7.52 2.65 13.27
1/24/2021 8:45:00 PM 2.82 37.076 0.379 7.52 2.48 13.34
1/24/2021 9:00:00 PM 2.81 37.058 0.38 7.52 2.55 13.21
1/24/2021 9:15:00 PM 2.8 37.04 0.38 7.51 2.58 13.26
1/24/2021 9:30:00 PM 2.8 37.04 0.381 7.51 2.52 13.25
1/24/2021 9:45:00 PM 2.8 37.04 0.381 7.51 2.61 13.2
1/24/2021 10:00:00 PM 2.81 37.058 0.382 7.5 2.57 13.19
1/24/2021 10:15:00 PM 2.81 37.058 0.382 7.5 2.66 13.04
1/24/2021 10:30:00 PM 2.82 37.076 0.383 7.5 2.64 13.06
1/24/2021 10:45:00 PM 2.83 37.094 0.383 7.5 2.81 13.1
1/24/2021 11:00:00 PM 2.83 37.094 0.383 7.5 2.77 13.08
1/24/2021 11:15:00 PM 2.84 37.112 0.383 7.49 2.85 13.07
1/24/2021 11:30:00 PM 2.85 37.13 0.384 7.48 3.15 13.09
1/24/2021 11:45:00 PM 2.86 37.148 0.384 7.48 3.11 13.03
1/25/2021 12:00:00 AM 2.86 37.148 0.384 7.48 2.86 13.05
1/25/2021 12:15:00 AM 2.87 37.166 0.384 7.48 2.7 13.02
1/25/2021 12:30:00 AM 2.88 37.184 0.384 7.48 2.78 12.98
1/25/2021 12:45:00 AM 2.88 37.184 0.383 7.48 2.66 13
1/25/2021 1:00:00 AM 2.89 37.202 0.383 7.48 2.66 13
1/25/2021 1:15:00 AM 2.9 37.22 0.383 7.47 2.85 12.97
1/25/2021 1:30:00 AM 2.9 37.22 0.383 7.47 2.71 12.96
1/25/2021 1:45:00 AM 2.91 37.238 0.383 7.47 2.55 12.95
1/25/2021 2:00:00 AM 2.92 37.256 0.383 7.47 2.47 12.94
1/25/2021 2:15:00 AM 2.92 37.256 0.383 7.47 2.45 12.94
1/25/2021 2:30:00 AM 2.54 36.572 0.333 6.47 2.14 11.16
1/25/2021 2:45:00 AM 2.87 37.166 0.375 7.33 2.52 12.65
1/25/2021 3:00:00 AM 2.93 37.274 0.381 7.44 2.54 12.9
1/25/2021 3:15:00 AM 2.93 37.274 0.382 7.46 2.58 12.89
1/25/2021 3:30:00 AM 2.93 37.274 0.382 7.46 2.45 12.9
1/25/2021 3:45:00 AM 2.93 37.274 0.382 7.46 2.45 12.89
1/25/2021 4:00:00 AM 2.93 37.274 0.382 7.46 2.47 12.85
1/25/2021 4:15:00 AM 2.93 37.274 0.382 7.45 2.56 12.87
1/25/2021 4:30:00 AM 2.93 37.274 0.382 7.45 2.54 12.88
1/25/2021 4:45:00 AM 2.93 37.274 0.381 7.45 2.43 12.79
1/25/2021 5:00:00 AM 2.93 37.274 0.381 7.46 2.47 12.84
1/25/2021 5:15:00 AM 2.93 37.274 0.381 7.46 2.49 12.81
1/25/2021 5:30:00 AM 2.54 36.572 0.332 6.47 2.28 11.18
1/25/2021 5:45:00 AM 2.88 37.184 0.375 7.32 2.55 12.65
1/25/2021 6:00:00 AM 2.91 37.238 0.381 7.44 2.53 12.85
1/25/2021 6:15:00 AM 2.91 37.238 0.381 7.46 2.52 12.88
1/25/2021 6:30:00 AM 2.91 37.238 0.382 7.46 2.32 12.86
1/25/2021 6:45:00 AM 2.9 37.22 0.381 7.46 2.38 12.87
1/25/2021 7:00:00 AM 2.9 37.22 0.381 7.46 2.58 12.78
1/25/2021 7:15:00 AM 2.9 37.22 0.382 7.45 2.61 12.86
1/25/2021 7:30:00 AM 2.9 37.22 0.381 7.45 2.44 12.86
1/25/2021 7:45:00 AM 2.9 37.22 0.381 7.46 2.42 12.77
1/25/2021 8:00:00 AM 2.91 37.238 0.381 7.46 2.68 12.79
1/25/2021 8:15:00 AM 2.91 37.238 0.381 7.46 2.91 12.9
1/25/2021 8:30:00 AM 2.92 37.256 0.381 7.47 2.97 12.99
1/25/2021 8:45:00 AM 2.93 37.274 0.381 7.48 2.94 13.09
1/25/2021 9:00:00 AM 2.94 37.292 0.381 7.49 2.78 13.18
1/25/2021 9:15:00 AM 2.57 36.626 0.331 6.51 2.36 11.56
1/25/2021 9:30:00 AM 2.93 37.274 0.374 7.38 2.78 13.21
1/25/2021 9:45:00 AM 3 37.4 0.38 7.51 2.88 13.51
1/25/2021 10:00:00 AM 3.05 37.49 0.38 7.55 2.78 13.71
1/25/2021 10:15:00 AM 2.7 36.86 0.33 6.56 2.3 12.03
1/25/2021 10:30:00 AM 2.74 36.932 0.33 6.58 2.38 12.17
1/25/2021 10:45:00 AM 3.17 37.706 0.373 7.47 2.83 13.86
1/25/2021 11:00:00 AM 3.29 37.922 0.378 7.61 2.83 14.13
1/25/2021 11:15:00 AM 3.35 38.03 0.379 7.64 2.74 14.2
1/25/2021 11:30:00 AM 3.41 38.138 0.379 7.66 2.9 14.11
1/25/2021 11:45:00 AM 3.46 38.228 0.378 7.67 3.05 14.27
1/25/2021 12:00:00 PM 3.04 37.472 0.33 6.66 2.42 12.37
1/25/2021 12:15:00 PM 3.47 38.246 0.372 7.54 3.01 14.06
1/25/2021 12:30:00 PM 3.54 38.372 0.378 7.67 2.98 14.38
1/25/2021 12:45:00 PM 3.56 38.408 0.378 7.69 2.87 14.35
1/25/2021 1:00:00 PM 3.59 38.462 0.378 7.7 2.87 14.26
1/25/2021 1:15:00 PM 3.62 38.516 0.378 7.71 2.81 14.39
1/25/2021 1:30:00 PM 3.64 38.552 0.378 7.71 2.56 14.4
1/25/2021 1:45:00 PM 3.67 38.606 0.378 7.71 3.06 14.38
1/25/2021 2:00:00 PM 3.69 38.642 0.378 7.71 3.43 14.38
1/25/2021 2:15:00 PM 3.71 38.678 0.378 7.71 2.86 14.34
1/25/2021 2:30:00 PM 3.72 38.696 0.378 7.71 2.69 14.29
1/25/2021 2:45:00 PM 3.74 38.732 0.378 7.71 2.54 14.29
1/25/2021 3:00:00 PM 3.75 38.75 0.378 7.7 2.8 14.23
1/25/2021 3:15:00 PM 3.77 38.786 0.378 7.7 2.62 14.18
1/25/2021 3:30:00 PM 3.79 38.822 0.378 7.7 2.56 14.14
1/25/2021 3:45:00 PM 3.81 38.858 0.378 7.69 2.64 14.08
1/25/2021 4:00:00 PM 3.83 38.894 0.378 7.69 2.55 14.08
1/25/2021 4:15:00 PM 3.84 38.912 0.378 7.67 2.6 13.99
1/25/2021 4:30:00 PM 3.85 38.93 0.378 7.66 2.72 13.91
1/25/2021 4:45:00 PM 3.85 38.93 0.378 7.65 2.65 13.83
1/25/2021 5:00:00 PM 3.86 38.948 0.379 7.64 2.71 13.63
1/25/2021 5:15:00 PM 3.86 38.948 0.378 7.62 2.78 13.6
1/25/2021 5:30:00 PM 3.85 38.93 0.379 7.6 2.69 13.35
1/25/2021 5:45:00 PM 3.85 38.93 0.379 7.59 2.83 13.33
1/25/2021 6:00:00 PM 3.84 38.912 0.379 7.58 2.79 13.21
1/25/2021 6:15:00 PM 3.83 38.894 0.378 7.57 2.83 13.15
1/25/2021 6:30:00 PM 3.32 37.976 0.33 6.55 2.3 11.38
1/25/2021 6:45:00 PM 3.75 38.75 0.372 7.42 2.66 12.85
1/25/2021 7:00:00 PM 3.81 38.858 0.377 7.53 2.81 13.02
1/25/2021 7:15:00 PM 3.81 38.858 0.378 7.54 3.16 13.04
1/25/2021 7:30:00 PM 3.81 38.858 0.378 7.54 3.16 13.04
1/25/2021 7:45:00 PM 3.82 38.876 0.379 7.54 2.98 12.97
1/25/2021 8:00:00 PM 3.82 38.876 0.378 7.53 2.9 12.93
1/25/2021 8:15:00 PM 3.81 38.858 0.379 7.52 2.87 12.92
1/25/2021 8:30:00 PM 3.31 37.958 0.33 6.53 2.4 11.18
1/25/2021 8:45:00 PM 3.74 38.732 0.372 7.39 2.71 12.64
1/25/2021 9:00:00 PM 3.8 38.84 0.378 7.5 2.6 12.69
1/25/2021 9:15:00 PM 3.8 38.84 0.379 7.51 2.59 12.77
1/25/2021 9:30:00 PM 3.28 37.904 0.329 6.51 2.16 11.07
1/25/2021 9:45:00 PM 3.71 38.678 0.372 7.37 2.36 12.44
1/25/2021 10:00:00 PM 3.75 38.75 0.378 7.49 2.44 12.7
1/25/2021 10:15:00 PM 3.75 38.75 0.379 7.5 2.5 12.7
1/25/2021 10:30:00 PM 3.75 38.75 0.379 7.5 2.87 12.68
1/25/2021 10:45:00 PM 3.74 38.732 0.379 7.5 2.88 12.69
1/25/2021 11:00:00 PM 3.74 38.732 0.379 7.5 2.74 12.63
1/25/2021 11:15:00 PM 3.74 38.732 0.379 7.5 2.67 12.63
1/25/2021 11:30:00 PM 3.74 38.732 0.379 7.49 2.56 12.65
1/25/2021 11:45:00 PM 3.74 38.732 0.379 7.49 2.95 12.61
1/26/2021 12:00:00 AM 3.74 38.732 0.379 7.48 3.4 12.59
1/26/2021 12:15:00 AM 3.74 38.732 0.379 7.48 3.33 12.45
1/26/2021 12:30:00 AM 3.75 38.75 0.379 7.48 3.2 12.55
1/26/2021 12:45:00 AM 3.75 38.75 0.379 7.48 3.1 12.59
1/26/2021 1:00:00 AM 3.74 38.732 0.379 7.48 3.02 12.55
1/26/2021 1:15:00 AM 3.74 38.732 0.379 7.48 2.98 12.54
1/26/2021 1:30:00 AM 3.74 38.732 0.379 7.48 3.02 12.5
1/26/2021 1:45:00 AM 3.24 37.832 0.33 6.49 2.51 10.86
1/26/2021 2:00:00 AM 3.66 38.588 0.372 7.35 2.88 12.31
1/26/2021 2:15:00 AM 3.72 38.696 0.378 7.46 2.93 12.46
1/26/2021 2:30:00 AM 3.72 38.696 0.378 7.48 3.08 12.5
1/26/2021 2:45:00 AM 3.73 38.714 0.379 7.47 3.46 12.51
1/26/2021 3:00:00 AM 3.73 38.714 0.379 7.47 3.15 12.5
1/26/2021 3:15:00 AM 3.73 38.714 0.379 7.47 3.01 12.5
1/26/2021 3:30:00 AM 3.73 38.714 0.378 7.47 3.05 12.51
1/26/2021 3:45:00 AM 3.73 38.714 0.378 7.47 3.02 12.5
1/26/2021 4:00:00 AM 3.24 37.832 0.329 6.48 2.55 10.79
1/26/2021 4:15:00 AM 3.67 38.606 0.371 7.34 2.92 12.24
1/26/2021 4:30:00 AM 3.73 38.714 0.377 7.45 3.05 12.44
1/26/2021 4:45:00 AM 3.74 38.732 0.378 7.46 3.11 12.4
1/26/2021 5:00:00 AM 3.74 38.732 0.378 7.46 3.1 12.46
1/26/2021 5:15:00 AM 3.74 38.732 0.378 7.46 3.15 12.46
1/26/2021 5:30:00 AM 3.74 38.732 0.378 7.47 3.12 12.44
1/26/2021 5:45:00 AM 3.74 38.732 0.378 7.46 3.06 12.47
1/26/2021 6:00:00 AM 3.74 38.732 0.378 7.46 3.05 12.43
1/26/2021 6:15:00 AM 3.74 38.732 0.378 7.46 3.12 12.47
1/26/2021 6:30:00 AM 3.74 38.732 0.378 7.46 3.05 12.41
1/26/2021 6:45:00 AM 3.24 37.832 0.329 6.46 2.54 10.82
1/26/2021 7:00:00 AM 3.67 38.606 0.371 7.33 2.95 12.23
1/26/2021 7:15:00 AM 3.72 38.696 0.377 7.44 2.98 12.42
1/26/2021 7:30:00 AM 3.72 38.696 0.378 7.46 3.35 12.43
1/26/2021 7:45:00 AM 3.71 38.678 0.378 7.46 3.27 12.44
1/26/2021 8:00:00 AM 3.7 38.66 0.377 7.47 3.52 12.4
1/26/2021 8:15:00 AM 3.69 38.642 0.377 7.47 3.49 12.5
1/26/2021 8:30:00 AM 3.69 38.642 0.377 7.48 3.85 12.58
1/26/2021 8:45:00 AM 3.7 38.66 0.377 7.48 3.35 12.64
1/26/2021 9:00:00 AM 3.7 38.66 0.377 7.49 3.26 12.7
1/26/2021 9:15:00 AM 3.71 38.678 0.377 7.5 3.06 12.81
1/26/2021 9:30:00 AM 3.72 38.696 0.377 7.51 3.09 12.82
1/26/2021 9:45:00 AM 3.73 38.714 0.376 7.52 3.2 12.99
1/26/2021 10:00:00 AM 3.74 38.732 0.376 7.53 3.19 13.11
1/26/2021 10:15:00 AM 3.75 38.75 0.376 7.54 3.27 13.13
1/26/2021 10:30:00 AM 3.26 37.868 0.327 6.55 2.37 11.47
1/26/2021 10:45:00 AM 3.71 38.678 0.369 7.43 2.97 13.07
1/26/2021 11:00:00 AM 3.77 38.786 0.375 7.55 3 13.3
1/26/2021 11:15:00 AM 3.79 38.822 0.376 7.58 3.75 13.29
1/26/2021 11:30:00 AM 3.8 38.84 0.376 7.58 3.28 13.44
1/26/2021 11:45:00 AM 3.81 38.858 0.376 7.59 3.15 13.52
1/26/2021 12:00:00 PM 3.83 38.894 0.376 7.61 3.6 13.6
1/26/2021 12:15:00 PM 3.85 38.93 0.376 7.62 3.48 13.7
1/26/2021 12:30:00 PM 3.87 38.966 0.376 7.63 3.26 13.75
1/26/2021 12:45:00 PM 3.38 38.084 0.327 6.63 2.72 12
1/26/2021 1:00:00 PM 3.85 38.93 0.369 7.52 3.08 13.58
1/26/2021 1:15:00 PM 3.93 39.074 0.375 7.64 3.26 13.79
1/26/2021 1:30:00 PM 3.95 39.11 0.375 7.66 3.28 13.85
1/26/2021 1:45:00 PM 3.96 39.128 0.376 7.66 3.62 13.83
1/26/2021 2:00:00 PM 3.98 39.164 0.375 7.66 4.49 13.84
1/26/2021 2:15:00 PM 4 39.2 0.376 7.66 4.17 13.82
1/26/2021 2:30:00 PM 4 39.2 0.375 7.66 3.9 13.78
1/26/2021 2:45:00 PM 4.01 39.218 0.375 7.66 3.63 13.79
1/26/2021 3:00:00 PM 4.02 39.236 0.375 7.66 3.6 13.71
1/26/2021 3:15:00 PM 3.5 38.3 0.326 6.62 2.93 11.86
1/26/2021 3:30:00 PM 3.97 39.146 0.368 7.51 3.35 13.38
1/26/2021 3:45:00 PM 4.04 39.272 0.374 7.62 3.44 13.55
1/26/2021 4:00:00 PM 4.06 39.308 0.374 7.63 3.44 13.5
1/26/2021 4:15:00 PM 3.54 38.372 0.326 6.61 3.13 11.73
1/26/2021 4:30:00 PM 4.02 39.236 0.368 7.48 3.39 13.25
1/26/2021 4:45:00 PM 3.56 38.408 0.326 6.6 2.97 11.59
1/26/2021 5:00:00 PM 4.03 39.254 0.368 7.47 3.64 13.04
1/26/2021 5:15:00 PM 4.09 39.362 0.373 7.57 3.44 13.11
1/26/2021 5:30:00 PM 4.11 39.398 0.374 7.58 3.22 13.05
1/26/2021 5:45:00 PM 4.11 39.398 0.374 7.57 3.31 12.99
1/26/2021 6:00:00 PM 4.12 39.416 0.374 7.56 3.23 12.98
1/26/2021 6:15:00 PM 4.12 39.416 0.374 7.55 3.36 12.9
1/26/2021 6:30:00 PM 4.12 39.416 0.374 7.55 3.43 12.87
1/26/2021 6:45:00 PM 4.13 39.434 0.374 7.55 3.38 12.73
1/26/2021 7:00:00 PM 4.13 39.434 0.374 7.54 3.39 12.77
1/26/2021 7:15:00 PM 4.13 39.434 0.374 7.54 3.52 12.79
1/26/2021 7:30:00 PM 4.13 39.434 0.374 7.53 3.48 12.75
1/26/2021 7:45:00 PM 4.13 39.434 0.374 7.53 3.64 12.7
1/26/2021 8:00:00 PM 4.13 39.434 0.374 7.53 3.83 12.68
1/26/2021 8:15:00 PM 3.58 38.444 0.325 6.52 3.47 10.99
1/26/2021 8:30:00 PM 4.06 39.308 0.367 7.39 3.94 12.32
1/26/2021 8:45:00 PM 4.13 39.434 0.373 7.5 3.98 12.58
1/26/2021 9:00:00 PM 4.14 39.452 0.373 7.52 4.12 12.57
1/26/2021 9:15:00 PM 4.14 39.452 0.373 7.51 4.08 12.44
1/26/2021 9:30:00 PM 4.14 39.452 0.373 7.51 4.15 12.47
1/26/2021 9:45:00 PM 4.14 39.452 0.373 7.51 4.17 12.47
1/26/2021 10:00:00 PM 4.14 39.452 0.373 7.51 4.33 12.47
1/26/2021 10:15:00 PM 4.14 39.452 0.373 7.5 4.19 12.5
1/26/2021 10:30:00 PM 4.14 39.452 0.373 7.5 3.88 12.46
1/26/2021 10:45:00 PM 4.14 39.452 0.373 7.5 3.91 12.43
1/26/2021 11:00:00 PM 4.14 39.452 0.373 7.5 4 12.42
1/26/2021 11:15:00 PM 4.14 39.452 0.373 7.5 3.91 12.41
1/26/2021 11:30:00 PM 4.14 39.452 0.373 7.49 3.91 12.41
1/26/2021 11:45:00 PM 4.14 39.452 0.373 7.49 3.8 12.4
1/27/2021 12:00:00 AM 4.14 39.452 0.373 7.49 3.78 12.39
1/27/2021 12:15:00 AM 4.15 39.47 0.373 7.49 3.89 12.38
1/27/2021 12:30:00 AM 4.15 39.47 0.373 7.49 3.95 12.38
1/27/2021 12:45:00 AM 4.16 39.488 0.373 7.49 3.98 12.36
1/27/2021 1:00:00 AM 4.16 39.488 0.373 7.49 3.84 12.36
1/27/2021 1:15:00 AM 4.16 39.488 0.373 7.49 3.85 12.34
1/27/2021 1:30:00 AM 4.17 39.506 0.373 7.48 3.76 12.33
1/27/2021 1:45:00 AM 4.17 39.506 0.373 7.48 3.77 12.34
1/27/2021 2:00:00 AM 4.17 39.506 0.372 7.48 3.67 12.33
1/27/2021 2:15:00 AM 4.17 39.506 0.372 7.48 3.68 12.36
1/27/2021 2:30:00 AM 4.17 39.506 0.372 7.48 3.64 12.34
1/27/2021 2:45:00 AM 4.17 39.506 0.372 7.48 3.59 12.33
1/27/2021 3:00:00 AM 4.17 39.506 0.372 7.48 3.55 12.33
1/27/2021 3:15:00 AM 3.61 38.498 0.324 6.48 3.05 10.72
1/27/2021 3:30:00 AM 4.09 39.362 0.366 7.34 3.47 12.16
1/27/2021 3:45:00 AM 4.16 39.488 0.371 7.46 3.58 12.26
1/27/2021 4:00:00 AM 4.17 39.506 0.372 7.48 3.68 12.3
1/27/2021 4:15:00 AM 4.17 39.506 0.372 7.48 3.68 12.31
1/27/2021 4:30:00 AM 4.17 39.506 0.372 7.48 3.58 12.3
1/27/2021 4:45:00 AM 4.17 39.506 0.372 7.48 3.52 12.3
1/27/2021 5:00:00 AM 4.17 39.506 0.372 7.48 3.6 12.3
1/27/2021 5:15:00 AM 4.17 39.506 0.372 7.47 3.64 12.28
1/27/2021 5:30:00 AM 4.17 39.506 0.372 7.47 3.63 12.31
1/27/2021 5:45:00 AM 4.16 39.488 0.372 7.47 3.62 12.29
1/27/2021 6:00:00 AM 3.61 38.498 0.323 6.48 3.11 10.66
1/27/2021 6:15:00 AM 3.6 38.48 0.323 6.48 3.15 10.66
1/27/2021 6:30:00 AM 4.08 39.344 0.365 7.34 3.73 12.06
1/27/2021 6:45:00 AM 4.15 39.47 0.371 7.45 3.84 12.28
1/27/2021 7:00:00 AM 4.15 39.47 0.371 7.47 3.75 12.27
1/27/2021 7:15:00 AM 4.16 39.488 0.372 7.47 3.78 12.29
1/27/2021 7:30:00 AM 4.16 39.488 0.372 7.47 3.66 12.22
1/27/2021 7:45:00 AM 4.17 39.506 0.372 7.47 3.64 12.29
1/27/2021 8:00:00 AM 3.62 38.516 0.324 6.49 3.02 10.68
1/27/2021 8:15:00 AM 4.1 39.38 0.365 7.35 3.41 12.12
1/27/2021 8:30:00 AM 4.18 39.524 0.371 7.47 3.6 12.38
1/27/2021 8:45:00 AM 4.2 39.56 0.372 7.49 3.42 12.52
1/27/2021 9:00:00 AM 4.23 39.614 0.372 7.51 3.33 12.6
1/27/2021 9:15:00 AM 4.25 39.65 0.371 7.53 3.33 12.83
1/27/2021 9:30:00 AM 4.27 39.686 0.371 7.55 3.28 13.01
1/27/2021 9:45:00 AM 4.34 39.812 0.371 7.59 2.92 13.33
1/27/2021 10:00:00 AM 4.38 39.884 0.371 7.61 2.87 13.49
1/27/2021 10:15:00 AM 4.42 39.956 0.371 7.64 2.89 13.57
1/27/2021 10:30:00 AM 4.44 39.992 0.371 7.66 2.93 13.74
1/27/2021 10:45:00 AM 4.5 40.1 0.371 7.69 2.83 13.9
1/27/2021 11:00:00 AM 4.58 40.244 0.37 7.71 2.71 14.03
1/27/2021 11:15:00 AM 4.66 40.388 0.37 7.73 2.64 14.11
1/27/2021 11:30:00 AM 4.71 40.478 0.37 7.75 2.71 14.13
1/27/2021 11:45:00 AM 4.75 40.55 0.37 7.77 2.84 14.26
1/27/2021 12:00:00 PM 4.8 40.64 0.37 7.79 2.86 14.24
1/27/2021 12:15:00 PM 4.84 40.712 0.37 7.8 2.99 14.29
1/27/2021 12:30:00 PM 4.25 39.65 0.322 6.79 2.51 12.53
1/27/2021 12:45:00 PM 4.81 40.658 0.363 7.68 2.98 14.14
1/27/2021 1:00:00 PM 4.9 40.82 0.369 7.81 3.01 14.43
1/27/2021 1:15:00 PM 4.94 40.892 0.37 7.85 3.13 14.52
1/27/2021 1:30:00 PM 4.95 40.91 0.37 7.86 3.15 14.55
1/27/2021 1:45:00 PM 5.03 41.054 0.37 7.88 3.28 14.6
1/27/2021 2:00:00 PM 5.08 41.144 0.37 7.89 3.34 14.66
1/27/2021 2:15:00 PM 5.14 41.252 0.37 7.89 3.47 14.66
1/27/2021 2:30:00 PM 5.17 41.306 0.369 7.89 3.37 14.61
1/27/2021 2:45:00 PM 5.2 41.36 0.37 7.9 3.47 14.56
1/27/2021 3:00:00 PM 5.21 41.378 0.369 7.91 3.46 14.58
1/27/2021 3:15:00 PM 5.2 41.36 0.369 7.9 3.57 14.55
1/27/2021 3:30:00 PM 5.19 41.342 0.37 7.9 3.2 14.5
1/27/2021 3:45:00 PM 5.16 41.288 0.37 7.89 3.21 14.38
1/27/2021 4:00:00 PM 5.12 41.216 0.37 7.88 3.19 14.39
1/27/2021 4:15:00 PM 5.08 41.144 0.37 7.87 3.98 14.32
1/27/2021 4:30:00 PM 5.05 41.09 0.37 7.85 3.49 14.18
1/27/2021 4:45:00 PM 5.04 41.072 0.371 7.82 3.35 14.08
1/27/2021 5:00:00 PM 5.03 41.054 0.371 7.79 3.38 13.88
1/27/2021 5:15:00 PM 5.03 41.054 0.371 7.76 3.43 13.71
1/27/2021 5:30:00 PM 5.03 41.054 0.371 7.73 3.48 13.5
1/27/2021 5:45:00 PM 5.03 41.054 0.372 7.7 3.32 13.32
1/27/2021 6:00:00 PM 5.03 41.054 0.372 7.67 3.47 13.16
1/27/2021 6:15:00 PM 5.03 41.054 0.372 7.65 3.46 13.04
1/27/2021 6:30:00 PM 4.35 39.83 0.324 6.62 2.93 11.21
1/27/2021 6:45:00 PM 4.92 40.856 0.366 7.49 3.25 12.7
1/27/2021 7:00:00 PM 4.98 40.964 0.372 7.6 3.18 12.81
1/27/2021 7:15:00 PM 4.98 40.964 0.372 7.61 3.22 12.74
1/27/2021 7:30:00 PM 4.98 40.964 0.373 7.61 3.22 12.66
1/27/2021 7:45:00 PM 4.96 40.928 0.373 7.6 3.29 12.7
1/27/2021 8:00:00 PM 4.3 39.74 0.325 6.59 2.93 10.99
1/27/2021 8:15:00 PM 4.28 39.704 0.324 6.58 2.93 10.94
1/27/2021 8:30:00 PM 4.83 40.694 0.367 7.45 3.3 12.36
1/27/2021 8:45:00 PM 4.9 40.82 0.373 7.56 3.35 12.54
1/27/2021 9:00:00 PM 4.89 40.802 0.373 7.57 3.25 12.54
1/27/2021 9:15:00 PM 4.88 40.784 0.374 7.57 3.28 12.54
1/27/2021 9:30:00 PM 4.21 39.578 0.325 6.56 2.81 10.84
1/27/2021 9:45:00 PM 4.73 40.514 0.367 7.43 3.4 12.25
1/27/2021 10:00:00 PM 4.78 40.604 0.373 7.54 3.42 12.4
1/27/2021 10:15:00 PM 4.76 40.568 0.373 7.54 3.5 12.4
1/27/2021 10:30:00 PM 4.74 40.532 0.374 7.54 3.39 12.37
1/27/2021 10:45:00 PM 4.71 40.478 0.374 7.54 3.38 12.38
1/27/2021 11:00:00 PM 4.69 40.442 0.374 7.53 3.38 12.31
1/27/2021 11:15:00 PM 4.03 39.254 0.325 6.52 2.84 10.67
1/27/2021 11:30:00 PM 4.55 40.19 0.368 7.39 3.3 12.09
1/27/2021 11:45:00 PM 4.6 40.28 0.374 7.5 3.26 12.26
1/28/2021 12:00:00 AM 4.58 40.244 0.375 7.51 3.31 12.29
1/28/2021 12:15:00 AM 4.55 40.19 0.375 7.51 3.37 12.28
1/28/2021 12:30:00 AM 4.51 40.118 0.375 7.51 3.29 12.26
1/28/2021 12:45:00 AM 4.48 40.064 0.375 7.5 3.36 12.26
1/28/2021 1:00:00 AM 4.45 40.01 0.375 7.5 3.24 12.22
1/28/2021 1:15:00 AM 4.41 39.938 0.375 7.5 3.36 12.25
1/28/2021 1:30:00 AM 3.79 38.822 0.327 6.5 2.89 10.6
1/28/2021 1:45:00 AM 4.27 39.686 0.369 7.36 3.33 12
1/28/2021 2:00:00 AM 4.31 39.758 0.375 7.47 3.09 12.2
1/28/2021 2:15:00 AM 4.28 39.704 0.376 7.49 3.14 12.23
1/28/2021 2:30:00 AM 4.25 39.65 0.376 7.49 3.27 12.14
1/28/2021 2:45:00 AM 4.22 39.596 0.376 7.49 3.34 12.23
1/28/2021 3:00:00 AM 4.19 39.542 0.376 7.48 3.28 12.16
1/28/2021 3:15:00 AM 4.15 39.47 0.375 7.48 3.26 12.26
1/28/2021 3:30:00 AM 4.12 39.416 0.376 7.48 3.31 12.26
1/28/2021 3:45:00 AM 4.08 39.344 0.376 7.48 3.35 12.25
1/28/2021 4:00:00 AM 4.05 39.29 0.376 7.48 3.42 12.26
1/28/2021 4:15:00 AM 4.03 39.254 0.376 7.48 3.45 12.27
1/28/2021 4:30:00 AM 3.99 39.182 0.376 7.48 3.52 12.21
1/28/2021 4:45:00 AM 3.95 39.11 0.376 7.47 3.4 12.28
1/28/2021 5:00:00 AM 3.89 39.002 0.376 7.48 3.31 12.32
1/28/2021 5:15:00 AM 3.84 38.912 0.376 7.48 3.28 12.33
1/28/2021 5:30:00 AM 3.78 38.804 0.376 7.47 3.3 12.37
1/28/2021 5:45:00 AM 3.71 38.678 0.376 7.47 3.3 12.36
1/28/2021 6:00:00 AM 3.64 38.552 0.377 7.47 3.32 12.39
1/28/2021 6:15:00 AM 3.58 38.444 0.376 7.47 3.36 12.42
1/28/2021 6:30:00 AM 3.51 38.318 0.377 7.47 3.24 12.43
1/28/2021 6:45:00 AM 3.46 38.228 0.377 7.47 3.31 12.46
1/28/2021 7:00:00 AM 3.42 38.156 0.377 7.47 3.22 12.44
1/28/2021 7:15:00 AM 3.36 38.048 0.377 7.47 3.22 12.44
1/28/2021 7:30:00 AM 3.33 37.994 0.377 7.48 3.26 12.5
1/28/2021 7:45:00 AM 2.85 37.13 0.328 6.48 2.94 10.95
1/28/2021 8:00:00 AM 3.2 37.76 0.37 7.35 4.13 12.42
1/28/2021 8:15:00 AM 2.79 37.022 0.328 6.5 3.58 11.09
1/28/2021 8:30:00 AM 3.12 37.616 0.371 7.38 3.78 12.74
1/28/2021 8:45:00 AM 3.14 37.652 0.376 7.51 3.55 13.15
1/28/2021 9:00:00 AM 2.7 36.86 0.328 6.57 2.95 11.65
1/28/2021 9:15:00 AM 3.07 37.526 0.37 7.46 3.51 13.43
1/28/2021 9:30:00 AM 2.68 36.824 0.328 6.62 2.98 12
1/28/2021 9:45:00 AM 3.05 37.49 0.37 7.51 3.34 13.66
1/28/2021 10:00:00 AM 3.12 37.616 0.376 7.66 3.45 14.12
1/28/2021 10:15:00 AM 3.18 37.724 0.377 7.69 3.29 14.2
1/28/2021 10:30:00 AM 3.24 37.832 0.377 7.71 3.28 14.37
1/28/2021 10:45:00 AM 3.32 37.976 0.377 7.73 3.23 14.41
1/28/2021 11:00:00 AM 3.4 38.12 0.376 7.75 3.16 14.5
1/28/2021 11:15:00 AM 3.49 38.282 0.377 7.77 3.2 14.47
1/28/2021 11:30:00 AM 3.59 38.462 0.376 7.78 3.23 14.61
1/28/2021 11:45:00 AM 3.69 38.642 0.376 7.79 3.27 14.67
1/28/2021 12:00:00 PM 3.76 38.768 0.376 7.8 3.23 14.72
1/28/2021 12:15:00 PM 3.82 38.876 0.376 7.81 3.24 14.74
1/28/2021 12:30:00 PM 3.88 38.984 0.376 7.82 3.21 14.75
1/28/2021 12:45:00 PM 3.95 39.11 0.376 7.83 3.41 14.76
1/28/2021 1:00:00 PM 3.99 39.182 0.376 7.85 3.39 14.81
1/28/2021 1:15:00 PM 4.04 39.272 0.376 7.86 3.38 14.84
1/28/2021 1:30:00 PM 3.56 38.408 0.326 6.82 2.88 12.91
1/28/2021 1:45:00 PM 4.04 39.272 0.369 7.73 3.53 14.59
1/28/2021 2:00:00 PM 4.1 39.38 0.375 7.86 3.74 14.81
1/28/2021 2:15:00 PM 4.09 39.362 0.376 7.88 3.77 14.85
1/28/2021 2:30:00 PM 4.05 39.29 0.376 7.89 3.63 14.88
1/28/2021 2:45:00 PM 4 39.2 0.376 7.89 3.45 14.86
1/28/2021 3:00:00 PM 3.93 39.074 0.376 7.88 3.44 14.8
1/28/2021 3:15:00 PM 3.89 39.002 0.376 7.88 3.39 14.81
1/28/2021 3:30:00 PM 3.83 38.894 0.376 7.88 3.24 14.74
1/28/2021 3:45:00 PM 3.77 38.786 0.376 7.87 3.2 14.72
1/28/2021 4:00:00 PM 3.71 38.678 0.377 7.85 3.37 14.68
1/28/2021 4:15:00 PM 3.64 38.552 0.377 7.84 3.52 14.61
1/28/2021 4:30:00 PM 3.1 37.58 0.329 6.78 3.08 12.62
1/28/2021 4:45:00 PM 3.42 38.156 0.371 7.66 3.48 14.12
1/28/2021 5:00:00 PM 3.41 38.138 0.377 7.76 3.44 14.25
1/28/2021 5:15:00 PM 3.37 38.066 0.378 7.75 3.52 14.16
1/28/2021 5:30:00 PM 3.32 37.976 0.379 7.72 3.61 13.9
1/28/2021 5:45:00 PM 3.3 37.94 0.379 7.69 3.7 13.8
1/28/2021 6:00:00 PM 3.26 37.868 0.379 7.66 3.68 13.69
1/28/2021 6:15:00 PM 3.23 37.814 0.379 7.64 3.74 13.57
1/28/2021 6:30:00 PM 3.2 37.76 0.379 7.63 3.71 13.51
1/28/2021 6:45:00 PM 3.16 37.688 0.38 7.61 4.43 13.44
1/28/2021 7:00:00 PM 3.11 37.598 0.38 7.61 3.63 13.42
1/28/2021 7:15:00 PM 3.07 37.526 0.38 7.6 3.59 13.4
1/28/2021 7:30:00 PM 3.02 37.436 0.38 7.59 3.42 13.39
1/28/2021 7:45:00 PM 2.95 37.31 0.38 7.59 3.51 13.36
1/28/2021 8:00:00 PM 2.89 37.202 0.38 7.59 3.44 13.36
1/28/2021 8:15:00 PM 2.8 37.04 0.38 7.58 3.53 13.36
1/28/2021 8:30:00 PM 2.34 36.212 0.331 6.57 3.12 11.54
1/28/2021 8:45:00 PM 2.6 36.68 0.374 7.44 3.52 13.11
1/28/2021 9:00:00 PM 2.21 35.978 0.331 6.56 2.89 11.55
1/28/2021 9:15:00 PM 2.17 35.906 0.332 6.57 2.85 11.57
1/28/2021 9:30:00 PM 2.39 36.302 0.374 7.43 3.32 13.08
1/28/2021 9:45:00 PM 2.38 36.284 0.38 7.54 3 13.26
1/28/2021 10:00:00 PM 2.33 36.194 0.381 7.55 3.02 13.21
1/28/2021 10:15:00 PM 2.28 36.104 0.382 7.55 3.23 13.2
1/28/2021 10:30:00 PM 2.24 36.032 0.382 7.54 3.08 13.21
1/28/2021 10:45:00 PM 2.2 35.96 0.382 7.54 3.09 13.29
1/28/2021 11:00:00 PM 2.16 35.888 0.382 7.54 3.06 13.21
1/28/2021 11:15:00 PM 2.13 35.834 0.383 7.53 3.13 13.31
1/28/2021 11:30:00 PM 2.1 35.78 0.383 7.53 3.15 13.3
1/28/2021 11:45:00 PM 2.06 35.708 0.383 7.52 3.37 13.21
1/29/2021 12:00:00 AM 2.04 35.672 0.383 7.52 3.84 13.29
1/29/2021 12:15:00 AM 1.76 35.168 0.334 6.51 3.33 11.49
1/29/2021 12:30:00 AM 1.97 35.546 0.377 7.38 3.67 13.05
1/29/2021 12:45:00 AM 1.71 35.078 0.334 6.51 2.84 11.55
1/29/2021 1:00:00 AM 1.91 35.438 0.378 7.37 3.3 13.05
1/29/2021 1:15:00 AM 1.91 35.438 0.384 7.49 3.31 13.26
1/29/2021 1:30:00 AM 1.89 35.402 0.386 7.5 3.23 13.29
1/29/2021 1:45:00 AM 1.84 35.312 0.387 7.5 3.26 13.27
1/29/2021 2:00:00 AM 1.81 35.258 0.387 7.5 3.2 13.2
1/29/2021 2:15:00 AM 1.78 35.204 0.388 7.49 3.24 13.17
1/29/2021 2:30:00 AM 1.74 35.132 0.388 7.49 3.21 13.28
1/29/2021 2:45:00 AM 1.7 35.06 0.388 7.49 3.32 13.31
1/29/2021 3:00:00 AM 1.68 35.024 0.388 7.49 3.21 13.36
1/29/2021 3:15:00 AM 1.45 34.61 0.338 6.5 2.84 11.54
1/29/2021 3:30:00 AM 1.43 34.574 0.338 6.49 2.59 11.52
1/29/2021 3:45:00 AM 1.62 34.916 0.383 7.35 2.8 12.98
1/29/2021 4:00:00 AM 1.63 34.934 0.379 7.47 2.98 13.28
1/29/2021 4:15:00 AM 1.39 34.502 0.339 6.52 2.48 11.61
1/29/2021 4:30:00 AM 1.53 34.754 0.382 7.35 2.89 13.08
1/29/2021 4:45:00 AM 1.5 34.7 0.387 7.47 2.9 13.31
1/29/2021 5:00:00 AM 1.45 34.61 0.388 7.48 2.96 13.4
1/29/2021 5:15:00 AM 1.41 34.538 0.389 7.48 2.97 13.36
1/29/2021 5:30:00 AM 1.37 34.466 0.389 7.49 3.06 13.42
1/29/2021 5:45:00 AM 1.33 34.394 0.389 7.49 3.14 13.43
1/29/2021 6:00:00 AM 1.13 34.034 0.339 6.49 2.56 11.66
1/29/2021 6:15:00 AM 1.26 34.268 0.384 7.35 2.94 13.22
1/29/2021 6:30:00 AM 1.08 33.944 0.34 6.49 2.58 11.67
1/29/2021 6:45:00 AM 1.2 34.16 0.385 7.35 3.15 13.23
1/29/2021 7:00:00 AM 1.04 33.872 0.342 6.49 2.79 11.68
1/29/2021 7:15:00 AM 1.04 33.872 0.343 6.48 2.65 11.62
1/29/2021 7:30:00 AM 1.16 34.088 0.389 7.35 3.04 13.12
1/29/2021 7:45:00 AM 1.18 34.124 0.396 7.47 3.26 13.39
1/29/2021 8:00:00 AM 1.04 33.872 0.347 6.51 2.7 11.82
1/29/2021 8:15:00 AM 1.19 34.142 0.394 7.38 3.09 13.43
1/29/2021 8:30:00 AM 1.05 33.89 0.35 6.53 2.6 12.12
1/29/2021 8:45:00 AM 1.21 34.178 0.396 7.41 3.05 13.74
1/29/2021 9:00:00 AM 1.27 34.286 0.403 7.55 3.08 14.11
1/29/2021 9:15:00 AM 1.31 34.358 0.406 7.59 3.16 14.47
1/29/2021 9:30:00 AM 1.37 34.466 0.407 7.62 3.34 14.71
1/29/2021 9:45:00 AM 1.45 34.61 0.408 7.64 3.3 14.75
1/29/2021 10:00:00 AM 1.54 34.772 0.41 7.66 3.41 14.98
1/29/2021 10:15:00 AM 1.67 35.006 0.412 7.69 3.38 15.09
1/29/2021 10:30:00 AM 1.8 35.24 0.413 7.71 3.24 15.19
1/29/2021 10:45:00 AM 1.89 35.402 0.415 7.72 3.38 15.09
1/29/2021 11:00:00 AM 2.06 35.708 0.417 7.74 3.38 15.26
1/29/2021 11:15:00 AM 2.25 36.05 0.418 7.75 3.51 15.32
1/29/2021 11:30:00 AM 2.46 36.428 0.42 7.75 3.63 15.33
1/29/2021 11:45:00 AM 2.68 36.824 0.421 7.75 3.5 15.21
1/29/2021 12:00:00 PM 2.79 37.022 0.422 7.75 3.33 15.26
1/29/2021 12:15:00 PM 2.91 37.238 0.42 7.75 3.33 15.26
1/29/2021 12:30:00 PM 2.97 37.346 0.418 7.75 3.55 15.38
1/29/2021 12:45:00 PM 2.96 37.328 0.414 7.76 3.57 15.23
1/29/2021 1:00:00 PM 2.9 37.22 0.411 7.77 3.92 15.4
1/29/2021 1:15:00 PM 2.84 37.112 0.408 7.77 3.93 15.41
1/29/2021 1:30:00 PM 2.71 36.878 0.404 7.77 4.03 15.46
1/29/2021 1:45:00 PM 2.53 36.554 0.4 7.77 4.07 15.49
1/29/2021 2:00:00 PM 1.97 35.546 0.344 6.76 3.58 13.45
1/29/2021 2:15:00 PM 1.83 35.294 0.341 6.77 3.45 13.49
1/29/2021 2:30:00 PM 1.97 35.546 0.383 7.69 3.91 15.18
1/29/2021 2:45:00 PM 1.9 35.42 0.387 7.83 3.91 15.42
1/29/2021 3:00:00 PM 1.87 35.366 0.387 7.86 3.9 15.56
1/29/2021 3:15:00 PM 1.84 35.312 0.386 7.86 4 15.57
1/29/2021 3:30:00 PM 1.84 35.312 0.384 7.86 3.9 15.43
1/29/2021 3:45:00 PM 1.84 35.312 0.383 7.85 3.77 15.45
1/29/2021 4:00:00 PM 1.61 34.898 0.333 6.8 3.43 13.37
1/29/2021 4:15:00 PM 1.82 35.276 0.375 7.68 3.8 15.03
1/29/2021 4:30:00 PM 1.86 35.348 0.38 7.77 4.04 15.15
1/29/2021 4:45:00 PM 1.88 35.384 0.38 7.77 3.95 15.09
1/29/2021 5:00:00 PM 1.89 35.402 0.379 7.74 3.98 14.93
1/29/2021 5:15:00 PM 1.89 35.402 0.379 7.72 3.95 14.75
1/29/2021 5:30:00 PM 1.88 35.384 0.379 7.69 3.95 14.51
1/29/2021 5:45:00 PM 1.87 35.366 0.38 7.67 4.07 14.35
1/29/2021 6:00:00 PM 1.86 35.348 0.38 7.65 3.93 14.27
1/29/2021 6:15:00 PM 1.84 35.312 0.381 7.63 3.95 14.3
1/29/2021 6:30:00 PM 1.59 34.862 0.333 6.61 3.39 12.33
1/29/2021 6:45:00 PM 1.8 35.24 0.376 7.48 3.78 13.91
1/29/2021 7:00:00 PM 1.6 34.88 0.336 6.62 3.47 12.3
1/29/2021 7:15:00 PM 1.8 35.24 0.378 7.47 3.84 13.83
1/29/2021 7:30:00 PM 1.83 35.294 0.384 7.58 3.92 13.87
1/29/2021 7:45:00 PM 1.59 34.862 0.335 6.58 3.45 12.09
1/29/2021 8:00:00 PM 1.8 35.24 0.379 7.45 3.99 13.71
1/29/2021 8:15:00 PM 1.58 34.844 0.336 6.57 3.49 12.09
1/29/2021 8:30:00 PM 1.78 35.204 0.38 7.43 4.03 13.52
1/29/2021 8:45:00 PM 1.79 35.222 0.387 7.55 3.93 13.81
1/29/2021 9:00:00 PM 1.77 35.186 0.388 7.57 4.1 13.83
1/29/2021 9:15:00 PM 1.75 35.15 0.389 7.56 3.87 13.81
1/29/2021 9:30:00 PM 1.73 35.114 0.389 7.55 3.75 13.8
1/29/2021 9:45:00 PM 1.48 34.664 0.339 6.54 3.13 11.9
1/29/2021 10:00:00 PM 1.67 35.006 0.383 7.41 3.64 13.4
1/29/2021 10:15:00 PM 1.46 34.628 0.339 6.54 3.33 11.88
1/29/2021 10:30:00 PM 1.65 34.97 0.384 7.4 3.71 13.35
1/29/2021 10:45:00 PM 1.67 35.006 0.39 7.51 3.62 13.65
1/29/2021 11:00:00 PM 1.44 34.592 0.34 6.53 3.05 11.87
1/29/2021 11:15:00 PM 1.62 34.916 0.385 7.39 3.46 13.43
1/29/2021 11:30:00 PM 1.42 34.556 0.341 6.52 3.12 11.89
1/29/2021 11:45:00 PM 1.6 34.88 0.385 7.38 3.5 13.4
1/30/2021 12:00:00 AM 1.4 34.52 0.341 6.51 3 11.81
1/30/2021 12:15:00 AM 1.57 34.826 0.385 7.38 3.46 13.37
1/30/2021 12:30:00 AM 1.59 34.862 0.391 7.49 3.51 13.57
1/30/2021 12:45:00 AM 1.59 34.862 0.392 7.51 3.68 13.59
1/30/2021 1:00:00 AM 1.6 34.88 0.392 7.5 3.7 13.58
1/30/2021 1:15:00 AM 1.62 34.916 0.392 7.51 3.5 13.48
1/30/2021 1:30:00 AM 1.62 34.916 0.392 7.5 3.43 13.58
1/30/2021 1:45:00 AM 1.41 34.538 0.341 6.51 3.13 11.71
1/30/2021 2:00:00 AM 1.42 34.556 0.341 6.49 3.37 11.68
1/30/2021 2:15:00 AM 1.6 34.88 0.385 7.36 3.88 13.31
1/30/2021 2:30:00 AM 1.63 34.934 0.391 7.48 3.79 13.45
1/30/2021 2:45:00 AM 1.62 34.916 0.392 7.49 3.55 13.38
1/30/2021 3:00:00 AM 1.62 34.916 0.392 7.49 3.6 13.47
1/30/2021 3:15:00 AM 1.62 34.916 0.392 7.49 3.46 13.36
1/30/2021 3:30:00 AM 1.61 34.898 0.392 7.49 3.7 13.45
1/30/2021 3:45:00 AM 1.61 34.898 0.392 7.48 3.56 13.51
1/30/2021 4:00:00 AM 1.38 34.484 0.34 6.49 2.97 11.67
1/30/2021 4:15:00 AM 1.56 34.808 0.385 7.35 3.41 13.22
1/30/2021 4:30:00 AM 1.37 34.466 0.341 6.49 2.91 11.64
1/30/2021 4:45:00 AM 1.54 34.772 0.385 7.34 3.29 13.07
1/30/2021 5:00:00 AM 1.55 34.79 0.39 7.46 3.44 13.27
1/30/2021 5:15:00 AM 1.54 34.772 0.392 7.47 3.45 13.42
1/30/2021 5:30:00 AM 1.53 34.754 0.392 7.48 3.49 13.44
1/30/2021 5:45:00 AM 1.49 34.682 0.392 7.48 3.48 13.46
1/30/2021 6:00:00 AM 1.46 34.628 0.392 7.47 3.35 13.45
1/30/2021 6:15:00 AM 1.41 34.538 0.392 7.47 3.3 13.47
1/30/2021 6:30:00 AM 1.37 34.466 0.392 7.48 3.46 13.53
1/30/2021 6:45:00 AM 1.15 34.07 0.341 6.48 2.96 11.74
1/30/2021 7:00:00 AM 1.12 34.016 0.341 6.49 2.86 11.72
1/30/2021 7:15:00 AM 1.24 34.232 0.386 7.34 3.24 13.29
1/30/2021 7:30:00 AM 1.23 34.214 0.391 7.46 3.28 13.45
1/30/2021 7:45:00 AM 1.22 34.196 0.393 7.48 3.26 13.67
1/30/2021 8:00:00 AM 1.21 34.178 0.392 7.49 3.86 13.75
1/30/2021 8:15:00 AM 1.05 33.89 0.341 6.51 3.25 12.05
1/30/2021 8:30:00 AM 1.22 34.196 0.386 7.39 3.43 13.81
1/30/2021 8:45:00 AM 1.27 34.286 0.392 7.53 3.39 14.17
1/30/2021 9:00:00 AM 1.32 34.376 0.392 7.57 3.57 14.42
1/30/2021 9:15:00 AM 1.39 34.502 0.392 7.6 3.77 14.61
1/30/2021 9:30:00 AM 1.45 34.61 0.392 7.62 3.76 14.71
1/30/2021 9:45:00 AM 1.53 34.754 0.392 7.64 4.4 14.89
1/30/2021 10:00:00 AM 1.61 34.898 0.392 7.66 4.14 14.94
1/30/2021 10:15:00 AM 1.71 35.078 0.392 7.68 3.94 14.96
1/30/2021 10:30:00 AM 1.83 35.294 0.392 7.7 3.79 14.98
1/30/2021 10:45:00 AM 1.97 35.546 0.392 7.72 3.67 15.18
1/30/2021 11:00:00 AM 2.12 35.816 0.392 7.74 3.8 15.24
1/30/2021 11:15:00 AM 2.28 36.104 0.392 7.75 3.58 15.16
1/30/2021 11:30:00 AM 2.43 36.374 0.393 7.76 3.35 15.31
1/30/2021 11:45:00 AM 2.27 36.086 0.342 6.74 2.82 13.35
1/30/2021 12:00:00 PM 2.7 36.86 0.387 7.64 3.24 15.1
1/30/2021 12:15:00 PM 2.52 36.536 0.342 6.74 2.78 13.3
1/30/2021 12:30:00 PM 2.97 37.346 0.387 7.65 3.31 15.12
1/30/2021 12:45:00 PM 2.76 36.968 0.343 6.76 2.85 13.29
1/30/2021 1:00:00 PM 3.2 37.76 0.388 7.66 3.36 15.1
1/30/2021 1:15:00 PM 2.89 37.202 0.343 6.76 2.95 13.32
1/30/2021 1:30:00 PM 3.32 37.976 0.387 7.66 3.26 15.01
1/30/2021 1:45:00 PM 3.39 38.102 0.393 7.79 3.44 15.19
1/30/2021 2:00:00 PM 3.37 38.066 0.393 7.81 3.14 15.36
1/30/2021 2:15:00 PM 2.88 37.184 0.341 6.78 2.83 13.36
1/30/2021 2:30:00 PM 3.2 37.76 0.385 7.68 3.31 15.13
1/30/2021 2:45:00 PM 3.17 37.706 0.389 7.8 3.95 15.2
1/30/2021 3:00:00 PM 3.1 37.58 0.389 7.83 4.18 15.37
1/30/2021 3:15:00 PM 2.6 36.68 0.337 6.78 3.15 13.29
1/30/2021 3:30:00 PM 2.89 37.202 0.38 7.69 3.77 14.91
1/30/2021 3:45:00 PM 2.89 37.202 0.385 7.81 4.05 15.1
1/30/2021 4:00:00 PM 2.84 37.112 0.385 7.82 4.6 15.2
1/30/2021 4:15:00 PM 2.81 37.058 0.385 7.81 4.42 15.09
1/30/2021 4:30:00 PM 2.77 36.986 0.384 7.8 3.92 14.98
1/30/2021 4:45:00 PM 2.75 36.95 0.384 7.78 3.43 14.88
1/30/2021 5:00:00 PM 2.37 36.266 0.335 6.73 2.71 12.74
1/30/2021 5:15:00 PM 2.67 36.806 0.379 7.6 3.21 14.34
1/30/2021 5:30:00 PM 2.69 36.842 0.385 7.69 3.32 14.41
1/30/2021 5:45:00 PM 2.68 36.824 0.386 7.68 3.34 14.15
1/30/2021 6:00:00 PM 2.66 36.788 0.386 7.66 3.28 14.06
1/30/2021 6:15:00 PM 2.63 36.734 0.386 7.64 3.33 13.98
1/30/2021 6:30:00 PM 2.6 36.68 0.386 7.62 3.34 13.91
1/30/2021 6:45:00 PM 2.22 35.996 0.336 6.6 2.96 11.97
1/30/2021 7:00:00 PM 2.19 35.942 0.336 6.6 2.89 11.92
1/30/2021 7:15:00 PM 2.44 36.392 0.379 7.46 3.38 13.38
1/30/2021 7:30:00 PM 2.44 36.392 0.385 7.57 3.73 13.64
1/30/2021 7:45:00 PM 2.4 36.32 0.385 7.58 3.6 13.66
1/30/2021 8:00:00 PM 2.35 36.23 0.386 7.58 3.51 13.65
1/30/2021 8:15:00 PM 1.99 35.582 0.336 6.57 3.14 11.79
1/30/2021 8:30:00 PM 2.21 35.978 0.379 7.43 4.1 13.39
1/30/2021 8:45:00 PM 1.91 35.438 0.336 6.56 3.02 11.8
1/30/2021 9:00:00 PM 1.87 35.366 0.336 6.56 2.97 11.78
1/30/2021 9:15:00 PM 2.08 35.744 0.379 7.41 3.36 13.31
1/30/2021 9:30:00 PM 2.06 35.708 0.386 7.53 3.48 13.5
1/30/2021 9:45:00 PM 2.01 35.618 0.386 7.54 3.46 13.57
1/30/2021 10:00:00 PM 1.97 35.546 0.387 7.54 3.76 13.52
1/30/2021 10:15:00 PM 1.66 34.988 0.337 6.53 3.06 11.69
1/30/2021 10:30:00 PM 1.85 35.33 0.38 7.39 3.49 13.25
1/30/2021 10:45:00 PM 1.61 34.898 0.337 6.52 2.99 11.72
1/30/2021 11:00:00 PM 1.8 35.24 0.381 7.38 3.47 13.26
1/30/2021 11:15:00 PM 1.81 35.258 0.388 7.49 3.51 13.34
1/30/2021 11:30:00 PM 1.81 35.258 0.389 7.51 3.49 13.45
1/30/2021 11:45:00 PM 1.8 35.24 0.389 7.5 3.38 13.34
1/31/2021 12:00:00 AM 1.8 35.24 0.39 7.5 3.39 13.41
1/31/2021 12:15:00 AM 1.8 35.24 0.39 7.5 3.35 13.29
1/31/2021 12:30:00 AM 1.8 35.24 0.39 7.49 3.31 13.27
1/31/2021 12:45:00 AM 1.8 35.24 0.39 7.49 3.3 13.35
1/31/2021 1:00:00 AM 1.57 34.826 0.34 6.49 2.89 11.55
1/31/2021 1:15:00 AM 1.79 35.222 0.383 7.35 3.46 13.07
1/31/2021 1:30:00 AM 1.82 35.276 0.389 7.46 3.52 13.17
1/31/2021 1:45:00 AM 1.6 34.88 0.339 6.48 2.84 11.56
1/31/2021 2:00:00 AM 1.82 35.276 0.383 7.35 3.24 13.08
1/31/2021 2:15:00 AM 1.61 34.898 0.339 6.49 2.79 11.52
1/31/2021 2:30:00 AM 1.83 35.294 0.383 7.34 3.28 13.04
1/31/2021 2:45:00 AM 1.86 35.348 0.388 7.46 3.43 13.26
1/31/2021 3:00:00 AM 1.86 35.348 0.389 7.47 3.39 13.27
1/31/2021 3:15:00 AM 1.87 35.366 0.389 7.47 3.41 13.25
1/31/2021 3:30:00 AM 1.86 35.348 0.389 7.47 3.44 13.28
1/31/2021 3:45:00 AM 1.61 34.898 0.338 6.48 2.86 11.48
1/31/2021 4:00:00 AM 1.6 34.88 0.337 6.47 2.83 11.51
1/31/2021 4:15:00 AM 1.81 35.258 0.381 7.33 3.29 13.05
1/31/2021 4:30:00 AM 1.83 35.294 0.387 7.45 3.47 13.12
1/31/2021 4:45:00 AM 1.59 34.862 0.338 6.48 2.93 11.45
1/31/2021 5:00:00 AM 1.8 35.24 0.381 7.33 3.43 12.9
1/31/2021 5:15:00 AM 1.82 35.276 0.387 7.45 3.53 13.22
1/31/2021 5:30:00 AM 1.82 35.276 0.388 7.46 3.45 13.22
1/31/2021 5:45:00 AM 1.58 34.844 0.337 6.47 3.1 11.47
1/31/2021 6:00:00 AM 1.58 34.844 0.337 6.47 2.96 11.44
1/31/2021 6:15:00 AM 1.79 35.222 0.381 7.33 3.6 12.98
1/31/2021 6:30:00 AM 1.57 34.826 0.337 6.47 3.03 11.45
1/31/2021 6:45:00 AM 1.78 35.204 0.381 7.33 3.57 13
1/31/2021 7:00:00 AM 1.81 35.258 0.387 7.44 3.64 13.16
1/31/2021 7:15:00 AM 1.81 35.258 0.388 7.46 3.61 13.21
1/31/2021 7:30:00 AM 1.8 35.24 0.388 7.46 3.48 13.13
1/31/2021 7:45:00 AM 1.8 35.24 0.388 7.47 3.97 13.25
1/31/2021 8:00:00 AM 1.8 35.24 0.388 7.47 4.17 13.18
1/31/2021 8:15:00 AM 1.8 35.24 0.388 7.48 3.81 13.28
1/31/2021 8:30:00 AM 1.82 35.276 0.388 7.49 4.72 13.42
1/31/2021 8:45:00 AM 1.83 35.294 0.388 7.51 4.07 13.61
1/31/2021 9:00:00 AM 1.85 35.33 0.388 7.53 4.03 13.84
1/31/2021 9:15:00 AM 1.62 34.916 0.337 6.54 2.93 12.23
1/31/2021 9:30:00 AM 1.85 35.33 0.38 7.43 3.41 13.95
1/31/2021 9:45:00 AM 1.89 35.402 0.386 7.57 3.23 14.26
1/31/2021 10:00:00 AM 1.64 34.952 0.336 6.59 2.7 12.49
1/31/2021 10:15:00 AM 1.87 35.366 0.379 7.48 3.08 14.13
1/31/2021 10:30:00 AM 1.9 35.42 0.385 7.62 3.04 14.57
1/31/2021 10:45:00 AM 1.65 34.97 0.336 6.64 2.53 12.75
1/31/2021 11:00:00 AM 1.88 35.384 0.379 7.54 2.89 14.49
1/31/2021 11:15:00 AM 1.68 35.024 0.335 6.66 2.61 12.97
1/31/2021 11:30:00 AM 1.89 35.402 0.378 7.56 3.09 14.55
1/31/2021 11:45:00 AM 1.91 35.438 0.384 7.69 3.12 14.95
1/31/2021 12:00:00 PM 1.68 35.024 0.335 6.71 2.68 13.08
1/31/2021 12:15:00 PM 1.89 35.402 0.377 7.6 3.16 14.79
1/31/2021 12:30:00 PM 1.94 35.492 0.383 7.73 3.15 15.05
1/31/2021 12:45:00 PM 1.96 35.528 0.384 7.75 3.28 15.1
1/31/2021 1:00:00 PM 1.98 35.564 0.383 7.77 3.33 15.24
1/31/2021 1:15:00 PM 1.98 35.564 0.383 7.78 3.32 15.18
1/31/2021 1:30:00 PM 2 35.6 0.383 7.79 3.32 15.38
1/31/2021 1:45:00 PM 1.77 35.186 0.333 6.77 2.81 13.37
1/31/2021 2:00:00 PM 2.01 35.618 0.375 7.68 3.36 15.3
1/31/2021 2:15:00 PM 2 35.6 0.381 7.81 3.34 15.5
1/31/2021 2:30:00 PM 1.96 35.528 0.381 7.84 3.45 15.44
1/31/2021 2:45:00 PM 1.9 35.42 0.381 7.84 3.4 15.53
1/31/2021 3:00:00 PM 1.58 34.844 0.331 6.8 2.9 13.5
1/31/2021 3:15:00 PM 1.72 35.096 0.374 7.7 3.43 15.2
1/31/2021 3:30:00 PM 1.44 34.592 0.331 6.79 2.9 13.4
1/31/2021 3:45:00 PM 1.41 34.538 0.331 6.78 2.77 13.39
1/31/2021 4:00:00 PM 1.4 34.52 0.33 6.78 2.76 13.34
1/31/2021 4:15:00 PM 1.59 34.862 0.374 7.67 3.16 15.06
1/31/2021 4:30:00 PM 1.61 34.898 0.38 7.77 3.21 15.1
1/31/2021 4:45:00 PM 1.36 34.448 0.331 6.74 2.71 13.04
1/31/2021 5:00:00 PM 1.53 34.754 0.374 7.6 3.19 14.68
1/31/2021 5:15:00 PM 1.54 34.772 0.38 7.7 3.29 14.77
1/31/2021 5:30:00 PM 1.3 34.34 0.331 6.67 2.81 12.67
1/31/2021 5:45:00 PM 1.29 34.322 0.332 6.65 2.85 12.56
1/31/2021 6:00:00 PM 1.44 34.592 0.374 7.51 3.27 14.1
1/31/2021 6:15:00 PM 1.42 34.556 0.38 7.61 3.4 14.17
1/31/2021 6:30:00 PM 1.21 34.178 0.332 6.6 2.92 12.23
1/31/2021 6:45:00 PM 1.19 34.142 0.332 6.6 2.82 12.23
1/31/2021 7:00:00 PM 1.32 34.376 0.375 7.46 3.34 13.81
1/31/2021 7:15:00 PM 1.15 34.07 0.331 6.57 2.98 12.12
1/31/2021 7:30:00 PM 1.13 34.034 0.331 6.57 2.85 12.12
1/31/2021 7:45:00 PM 1.1 33.98 0.332 6.57 2.88 12.12
1/31/2021 8:00:00 PM 1.21 34.178 0.374 7.44 3.35 13.69
1/31/2021 8:15:00 PM 1.21 34.178 0.38 7.56 3.43 13.9
1/31/2021 8:30:00 PM 1.17 34.106 0.381 7.57 3.44 13.94
1/31/2021 8:45:00 PM 1.14 34.052 0.38 7.56 3.35 13.86
1/31/2021 9:00:00 PM 1.13 34.034 0.38 7.56 3.35 13.94
1/31/2021 9:15:00 PM 1.08 33.944 0.38 7.56 3.44 13.79
1/31/2021 9:30:00 PM 1.04 33.872 0.38 7.56 3.37 13.74
1/31/2021 9:45:00 PM 1.03 33.854 0.38 7.55 3.37 13.83
1/31/2021 10:00:00 PM 0.9 33.62 0.33 6.54 2.78 11.97
1/31/2021 10:15:00 PM 0.92 33.656 0.33 6.54 2.94 11.95
1/31/2021 10:30:00 PM 1.08 33.944 0.373 7.4 3.38 13.37
1/31/2021 10:45:00 PM 1.11 33.998 0.379 7.51 3.37 13.65
1/31/2021 11:00:00 PM 0.99 33.782 0.331 6.52 2.78 11.84
1/31/2021 11:15:00 PM 1.14 34.052 0.374 7.39 3.35 13.4
1/31/2021 11:30:00 PM 1.17 34.106 0.38 7.5 3.58 13.47
1/31/2021 11:45:00 PM 1.03 33.854 0.332 6.51 3.41 11.75
2/1/2021 12:00:00 AM 1.01 33.818 0.332 6.51 3.19 11.75
2/1/2021 12:15:00 AM 1.14 34.052 0.376 7.37 3.55 13.3
2/1/2021 12:30:00 AM 1.15 34.07 0.382 7.49 3.52 13.43
2/1/2021 12:45:00 AM 1.01 33.818 0.333 6.51 2.86 11.72
2/1/2021 1:00:00 AM 1.03 33.854 0.334 6.5 2.74 11.68
2/1/2021 1:15:00 AM 1.18 34.124 0.378 7.36 3.16 13.24
2/1/2021 1:30:00 AM 1.06 33.908 0.335 6.5 2.8 11.62
2/1/2021 1:45:00 AM 1.21 34.178 0.378 7.36 3.31 13.19
2/1/2021 2:00:00 AM 1.25 34.25 0.384 7.47 3.39 13.27
2/1/2021 2:15:00 AM 1.27 34.286 0.385 7.49 3.52 13.23
2/1/2021 2:30:00 AM 1.29 34.322 0.386 7.49 3.7 13.38
2/1/2021 2:45:00 AM 1.13 34.034 0.336 6.5 3.87 11.57
2/1/2021 3:00:00 AM 1.13 34.034 0.335 6.48 3.12 11.55
2/1/2021 3:15:00 AM 1.25 34.25 0.378 7.35 3.7 13.1
2/1/2021 3:30:00 AM 1.08 33.944 0.335 6.48 3.12 11.52
2/1/2021 3:45:00 AM 1.06 33.908 0.334 6.48 3.06 11.57
2/1/2021 4:00:00 AM 1.19 34.142 0.377 7.34 3.4 13.11
2/1/2021 4:15:00 AM 1.21 34.178 0.383 7.46 3.44 13.3
2/1/2021 4:30:00 AM 1.21 34.178 0.384 7.47 3.59 13.36
2/1/2021 4:45:00 AM 1.23 34.214 0.384 7.48 3.83 13.37
2/1/2021 5:00:00 AM 1.23 34.214 0.384 7.47 5.45 13.21
2/1/2021 5:15:00 AM 1.22 34.196 0.384 7.47 5.27 13.2
2/1/2021 5:30:00 AM 1.19 34.142 0.384 7.48 4.38 13.29
2/1/2021 5:45:00 AM 0.98 33.764 0.333 6.48 3.19 11.54
2/1/2021 6:00:00 AM 1.08 33.944 0.376 7.34 3.41 12.97
2/1/2021 6:15:00 AM 1.09 33.962 0.383 7.46 3.43 13.26
2/1/2021 6:30:00 AM 0.97 33.746 0.333 6.48 3.02 11.58
2/1/2021 6:45:00 AM 1.13 34.034 0.377 7.34 3.4 13.11
2/1/2021 7:00:00 AM 1.18 34.124 0.383 7.46 3.54 13.19
2/1/2021 7:15:00 AM 1.21 34.178 0.384 7.47 4.4 13.27
2/1/2021 7:30:00 AM 1.2 34.16 0.384 7.48 4.54 13.31
2/1/2021 7:45:00 AM 1.18 34.124 0.384 7.48 6.13 13.23
2/1/2021 8:00:00 AM 1.19 34.142 0.384 7.5 4.49 13.49
2/1/2021 8:15:00 AM 1.2 34.16 0.383 7.51 3.83 13.71
2/1/2021 8:30:00 AM 1.09 33.962 0.333 6.54 3.11 12.07
2/1/2021 8:45:00 AM 1.26 34.268 0.376 7.43 3.71 13.84
2/1/2021 9:00:00 AM 1.33 34.394 0.381 7.58 3.73 14.33
2/1/2021 9:15:00 AM 1.19 34.142 0.332 6.61 3.1 12.65
2/1/2021 9:30:00 AM 1.39 34.502 0.375 7.51 3.66 14.44
2/1/2021 9:45:00 AM 1.45 34.61 0.381 7.66 3.87 14.64
2/1/2021 10:00:00 AM 1.5 34.7 0.382 7.7 3.8 15
2/1/2021 10:15:00 AM 1.54 34.772 0.382 7.72 3.79 15.1
2/1/2021 10:30:00 AM 1.58 34.844 0.381 7.74 3.77 15.19
2/1/2021 10:45:00 AM 1.41 34.538 0.331 6.72 3.21 13.24
2/1/2021 11:00:00 AM 1.45 34.61 0.33 6.74 3.27 13.25
2/1/2021 11:15:00 AM 1.48 34.664 0.33 6.74 3.42 13.27
2/1/2021 11:30:00 AM 1.51 34.718 0.329 6.75 3.49 13.28
2/1/2021 11:45:00 AM 1.73 35.114 0.372 7.67 3.8 14.99
2/1/2021 12:00:00 PM 1.78 35.204 0.377 7.8 3.8 15.39
2/1/2021 12:15:00 PM 1.75 35.15 0.377 7.83 3.66 15.34
2/1/2021 12:30:00 PM 1.7 35.06 0.376 7.85 3.79 15.42
2/1/2021 12:45:00 PM 1.62 34.916 0.376 7.85 3.82 15.61
2/1/2021 1:00:00 PM 1.24 34.232 0.326 6.81 3.21 13.53
2/1/2021 1:15:00 PM 1.28 34.304 0.369 7.72 3.75 15.18
2/1/2021 1:30:00 PM 1.14 34.052 0.375 7.84 4.01 15.41
2/1/2021 1:45:00 PM 0.93 33.674 0.376 7.85 4.08 15.53
2/1/2021 2:00:00 PM 0.64 33.152 0.327 6.82 3.64 13.5
2/1/2021 2:15:00 PM 0.53 32.954 0.326 6.81 3.37 13.45
2/1/2021 2:30:00 PM 0.44 32.792 0.326 6.81 3.44 13.38
2/1/2021 2:45:00 PM 0.51 32.918 0.369 7.71 3.94 15.19
2/1/2021 3:00:00 PM 0.55 32.99 0.374 7.83 4 15.42
2/1/2021 3:15:00 PM 0.59 33.062 0.326 6.82 3.5 13.43
2/1/2021 3:30:00 PM 0.79 33.422 0.366 7.72 3.99 15.24
2/1/2021 3:45:00 PM 0.83 33.494 0.371 7.83 4.09 15.42
2/1/2021 4:00:00 PM 0.67 33.206 0.322 6.81 3.82 13.25
2/1/2021 4:15:00 PM 0.57 33.026 0.321 6.78 3.76 13.2
2/1/2021 4:30:00 PM 0.48 32.864 0.361 7.66 4.43 14.77
2/1/2021 4:45:00 PM 0.35 32.63 0.366 7.76 4.47 14.92
2/1/2021 5:00:00 PM 0.24 32.432 0.319 6.72 3.64 13.02
2/1/2021 5:15:00 PM 0.28 32.504 0.36 7.59 3.94 14.63
2/1/2021 5:30:00 PM 0.33 32.594 0.367 7.69 4.02 14.71
2/1/2021 5:45:00 PM 0.39 32.702 0.322 6.66 3.73 12.64
2/1/2021 6:00:00 PM 0.5 32.9 0.323 6.64 3.6 12.55
2/1/2021 6:15:00 PM 0.67 33.206 0.367 7.51 4.3 14.13
2/1/2021 6:30:00 PM 0.81 33.458 0.373 7.61 4.19 14.08
2/1/2021 6:45:00 PM 0.91 33.638 0.374 7.61 3.94 13.97
2/1/2021 7:00:00 PM 0.94 33.692 0.375 7.6 3.96 13.93
2/1/2021 7:15:00 PM 0.93 33.674 0.375 7.58 3.95 13.85
2/1/2021 7:30:00 PM 0.79 33.422 0.375 7.58 3.88 13.77
2/1/2021 7:45:00 PM 0.7 33.26 0.375 7.57 3.89 13.86
2/1/2021 8:00:00 PM 0.6 33.08 0.375 7.56 3.86 13.87
2/1/2021 8:15:00 PM 0.57 33.026 0.376 7.56 3.85 13.88
2/1/2021 8:30:00 PM 0.56 33.008 0.328 6.55 3.32 12.02
2/1/2021 8:45:00 PM 0.65 33.17 0.327 6.55 3.52 12.03
2/1/2021 9:00:00 PM 0.74 33.332 0.328 6.55 3.71 11.93
2/1/2021 9:15:00 PM 0.82 33.476 0.328 6.54 4.02 11.99
2/1/2021 9:30:00 PM 1.01 33.818 0.37 7.4 4.64 13.38
2/1/2021 9:45:00 PM 1.12 34.016 0.376 7.51 4.83 13.62
2/1/2021 10:00:00 PM 1.22 34.196 0.378 7.52 4.87 13.59
2/1/2021 10:15:00 PM 1.16 34.088 0.33 6.52 4.17 11.71
2/1/2021 10:30:00 PM 1.4 34.52 0.374 7.38 4.48 13.18
2/1/2021 10:45:00 PM 1.5 34.7 0.382 7.49 4.82 13.23
2/1/2021 11:00:00 PM 1.58 34.844 0.384 7.5 4.85 13.3
2/1/2021 11:15:00 PM 1.65 34.97 0.385 7.49 4.72 13.21
2/1/2021 11:30:00 PM 1.49 34.682 0.336 6.5 4.02 11.46
2/1/2021 11:45:00 PM 1.71 35.078 0.38 7.35 4.6 12.85
2/2/2021 12:00:00 AM 1.77 35.186 0.387 7.47 4.57 12.99
2/2/2021 12:15:00 AM 1.56 34.808 0.338 6.48 3.83 11.37
2/2/2021 12:30:00 AM 1.77 35.186 0.383 7.35 4.29 12.87
2/2/2021 12:45:00 AM 1.58 34.844 0.34 6.48 3.67 11.4
2/2/2021 1:00:00 AM 1.8 35.24 0.385 7.35 4.17 12.84
2/2/2021 1:15:00 AM 1.82 35.276 0.39 7.46 4.22 12.94
2/2/2021 1:30:00 AM 1.82 35.276 0.39 7.47 4.22 12.95
2/2/2021 1:45:00 AM 1.79 35.222 0.389 7.47 4.26 13.03
2/2/2021 2:00:00 AM 1.76 35.168 0.388 7.47 4.22 12.94
2/2/2021 2:15:00 AM 1.49 34.682 0.336 6.48 3.78 11.35
2/2/2021 2:30:00 AM 1.64 34.952 0.378 7.34 4.2 12.77
2/2/2021 2:45:00 AM 1.41 34.538 0.333 6.48 3.78 11.37
2/2/2021 3:00:00 AM 1.38 34.484 0.331 6.48 3.8 11.39
2/2/2021 3:15:00 AM 1.52 34.736 0.373 7.34 4.41 12.95
2/2/2021 3:30:00 AM 1.5 34.7 0.378 7.45 4.41 13.11
2/2/2021 3:45:00 AM 1.45 34.61 0.377 7.47 4.59 13.19
2/2/2021 4:00:00 AM 1.4 34.52 0.376 7.47 4.57 13.21
2/2/2021 4:15:00 AM 1.36 34.448 0.375 7.47 4.82 13.14
2/2/2021 4:30:00 AM 1.13 34.034 0.326 6.49 4.28 11.47
2/2/2021 4:45:00 AM 1.24 34.232 0.367 7.34 4.91 13.01
2/2/2021 5:00:00 AM 1.22 34.196 0.371 7.46 5.04 13.27
2/2/2021 5:15:00 AM 1.19 34.142 0.371 7.47 5.12 13.31
2/2/2021 5:30:00 AM 1 33.8 0.321 6.48 4.31 11.54
2/2/2021 5:45:00 AM 0.98 33.764 0.32 6.48 4.45 11.59
2/2/2021 6:00:00 AM 1.09 33.962 0.361 7.34 5.16 13.11
2/2/2021 6:15:00 AM 0.95 33.71 0.319 6.48 4.66 11.53
2/2/2021 6:30:00 AM 1.06 33.908 0.36 7.34 5.5 13.11
2/2/2021 6:45:00 AM 1.06 33.908 0.365 7.46 5.86 13.29
2/2/2021 7:00:00 AM 1.05 33.89 0.365 7.47 5.8 13.23
2/2/2021 7:15:00 AM 1.04 33.872 0.365 7.47 5.46 13.34
2/2/2021 7:30:00 AM 1.04 33.872 0.364 7.48 5.57 13.29
2/2/2021 7:45:00 AM 1.05 33.89 0.364 7.48 6.24 13.46
2/2/2021 8:00:00 AM 1.07 33.926 0.364 7.5 5.55 13.5
2/2/2021 8:15:00 AM 1.1 33.98 0.364 7.51 5.27 13.78
2/2/2021 8:30:00 AM 1.15 34.07 0.364 7.54 5.06 13.96
2/2/2021 8:45:00 AM 1.19 34.142 0.364 7.57 5.24 14.18
2/2/2021 9:00:00 AM 1.1 33.98 0.316 6.59 4.41 12.52
2/2/2021 9:15:00 AM 1.31 34.358 0.358 7.49 5.12 14.33
2/2/2021 9:30:00 AM 1.23 34.214 0.317 6.64 4.39 12.76
2/2/2021 9:45:00 AM 1.45 34.61 0.357 7.55 5.47 14.63
2/2/2021 10:00:00 AM 1.33 34.394 0.317 6.68 5.31 12.96
2/2/2021 10:15:00 AM 1.56 34.808 0.358 7.58 5.74 14.75
2/2/2021 10:30:00 AM 1.63 34.934 0.363 7.72 6.03 15.09
2/2/2021 10:45:00 AM 1.69 35.042 0.363 7.75 6.55 15.03
2/2/2021 11:00:00 AM 1.77 35.186 0.363 7.76 6.1 15.19
2/2/2021 11:15:00 AM 1.85 35.33 0.363 7.78 9.05 15.23
2/2/2021 11:30:00 AM 1.69 35.042 0.316 6.76 4.98 13.28
2/2/2021 11:45:00 AM 2.01 35.618 0.356 7.67 4.78 15.07
2/2/2021 12:00:00 PM 2.12 35.816 0.361 7.8 4.48 15.2
2/2/2021 12:15:00 PM 2.18 35.924 0.362 7.83 4.39 15.26
2/2/2021 12:30:00 PM 2.22 35.996 0.361 7.85 4.44 15.44
2/2/2021 12:45:00 PM 1.97 35.546 0.314 6.81 3.73 13.41
2/2/2021 1:00:00 PM 2.25 36.05 0.354 7.73 4.24 15.1
2/2/2021 1:15:00 PM 2.26 36.068 0.359 7.86 4.16 15.46
2/2/2021 1:30:00 PM 2.27 36.086 0.359 7.89 4.1 15.57
2/2/2021 1:45:00 PM 1.96 35.528 0.312 6.86 3.61 13.43
2/2/2021 2:00:00 PM 2.21 35.978 0.351 7.77 4.05 15.18
2/2/2021 2:15:00 PM 2.23 36.014 0.356 7.9 4.14 15.49
2/2/2021 2:30:00 PM 2.21 35.978 0.357 7.92 4.2 15.53
2/2/2021 2:45:00 PM 1.89 35.402 0.31 6.87 3.52 13.46
2/2/2021 3:00:00 PM 2.15 35.87 0.35 7.79 3.97 15.11
2/2/2021 3:15:00 PM 2.19 35.942 0.355 7.93 4.16 15.49
2/2/2021 3:30:00 PM 2.19 35.942 0.356 7.94 4.25 15.48
2/2/2021 3:45:00 PM 2.18 35.924 0.356 7.93 4.24 15.29
2/2/2021 4:00:00 PM 2.17 35.906 0.356 7.92 4.3 15.35
2/2/2021 4:15:00 PM 2.15 35.87 0.356 7.91 4.32 15.27
2/2/2021 4:30:00 PM 2.14 35.852 0.357 7.88 4.34 15.01
2/2/2021 4:45:00 PM 2.12 35.816 0.357 7.85 4.12 14.88
2/2/2021 5:00:00 PM 2.09 35.762 0.357 7.82 4.06 14.83
2/2/2021 5:15:00 PM 2.06 35.708 0.357 7.78 4.17 14.67
2/2/2021 5:30:00 PM 2.02 35.636 0.358 7.73 4.23 14.32
2/2/2021 5:45:00 PM 1.99 35.582 0.359 7.69 3.9 12.36
2/2/2021 6:00:00 PM 1.97 35.546 0.358 7.67 4.17 13.75
2/2/2021 6:15:00 PM 1.96 35.528 0.358 7.65 4.18 13.97
2/2/2021 6:30:00 PM 1.94 35.492 0.359 7.63 4.34 13.89
2/2/2021 6:45:00 PM 1.92 35.456 0.359 7.61 4.39 13.73
2/2/2021 7:00:00 PM 1.9 35.42 0.359 7.6 4.26 13.76
2/2/2021 7:15:00 PM 1.63 34.934 0.312 6.58 3.85 11.91
2/2/2021 7:30:00 PM 1.83 35.294 0.353 7.45 5.12 13.5
2/2/2021 7:45:00 PM 1.83 35.294 0.358 7.56 5.28 13.57
2/2/2021 8:00:00 PM 1.81 35.258 0.359 7.57 5.13 13.65
2/2/2021 8:15:00 PM 1.78 35.204 0.359 7.57 5.23 13.55
2/2/2021 8:30:00 PM 1.74 35.132 0.359 7.56 5.55 13.63
2/2/2021 8:45:00 PM 1.47 34.646 0.313 6.54 4.62 11.79
2/2/2021 9:00:00 PM 1.64 34.952 0.353 7.41 4.95 13.35
2/2/2021 9:15:00 PM 1.42 34.556 0.313 6.54 3.81 11.77
2/2/2021 9:30:00 PM 1.58 34.844 0.353 7.4 4.31 13.32
2/2/2021 9:45:00 PM 1.59 34.862 0.359 7.52 4.61 13.51
2/2/2021 10:00:00 PM 1.57 34.826 0.36 7.53 4.41 13.51
2/2/2021 10:15:00 PM 1.56 34.808 0.36 7.52 4.9 13.44
2/2/2021 10:30:00 PM 1.54 34.772 0.36 7.52 4.86 13.31
2/2/2021 10:45:00 PM 1.52 34.736 0.36 7.51 4.71 13.43
2/2/2021 11:00:00 PM 1.5 34.7 0.36 7.51 4.23 13.39
2/2/2021 11:15:00 PM 1.29 34.322 0.314 6.51 3.66 11.6
2/2/2021 11:30:00 PM 1.45 34.61 0.355 7.37 4.38 13.18
2/2/2021 11:45:00 PM 1.46 34.628 0.36 7.48 4.44 13.22
2/3/2021 12:00:00 AM 1.46 34.628 0.361 7.49 4.6 13.36
2/3/2021 12:15:00 AM 1.45 34.61 0.361 7.49 4.81 13.32
2/3/2021 12:30:00 AM 1.26 34.268 0.314 6.49 3.86 11.5
2/3/2021 12:45:00 AM 1.43 34.574 0.356 7.35 4.28 12.94
2/3/2021 1:00:00 AM 1.45 34.61 0.361 7.46 4.23 13.13
2/3/2021 1:15:00 AM 1.45 34.61 0.362 7.48 4.38 13.28
2/3/2021 1:30:00 AM 1.46 34.628 0.362 7.48 4.48 13.28
2/3/2021 1:45:00 AM 1.46 34.628 0.362 7.47 4.31 13.28
2/3/2021 2:00:00 AM 1.47 34.646 0.362 7.47 4.14 13.24
2/3/2021 2:15:00 AM 1.47 34.646 0.362 7.47 4.06 13.22
2/3/2021 2:30:00 AM 1.49 34.682 0.363 7.47 4.07 13.11
2/3/2021 2:45:00 AM 1.49 34.682 0.363 7.47 3.91 13.15
2/3/2021 3:00:00 AM 1.51 34.718 0.363 7.47 3.93 13.06
2/3/2021 3:15:00 AM 1.52 34.736 0.363 7.47 4 13.04
2/3/2021 3:30:00 AM 1.52 34.736 0.363 7.47 4.14 13.18
2/3/2021 3:45:00 AM 1.53 34.754 0.364 7.47 4.03 13.14
2/3/2021 4:00:00 AM 1.33 34.394 0.317 6.47 3.23 11.37
2/3/2021 4:15:00 AM 1.51 34.718 0.357 7.33 5.1 12.85
2/3/2021 4:30:00 AM 1.54 34.772 0.363 7.44 5.18 13.04
2/3/2021 4:45:00 AM 1.33 34.394 0.316 6.46 4.38 11.37
2/3/2021 5:00:00 AM 1.52 34.736 0.358 7.33 4.1 12.88
2/3/2021 5:15:00 AM 1.54 34.772 0.364 7.44 3.93 13.09
2/3/2021 5:30:00 AM 1.34 34.412 0.317 6.46 3.25 11.36
2/3/2021 5:45:00 AM 1.36 34.448 0.319 6.49 3.01 11.43
2/3/2021 6:00:00 AM 1.54 34.772 0.359 7.32 3.37 12.76
2/3/2021 6:15:00 AM 1.56 34.808 0.364 7.44 3.46 13.01
2/3/2021 6:30:00 AM 1.57 34.826 0.365 7.45 3.69 13.08
2/3/2021 6:45:00 AM 1.58 34.844 0.365 7.45 3.8 12.95
2/3/2021 7:00:00 AM 1.58 34.844 0.365 7.45 3.7 13.06
2/3/2021 7:15:00 AM 1.37 34.466 0.318 6.47 3.46 11.31
2/3/2021 7:30:00 AM 1.56 34.808 0.359 7.33 4.58 12.91
2/3/2021 7:45:00 AM 1.39 34.502 0.318 6.47 7.76 11.41
2/3/2021 8:00:00 AM 1.59 34.862 0.359 7.34 6.68 13.08
2/3/2021 8:15:00 AM 1.65 34.97 0.365 7.48 4.16 13.49
2/3/2021 8:30:00 AM 1.67 35.006 0.365 7.52 3.78 13.57
2/3/2021 8:45:00 AM 1.71 35.078 0.366 7.55 3.66 13.93
2/3/2021 9:00:00 AM 1.52 34.736 0.318 6.58 3.03 12.34
2/3/2021 9:15:00 AM 1.78 35.204 0.359 7.49 3.46 14.02
2/3/2021 9:30:00 AM 1.86 35.348 0.364 7.64 3.71 14.58
2/3/2021 9:45:00 AM 1.96 35.528 0.365 7.69 4.27 14.74
2/3/2021 10:00:00 AM 2.05 35.69 0.365 7.73 3.78 15.01
2/3/2021 10:15:00 AM 2.14 35.852 0.365 7.76 3.63 15.12
2/3/2021 10:30:00 AM 1.95 35.51 0.318 6.76 3.1 13.19
2/3/2021 10:45:00 AM 2.27 36.086 0.359 7.67 3.73 15.03
2/3/2021 11:00:00 AM 2.37 36.266 0.364 7.8 3.92 15.26
2/3/2021 11:15:00 AM 2.13 35.834 0.318 6.79 3.13 13.36
2/3/2021 11:30:00 AM 2.19 35.942 0.317 6.81 2.99 13.35
2/3/2021 11:45:00 AM 2.24 36.032 0.318 6.82 3.27 13.43
2/3/2021 12:00:00 PM 2.5 36.5 0.345 7.44 3.19 14.65
2/3/2021 12:15:00 PM 2.67 36.806 0.363 7.83 3.32 15.38
2/3/2021 12:30:00 PM 2.73 36.914 0.365 7.89 3.47 15.38
2/3/2021 12:45:00 PM 2.76 36.968 0.365 7.91 3.48 15.46
2/3/2021 1:00:00 PM 2.8 37.04 0.365 7.92 3.44 15.5
2/3/2021 1:15:00 PM 2.84 37.112 0.365 7.93 3.39 15.55
2/3/2021 1:30:00 PM 2.88 37.184 0.365 7.95 3.35 15.57
2/3/2021 1:45:00 PM 2.92 37.256 0.365 7.96 3.33 15.64
2/3/2021 2:00:00 PM 2.96 37.328 0.365 7.97 3.51 15.66
2/3/2021 2:15:00 PM 3.01 37.418 0.365 7.98 3.34 15.7
2/3/2021 2:30:00 PM 3.05 37.49 0.365 7.99 3.2 15.7
2/3/2021 2:45:00 PM 3.08 37.544 0.365 8 3.14 15.74
2/3/2021 3:00:00 PM 3.11 37.598 0.365 8.01 3.13 15.77
2/3/2021 3:15:00 PM 3.11 37.598 0.365 8 3.09 15.71
2/3/2021 3:30:00 PM 2.7 36.86 0.317 6.93 2.61 13.63
2/3/2021 3:45:00 PM 3.05 37.49 0.359 7.85 3.06 15.27
2/3/2021 4:00:00 PM 3.09 37.562 0.364 7.96 3.26 15.43
2/3/2021 4:15:00 PM 2.69 36.842 0.318 6.91 2.67 13.41
2/3/2021 4:30:00 PM 3.05 37.49 0.359 7.82 3.08 15.11
2/3/2021 4:45:00 PM 3.1 37.58 0.365 7.93 3.17 15.27
2/3/2021 5:00:00 PM 3.08 37.544 0.366 7.91 3.07 15.18
2/3/2021 5:15:00 PM 3.04 37.472 0.366 7.87 3.11 14.94
2/3/2021 5:30:00 PM 2.99 37.382 0.367 7.82 3.07 14.66
2/3/2021 5:45:00 PM 2.94 37.292 0.368 7.77 3.14 14.44
2/3/2021 6:00:00 PM 2.5 36.5 0.32 6.69 2.62 12.28
2/3/2021 6:15:00 PM 2.8 37.04 0.362 7.56 3.01 13.73
2/3/2021 6:30:00 PM 2.8 37.04 0.368 7.65 3.19 13.81
2/3/2021 6:45:00 PM 2.38 36.284 0.321 6.63 2.75 11.95
2/3/2021 7:00:00 PM 2.66 36.788 0.362 7.5 3.11 13.46
2/3/2021 7:15:00 PM 2.65 36.77 0.368 7.6 3.23 13.59
2/3/2021 7:30:00 PM 2.61 36.698 0.369 7.61 3.35 13.53
2/3/2021 7:45:00 PM 2.58 36.644 0.369 7.61 3.45 13.56
2/3/2021 8:00:00 PM 2.56 36.608 0.369 7.6 3.59 13.53
2/3/2021 8:15:00 PM 2.54 36.572 0.37 7.6 3.89 13.39
2/3/2021 8:30:00 PM 2.53 36.554 0.37 7.59 4.07 13.46
2/3/2021 8:45:00 PM 2.53 36.554 0.37 7.58 4.15 13.43
2/3/2021 9:00:00 PM 2.19 35.942 0.322 6.57 3.3 11.57
2/3/2021 9:15:00 PM 2.46 36.428 0.364 7.44 4.02 13.1
2/3/2021 9:30:00 PM 2.16 35.888 0.323 6.57 4.09 11.57
2/3/2021 9:45:00 PM 2.43 36.374 0.365 7.43 4.41 13.04
2/3/2021 10:00:00 PM 2.45 36.41 0.371 7.53 4.8 13.21
2/3/2021 10:15:00 PM 2.43 36.374 0.372 7.54 5 13.23
2/3/2021 10:30:00 PM 2.07 35.726 0.324 6.53 4.09 11.5
2/3/2021 10:45:00 PM 2.3 36.14 0.366 7.4 4.34 12.89
2/3/2021 11:00:00 PM 2.28 36.104 0.372 7.51 4.24 13.17
2/3/2021 11:15:00 PM 1.94 35.492 0.325 6.52 3.7 11.42
2/3/2021 11:30:00 PM 2.15 35.87 0.367 7.39 4.22 12.92
2/3/2021 11:45:00 PM 2.15 35.87 0.373 7.5 4 13.12
2/4/2021 12:00:00 AM 2.12 35.816 0.375 7.51 4.13 13.06
2/4/2021 12:15:00 AM 2.07 35.726 0.375 7.51 4.54 12.99
2/4/2021 12:30:00 AM 2.04 35.672 0.375 7.51 4.81 13.11
2/4/2021 12:45:00 AM 1.74 35.132 0.326 6.5 3.82 11.36
2/4/2021 1:00:00 AM 1.87 35.366 0.355 7.08 3.82 12.22
2/4/2021 1:15:00 AM 1.94 35.492 0.373 7.44 3.82 12.87
2/4/2021 1:30:00 AM 1.92 35.456 0.376 7.49 3.9 12.92
2/4/2021 1:45:00 AM 1.91 35.438 0.377 7.49 3.86 13.01
2/4/2021 2:00:00 AM 1.62 34.916 0.328 6.49 3.15 11.31
2/4/2021 2:15:00 AM 1.59 34.862 0.328 6.49 3.18 11.3
2/4/2021 2:30:00 AM 1.78 35.204 0.371 7.36 3.75 12.81
2/4/2021 2:45:00 AM 1.78 35.204 0.377 7.47 4.07 12.92
2/4/2021 3:00:00 AM 1.76 35.168 0.378 7.49 3.91 13.02
2/4/2021 3:15:00 AM 1.51 34.718 0.329 6.48 3.18 11.33
2/4/2021 3:30:00 AM 1.69 35.042 0.372 7.35 4.12 12.81
2/4/2021 3:45:00 AM 1.71 35.078 0.378 7.46 4.37 12.99
2/4/2021 4:00:00 AM 1.7 35.06 0.379 7.48 4.59 13.04
2/4/2021 4:15:00 AM 1.68 35.024 0.38 7.48 4.31 13.04
2/4/2021 4:30:00 AM 1.44 34.592 0.331 6.48 3.64 11.31
2/4/2021 4:45:00 AM 1.6 34.88 0.373 7.34 4.02 12.68
2/4/2021 5:00:00 AM 1.6 34.88 0.379 7.46 3.81 12.91
2/4/2021 5:15:00 AM 1.58 34.844 0.38 7.47 3.84 12.99
2/4/2021 5:30:00 AM 1.55 34.79 0.38 7.47 3.99 13.04
2/4/2021 5:45:00 AM 1.52 34.736 0.381 7.47 4.82 13.06
2/4/2021 6:00:00 AM 1.5 34.7 0.381 7.47 4.82 12.99
2/4/2021 6:15:00 AM 1.47 34.646 0.381 7.47 4.87 12.98
2/4/2021 6:30:00 AM 1.44 34.592 0.381 7.47 4.82 13.05
2/4/2021 6:45:00 AM 1.42 34.556 0.381 7.47 4.22 12.97
2/4/2021 7:00:00 AM 1.39 34.502 0.382 7.46 3.92 13.1
2/4/2021 7:15:00 AM 1.36 34.448 0.382 7.46 3.95 13.04
2/4/2021 7:30:00 AM 1.33 34.394 0.382 7.47 3.54 13.07
2/4/2021 7:45:00 AM 1.3 34.34 0.383 7.48 3.64 13.16
2/4/2021 8:00:00 AM 1.27 34.286 0.383 7.49 3.67 13.41
2/4/2021 8:15:00 AM 1.27 34.286 0.383 7.51 4.04 13.63
2/4/2021 8:30:00 AM 1.29 34.322 0.383 7.54 4.48 13.77
2/4/2021 8:45:00 AM 1.33 34.394 0.383 7.57 4.7 14.07
2/4/2021 9:00:00 AM 1.41 34.538 0.383 7.6 6.76 14.22
2/4/2021 9:15:00 AM 1.5 34.7 0.383 7.63 4.55 14.53
2/4/2021 9:30:00 AM 1.41 34.538 0.334 6.63 3.61 12.75
2/4/2021 9:45:00 AM 1.71 35.078 0.377 7.54 4.59 14.58
2/4/2021 10:00:00 AM 1.87 35.366 0.384 7.69 4.38 15.03
2/4/2021 10:15:00 AM 2.04 35.672 0.385 7.74 3.98 15.15
2/4/2021 10:30:00 AM 2.21 35.978 0.386 7.76 4.02 15.27
2/4/2021 10:45:00 AM 2.12 35.816 0.336 6.75 3.09 13.29
2/4/2021 11:00:00 AM 2.58 36.644 0.381 7.66 3.37 15.22
2/4/2021 11:15:00 AM 2.81 37.058 0.387 7.8 3.25 15.43
2/4/2021 11:30:00 AM 3 37.4 0.389 7.83 3.11 15.47
2/4/2021 11:45:00 AM 2.8 37.04 0.339 6.8 2.55 13.45
2/4/2021 12:00:00 PM 3.32 37.976 0.384 7.71 3.02 15.31
2/4/2021 12:15:00 PM 3.11 37.598 0.341 6.82 2.57 13.58
2/4/2021 12:30:00 PM 3.68 38.624 0.385 7.73 2.94 15.2
2/4/2021 12:45:00 PM 3.89 39.002 0.392 7.85 2.95 15.42
2/4/2021 1:00:00 PM 4.03 39.254 0.394 7.87 3.05 15.47
2/4/2021 1:15:00 PM 4.13 39.434 0.394 7.87 3.12 15.41
2/4/2021 1:30:00 PM 4.16 39.488 0.394 7.86 3.22 15.4
2/4/2021 1:45:00 PM 4.13 39.434 0.393 7.87 3.59 15.56
2/4/2021 2:00:00 PM 4.03 39.254 0.39 7.88 3.79 15.58
2/4/2021 2:15:00 PM 3.91 39.038 0.387 7.89 3.63 15.59
2/4/2021 2:30:00 PM 3.77 38.786 0.385 7.91 3.62 15.6
2/4/2021 2:45:00 PM 3.64 38.552 0.382 7.93 3.77 15.64
2/4/2021 3:00:00 PM 3.53 38.354 0.38 7.94 3.76 15.62
2/4/2021 3:15:00 PM 3.43 38.174 0.378 7.94 3.86 15.44
2/4/2021 3:30:00 PM 3.35 38.03 0.377 7.94 3.62 15.53
2/4/2021 3:45:00 PM 3.3 37.94 0.376 7.95 3.82 15.44
2/4/2021 4:00:00 PM 3.26 37.868 0.375 7.94 3.85 15.25
2/4/2021 4:15:00 PM 3.24 37.832 0.375 7.93 3.61 15.26
2/4/2021 4:30:00 PM 2.8 37.04 0.326 6.87 3.06 13.14
2/4/2021 4:45:00 PM 3.16 37.688 0.368 7.75 3.33 14.79
2/4/2021 5:00:00 PM 3.19 37.742 0.373 7.84 3.39 14.75
2/4/2021 5:15:00 PM 3.17 37.706 0.374 7.82 3.42 14.63
2/4/2021 5:30:00 PM 3.14 37.652 0.374 7.78 3.43 14.45
2/4/2021 5:45:00 PM 3.12 37.616 0.374 7.74 3.37 14.17
2/4/2021 6:00:00 PM 3.08 37.544 0.374 7.7 3.44 13.99
2/4/2021 6:15:00 PM 2.63 36.734 0.326 6.65 2.97 12.04
2/4/2021 6:30:00 PM 2.94 37.292 0.368 7.51 3.38 13.45
2/4/2021 6:45:00 PM 2.95 37.31 0.374 7.61 3.93 13.66
2/4/2021 7:00:00 PM 2.92 37.256 0.374 7.62 3.63 13.64
2/4/2021 7:15:00 PM 2.88 37.184 0.375 7.61 3.86 13.64
2/4/2021 7:30:00 PM 2.84 37.112 0.375 7.6 4.56 13.58
2/4/2021 7:45:00 PM 2.8 37.04 0.375 7.59 4.77 13.52
2/4/2021 8:00:00 PM 2.75 36.95 0.375 7.59 5.58 13.49
2/4/2021 8:15:00 PM 2.7 36.86 0.375 7.58 5.72 13.46
2/4/2021 8:30:00 PM 2.66 36.788 0.376 7.58 4.94 13.36
2/4/2021 8:45:00 PM 2.62 36.716 0.376 7.57 5.79 13.38
2/4/2021 9:00:00 PM 2.6 36.68 0.377 7.56 5.56 13.38
2/4/2021 9:15:00 PM 2.22 35.996 0.329 6.55 4.29 11.54
2/4/2021 9:30:00 PM 2.49 36.482 0.371 7.41 4.75 12.96
2/4/2021 9:45:00 PM 2.51 36.518 0.377 7.52 6.14 13.21
2/4/2021 10:00:00 PM 2.5 36.5 0.379 7.53 6.78 13.14
2/4/2021 10:15:00 PM 2.49 36.482 0.379 7.53 6.85 13.19
2/4/2021 10:30:00 PM 2.48 36.464 0.38 7.52 5.45 13.17
2/4/2021 10:45:00 PM 2.15 35.87 0.331 6.52 3.75 11.36
2/4/2021 11:00:00 PM 2.14 35.852 0.33 6.51 3.24 11.34
2/4/2021 11:15:00 PM 2.14 35.852 0.331 6.5 3.45 11.4
2/4/2021 11:30:00 PM 2.14 35.852 0.331 6.5 3.4 11.32
2/4/2021 11:45:00 PM 2.43 36.374 0.374 7.37 3.81 12.78
2/5/2021 12:00:00 AM 2.49 36.482 0.38 7.48 3.88 12.99
2/5/2021 12:15:00 AM 2.51 36.518 0.382 7.49 3.95 12.96
2/5/2021 12:30:00 AM 2.54 36.572 0.382 7.49 3.86 12.87
2/5/2021 12:45:00 AM 2.56 36.608 0.382 7.49 3.94 12.85
2/5/2021 1:00:00 AM 2.57 36.626 0.383 7.49 3.88 12.88
2/5/2021 1:15:00 AM 2.58 36.644